Wetterdaten: aktuell Freitag, 19.07.2019 21:17
Datum Zeit Temp. I. Temp. 2m Feuchte I. Luftf.2m Luftdruck Regen Wind Richtung Richtung Taupunkt Windchill Windben Empfang
19.07.2019 21:17 25,4 C 19,9 C 55 % 78 % 1015,1 hPa 0,0 l/m 0,0 km/h (0 Bft) N 0 15,9 C 19,9 C 0,0 km/h (0 Bft) 100,00 %
19.07.2019 21:16 25,4 C 20,0 C 54 % 79 % 1015,0 hPa 0,0 l/m 0,0 km/h (0 Bft) N 0 16,2 C 20,0 C 0,0 km/h (0 Bft) 100,00 %
19.07.2019 21:15 25,4 C 20,1 C 54 % 79 % 1015,0 hPa 0,0 l/m 0,0 km/h (0 Bft) N 0 16,3 C 20,1 C 0,0 km/h (0 Bft) 100,00 %
19.07.2019 21:14 25,5 C 20,1 C 54 % 79 % 1015,0 hPa 0,0 l/m 0,0 km/h (0 Bft) N 0 16,3 C 20,1 C 0,0 km/h (0 Bft) 100,00 %
19.07.2019 21:13 25,5 C 20,2 C 54 % 78 % 1015,0 hPa 0,0 l/m 0,0 km/h (0 Bft) N 0 16,2 C 20,2 C 0,0 km/h (0 Bft) 95,65 %
19.07.2019 21:12 25,6 C 20,2 C 54 % 78 % 1015,0 hPa 0,0 l/m 0,0 km/h (0 Bft) N 0 16,2 C 20,2 C 0,0 km/h (0 Bft) 100,00 %
19.07.2019 21:11 25,6 C 20,3 C 54 % 78 % 1015,1 hPa 0,0 l/m 0,0 km/h (0 Bft) N 0 16,3 C 20,3 C 0,0 km/h (0 Bft) 100,00 %
19.07.2019 21:10 25,6 C 20,3 C 54 % 77 % 1015,0 hPa 0,0 l/m 0,0 km/h (0 Bft) N 0 16,1 C 20,3 C 0,0 km/h (0 Bft) 95,65 %
19.07.2019 21:09 25,6 C 20,3 C 55 % 75 % 1015,0 hPa 0,0 l/m 0,0 km/h (0 Bft) N 0 15,7 C 20,3 C 0,0 km/h (0 Bft) 100,00 %
19.07.2019 21:08 25,6 C 20,3 C 55 % 74 % 1015,0 hPa 0,0 l/m 0,0 km/h (0 Bft) N 0 15,5 C 20,3 C 0,0 km/h (0 Bft) 95,65 %
19.07.2019 21:07 25,7 C 20,3 C 55 % 74 % 1015,0 hPa 0,0 l/m 0,0 km/h (0 Bft) N 0 15,5 C 20,3 C 0,0 km/h (0 Bft) 95,65 %
19.07.2019 21:06 25,7 C 20,4 C 55 % 74 % 1014,9 hPa 0,0 l/m 0,0 km/h (0 Bft) N 0 15,6 C 20,4 C 0,0 km/h (0 Bft) 95,65 %
19.07.2019 21:05 25,7 C 20,4 C 55 % 74 % 1014,9 hPa 0,0 l/m 0,0 km/h (0 Bft) N 0 15,6 C 20,4 C 0,0 km/h (0 Bft) 100,00 %
19.07.2019 21:04 25,7 C 20,4 C 55 % 74 % 1014,9 hPa 0,0 l/m 0,0 km/h (0 Bft) N 0 15,6 C 20,4 C 0,0 km/h (0 Bft) 100,00 %
19.07.2019 21:03 25,7 C 20,5 C 55 % 74 % 1014,9 hPa 0,0 l/m 0,0 km/h (0 Bft) N 0 15,7 C 20,5 C 0,0 km/h (0 Bft) 95,65 %
19.07.2019 21:02 25,7 C 20,6 C 55 % 74 % 1014,8 hPa 0,0 l/m 0,0 km/h (0 Bft) N 0 15,8 C 20,6 C 0,0 km/h (0 Bft) 100,00 %
19.07.2019 21:01 25,7 C 20,6 C 55 % 74 % 1014,9 hPa 0,0 l/m 0,0 km/h (0 Bft) N 0 15,8 C 20,6 C 0,0 km/h (0 Bft) 95,65 %
19.07.2019 21:00 25,7 C 20,5 C 55 % 73 % 1014,9 hPa 0,0 l/m 0,0 km/h (0 Bft) N 0 15,5 C 20,5 C 0,0 km/h (0 Bft) 100,00 %
19.07.2019 20:59 25,7 C 20,6 C 55 % 72 % 1014,9 hPa 0,0 l/m 0,0 km/h (0 Bft) N 0 15,4 C 20,6 C 0,0 km/h (0 Bft) 95,65 %
19.07.2019 20:58 25,8 C 20,6 C 55 % 72 % 1014,8 hPa 0,0 l/m 0,0 km/h (0 Bft) N 0 15,4 C 20,6 C 0,0 km/h (0 Bft) 100,00 %
19.07.2019 20:57 25,8 C 20,6 C 55 % 72 % 1014,8 hPa 0,0 l/m 0,0 km/h (0 Bft) N 0 15,4 C 20,6 C 0,0 km/h (0 Bft) 100,00 %
19.07.2019 20:56 25,8 C 20,6 C 55 % 72 % 1014,9 hPa 0,0 l/m 0,0 km/h (0 Bft) N 0 15,4 C 20,6 C 0,0 km/h (0 Bft) 100,00 %
19.07.2019 20:55 25,8 C 20,7 C 55 % 71 % 1014,8 hPa 0,0 l/m 0,0 km/h (0 Bft) N 0 15,2 C 20,7 C 0,0 km/h (0 Bft) 100,00 %
19.07.2019 20:54 25,8 C 20,7 C 55 % 71 % 1014,8 hPa 0,0 l/m 0,0 km/h (0 Bft) N 0 15,2 C 20,7 C 0,0 km/h (0 Bft) 100,00 %
19.07.2019 20:53 25,8 C 20,8 C 55 % 71 % 1014,8 hPa 0,0 l/m 0,0 km/h (0 Bft) N 0 15,3 C 20,8 C 0,0 km/h (0 Bft) 100,00 %
19.07.2019 20:52 25,8 C 20,8 C 55 % 72 % 1014,7 hPa 0,0 l/m 0,0 km/h (0 Bft) N 0 15,6 C 20,8 C 0,0 km/h (0 Bft) 100,00 %
19.07.2019 20:51 25,8 C 20,9 C 55 % 72 % 1014,8 hPa 0,0 l/m 0,0 km/h (0 Bft) N 0 15,7 C 20,9 C 0,0 km/h (0 Bft) 100,00 %
19.07.2019 20:50 25,8 C 20,9 C 55 % 72 % 1014,7 hPa 0,0 l/m 0,0 km/h (0 Bft) N 0 15,7 C 20,9 C 0,0 km/h (0 Bft) 100,00 %
19.07.2019 20:49 25,9 C 21,1 C 55 % 73 % 1014,7 hPa 0,0 l/m 0,0 km/h (0 Bft) N 0 16,1 C 21,1 C 0,0 km/h (0 Bft) 100,00 %
19.07.2019 20:48 25,9 C 21,1 C 55 % 74 % 1014,7 hPa 0,0 l/m 0,0 km/h (0 Bft) N 0 16,3 C 21,1 C 0,0 km/h (0 Bft) 100,00 %
19.07.2019 20:47 25,9 C 21,2 C 55 % 72 % 1014,7 hPa 0,0 l/m 0,0 km/h (0 Bft) N 0 15,9 C 21,2 C 0,0 km/h (0 Bft) 91,30 %
19.07.2019 20:46 25,9 C 21,2 C 54 % 72 % 1014,7 hPa 0,0 l/m 0,0 km/h (0 Bft) N 0 15,9 C 21,2 C 0,0 km/h (0 Bft) 91,30 %
19.07.2019 20:45 25,9 C 21,3 C 54 % 72 % 1014,7 hPa 0,0 l/m 0,0 km/h (0 Bft) N 0 16,0 C 21,3 C 0,0 km/h (0 Bft) 100,00 %
19.07.2019 20:44 25,9 C 21,4 C 54 % 72 % 1014,7 hPa 0,0 l/m 0,0 km/h (0 Bft) N 0 16,1 C 21,4 C 0,0 km/h (0 Bft) 100,00 %
19.07.2019 20:43 25,9 C 21,4 C 54 % 72 % 1014,7 hPa 0,0 l/m 0,0 km/h (0 Bft) N 0 16,1 C 21,4 C 0,0 km/h (0 Bft) 100,00 %
19.07.2019 20:42 26,0 C 21,5 C 54 % 70 % 1014,7 hPa 0,0 l/m 0,0 km/h (0 Bft) N 0 15,8 C 21,5 C 0,0 km/h (0 Bft) 100,00 %
19.07.2019 20:41 26,0 C 21,6 C 54 % 72 % 1014,7 hPa 0,0 l/m 0,0 km/h (0 Bft) N 0 16,3 C 21,6 C 0,0 km/h (0 Bft) 100,00 %
19.07.2019 20:40 26,0 C 21,6 C 54 % 71 % 1014,7 hPa 0,0 l/m 0,0 km/h (0 Bft) N 0 16,1 C 21,6 C 0,0 km/h (0 Bft) 100,00 %
19.07.2019 20:39 26,0 C 21,7 C 54 % 70 % 1014,7 hPa 0,0 l/m 0,0 km/h (0 Bft) N 0 16,0 C 21,7 C 0,0 km/h (0 Bft) 100,00 %
19.07.2019 20:38 26,1 C 21,7 C 54 % 68 % 1014,7 hPa 0,0 l/m 0,0 km/h (0 Bft) N 0 15,5 C 21,7 C 0,0 km/h (0 Bft) 100,00 %
19.07.2019 20:37 26,1 C 21,8 C 54 % 68 % 1014,7 hPa 0,0 l/m 0,0 km/h (0 Bft) N 0 15,6 C 21,8 C 0,0 km/h (0 Bft) 100,00 %
19.07.2019 20:36 26,1 C 21,8 C 54 % 67 % 1014,7 hPa 0,0 l/m 0,0 km/h (0 Bft) N 0 15,4 C 21,8 C 0,0 km/h (0 Bft) 100,00 %
19.07.2019 20:35 26,1 C 21,9 C 54 % 67 % 1014,7 hPa 0,0 l/m 0,0 km/h (0 Bft) N 0 15,5 C 21,9 C 0,0 km/h (0 Bft) 100,00 %
19.07.2019 20:34 26,1 C 22,0 C 54 % 67 % 1014,7 hPa 0,0 l/m 0,0 km/h (0 Bft) N 0 15,6 C 22,0 C 0,0 km/h (0 Bft) 100,00 %
19.07.2019 20:33 26,1 C 22,1 C 54 % 67 % 1014,7 hPa 0,0 l/m 0,0 km/h (0 Bft) N 0 15,7 C 22,1 C 0,0 km/h (0 Bft) 100,00 %
19.07.2019 20:32 26,1 C 22,1 C 54 % 67 % 1014,7 hPa 0,0 l/m 0,0 km/h (0 Bft) N 0 15,7 C 22,1 C 0,0 km/h (0 Bft) 100,00 %
19.07.2019 20:31 26,2 C 22,2 C 54 % 67 % 1014,6 hPa 0,0 l/m 0,0 km/h (0 Bft) N 0 15,8 C 22,2 C 0,0 km/h (0 Bft) 100,00 %
19.07.2019 20:30 26,2 C 22,3 C 54 % 67 % 1014,7 hPa 0,0 l/m 0,0 km/h (0 Bft) N 0 15,9 C 22,3 C 0,0 km/h (0 Bft) 100,00 %
19.07.2019 20:29 26,2 C 22,3 C 54 % 67 % 1014,7 hPa 0,0 l/m 0,0 km/h (0 Bft) N 0 15,9 C 22,3 C 0,0 km/h (0 Bft) 100,00 %
19.07.2019 20:28 26,2 C 22,4 C 54 % 67 % 1014,7 hPa 0,0 l/m 0,0 km/h (0 Bft) N 0 16,0 C 22,4 C 0,0 km/h (0 Bft) 100,00 %
19.07.2019 20:27 26,2 C 22,4 C 54 % 66 % 1014,7 hPa 0,0 l/m 0,0 km/h (0 Bft) N 0 15,7 C 22,4 C 0,0 km/h (0 Bft) 100,00 %
19.07.2019 20:26 26,2 C 22,6 C 54 % 66 % 1014,7 hPa 0,0 l/m 0,0 km/h (0 Bft) N 0 15,9 C 22,6 C 0,0 km/h (0 Bft) 100,00 %
19.07.2019 20:25 26,3 C 22,7 C 54 % 67 % 1014,7 hPa 0,0 l/m 0,0 km/h (0 Bft) N 0 16,2 C 22,7 C 0,0 km/h (0 Bft) 95,65 %
19.07.2019 20:24 26,3 C 22,7 C 54 % 67 % 1014,7 hPa 0,0 l/m 0,0 km/h (0 Bft) N 0 16,2 C 22,7 C 0,0 km/h (0 Bft) 100,00 %
19.07.2019 20:23 26,3 C 22,8 C 54 % 67 % 1014,7 hPa 0,0 l/m 0,0 km/h (0 Bft) N 0 16,3 C 22,8 C 0,0 km/h (0 Bft) 100,00 %
19.07.2019 20:22 26,3 C 22,9 C 54 % 66 % 1014,7 hPa 0,0 l/m 0,0 km/h (0 Bft) N 0 16,2 C 22,9 C 0,0 km/h (0 Bft) 100,00 %
19.07.2019 20:21 26,3 C 23,0 C 55 % 65 % 1014,7 hPa 0,0 l/m 0,0 km/h (0 Bft) N 0 16,1 C 23,0 C 0,0 km/h (0 Bft) 100,00 %
19.07.2019 20:20 26,3 C 23,1 C 54 % 64 % 1014,7 hPa 0,0 l/m 0,0 km/h (0 Bft) N 0 15,9 C 23,1 C 0,0 km/h (0 Bft) 100,00 %
19.07.2019 20:19 26,3 C 23,2 C 54 % 64 % 1014,7 hPa 0,0 l/m 0,0 km/h (0 Bft) N 0 16,0 C 23,2 C 0,0 km/h (0 Bft) 100,00 %
19.07.2019 20:18 26,4 C 23,2 C 54 % 62 % 1014,7 hPa 0,0 l/m 0,0 km/h (0 Bft) N 0 15,5 C 23,2 C 0,0 km/h (0 Bft) 100,00 %
19.07.2019 20:17 26,4 C 23,3 C 54 % 63 % 1014,7 hPa 0,0 l/m 0,0 km/h (0 Bft) N 0 15,9 C 23,3 C 0,0 km/h (0 Bft) 100,00 %
19.07.2019 20:16 26,4 C 23,4 C 54 % 62 % 1014,7 hPa 0,0 l/m 0,0 km/h (0 Bft) N 0 15,7 C 23,4 C 0,0 km/h (0 Bft) 100,00 %
19.07.2019 20:15 26,4 C 23,5 C 55 % 62 % 1014,7 hPa 0,0 l/m 0,0 km/h (0 Bft) N 0 15,8 C 23,5 C 0,0 km/h (0 Bft) 100,00 %
19.07.2019 20:14 26,4 C 23,6 C 55 % 64 % 1014,7 hPa 0,0 l/m 0,0 km/h (0 Bft) N 0 16,4 C 23,6 C 0,0 km/h (0 Bft) 100,00 %
19.07.2019 20:13 26,4 C 23,7 C 55 % 66 % 1014,7 hPa 0,0 l/m 0,0 km/h (0 Bft) N 0 17,0 C 23,7 C 0,0 km/h (0 Bft) 100,00 %
19.07.2019 20:12 26,5 C 23,7 C 55 % 61 % 1014,7 hPa 0,0 l/m 0,0 km/h (0 Bft) N 0 15,7 C 23,7 C 0,0 km/h (0 Bft) 100,00 %
19.07.2019 20:11 26,5 C 23,8 C 55 % 60 % 1014,7 hPa 0,0 l/m 0,0 km/h (0 Bft) N 0 15,6 C 23,8 C 0,0 km/h (0 Bft) 100,00 %
19.07.2019 20:10 26,5 C 23,9 C 55 % 60 % 1014,7 hPa 0,0 l/m 0,0 km/h (0 Bft) N 0 15,7 C 23,9 C 0,0 km/h (0 Bft) 100,00 %
19.07.2019 20:09 26,5 C 23,9 C 55 % 60 % 1014,8 hPa 0,0 l/m 0,0 km/h (0 Bft) N 0 15,7 C 23,9 C 0,0 km/h (0 Bft) 100,00 %
19.07.2019 20:08 26,6 C 24,0 C 56 % 60 % 1014,7 hPa 0,0 l/m 0,0 km/h (0 Bft) N 0 15,7 C 24,0 C 0,0 km/h (0 Bft) 100,00 %
19.07.2019 20:07 26,6 C 24,1 C 56 % 60 % 1014,7 hPa 0,0 l/m 0,0 km/h (0 Bft) N 0 15,8 C 24,1 C 0,0 km/h (0 Bft) 100,00 %
19.07.2019 20:06 26,6 C 24,2 C 56 % 61 % 1014,8 hPa 0,0 l/m 0,0 km/h (0 Bft) N 0 16,2 C 24,2 C 0,0 km/h (0 Bft) 95,65 %
19.07.2019 20:05 26,6 C 24,3 C 56 % 61 % 1014,7 hPa 0,0 l/m 0,0 km/h (0 Bft) N 0 16,3 C 24,3 C 0,0 km/h (0 Bft) 100,00 %
19.07.2019 20:04 26,6 C 24,4 C 56 % 62 % 1014,7 hPa 0,0 l/m 0,0 km/h (0 Bft) N 0 16,6 C 24,4 C 0,0 km/h (0 Bft) 100,00 %
19.07.2019 20:03 26,7 C 24,6 C 56 % 66 % 1014,7 hPa 0,0 l/m 0,0 km/h (0 Bft) N 0 17,8 C 24,6 C 0,0 km/h (0 Bft) 100,00 %
19.07.2019 20:02 26,7 C 24,6 C 56 % 68 % 1014,8 hPa 0,0 l/m 0,0 km/h (0 Bft) N 0 18,3 C 24,6 C 0,0 km/h (0 Bft) 100,00 %
19.07.2019 20:01 26,7 C 24,7 C 56 % 67 % 1014,7 hPa 0,0 l/m 0,0 km/h (0 Bft) N 0 18,1 C 24,7 C 0,0 km/h (0 Bft) 100,00 %
19.07.2019 20:00 26,7 C 24,7 C 56 % 66 % 1014,7 hPa 0,0 l/m 0,0 km/h (0 Bft) N 0 17,9 C 24,7 C 0,0 km/h (0 Bft) 100,00 %
19.07.2019 19:59 26,7 C 24,8 C 56 % 64 % 1014,7 hPa 0,0 l/m 0,0 km/h (0 Bft) N 0 17,5 C 24,8 C 0,0 km/h (0 Bft) 100,00 %
19.07.2019 19:58 26,7 C 24,8 C 56 % 64 % 1014,7 hPa 0,0 l/m 0,0 km/h (0 Bft) N 0 17,5 C 24,8 C 0,0 km/h (0 Bft) 95,65 %
19.07.2019 19:57 26,7 C 24,9 C 56 % 64 % 1014,7 hPa 0,0 l/m 0,0 km/h (0 Bft) N 0 17,6 C 24,9 C 0,0 km/h (0 Bft) 100,00 %
19.07.2019 19:56 26,7 C 25,0 C 56 % 59 % 1014,7 hPa 0,0 l/m 0,0 km/h (0 Bft) N 0 16,4 C 25,0 C 0,0 km/h (0 Bft) 95,65 %
19.07.2019 19:55 26,7 C 25,1 C 56 % 59 % 1014,7 hPa 0,0 l/m 0,0 km/h (0 Bft) N 0 16,5 C 25,1 C 0,0 km/h (0 Bft) 100,00 %
19.07.2019 19:54 26,7 C 25,1 C 56 % 58 % 1014,7 hPa 0,0 l/m 0,0 km/h (0 Bft) N 0 16,2 C 25,1 C 0,0 km/h (0 Bft) 95,65 %
19.07.2019 19:53 26,7 C 25,1 C 56 % 59 % 1014,7 hPa 0,0 l/m 0,0 km/h (0 Bft) N 0 16,5 C 25,1 C 0,0 km/h (0 Bft) 100,00 %
19.07.2019 19:52 26,7 C 25,1 C 56 % 60 % 1014,7 hPa 0,0 l/m 0,0 km/h (0 Bft) N 0 16,8 C 25,1 C 0,0 km/h (0 Bft) 100,00 %
19.07.2019 19:51 26,7 C 25,1 C 56 % 60 % 1014,7 hPa 0,0 l/m 0,0 km/h (0 Bft) N 0 16,8 C 25,1 C 0,0 km/h (0 Bft) 100,00 %
19.07.2019 19:50 26,7 C 25,1 C 56 % 63 % 1014,7 hPa 0,0 l/m 0,0 km/h (0 Bft) N 0 17,5 C 25,1 C 0,0 km/h (0 Bft) 100,00 %
19.07.2019 19:49 26,7 C 25,1 C 56 % 64 % 1014,7 hPa 0,0 l/m 0,0 km/h (0 Bft) N 0 17,8 C 25,1 C 0,0 km/h (0 Bft) 100,00 %
19.07.2019 19:48 26,7 C 25,1 C 56 % 64 % 1014,7 hPa 0,0 l/m 0,0 km/h (0 Bft) N 0 17,8 C 25,1 C 0,0 km/h (0 Bft) 100,00 %
19.07.2019 19:47 26,7 C 25,1 C 56 % 64 % 1014,7 hPa 0,0 l/m 0,0 km/h (0 Bft) N 0 17,8 C 25,1 C 0,0 km/h (0 Bft) 100,00 %
19.07.2019 19:46 26,7 C 25,1 C 56 % 64 % 1014,7 hPa 0,0 l/m 0,0 km/h (0 Bft) N 0 17,8 C 25,1 C 0,0 km/h (0 Bft) 100,00 %
19.07.2019 19:45 26,7 C 25,1 C 56 % 64 % 1014,7 hPa 0,0 l/m 0,0 km/h (0 Bft) N 0 17,8 C 25,1 C 0,0 km/h (0 Bft) 100,00 %
19.07.2019 19:44 26,7 C 25,1 C 56 % 65 % 1014,7 hPa 0,0 l/m 0,0 km/h (0 Bft) N 0 18,0 C 25,1 C 0,0 km/h (0 Bft) 100,00 %
19.07.2019 19:43 26,8 C 25,1 C 56 % 65 % 1014,7 hPa 0,0 l/m 0,0 km/h (0 Bft) N 0 18,0 C 25,1 C 0,0 km/h (0 Bft) 100,00 %
19.07.2019 19:42 26,8 C 25,1 C 56 % 64 % 1014,6 hPa 0,0 l/m 0,0 km/h (0 Bft) N 0 17,8 C 25,1 C 0,0 km/h (0 Bft) 100,00 %
19.07.2019 19:41 26,8 C 25,2 C 56 % 61 % 1014,7 hPa 0,0 l/m 0,0 km/h (0 Bft) N 0 17,1 C 25,2 C 0,0 km/h (0 Bft) 95,65 %
19.07.2019 19:40 26,8 C 25,3 C 56 % 61 % 1014,7 hPa 0,0 l/m 0,0 km/h (0 Bft) N 0 17,2 C 25,3 C 0,0 km/h (0 Bft) 100,00 %
19.07.2019 19:39 26,8 C 25,3 C 56 % 61 % 1014,7 hPa 0,0 l/m 0,0 km/h (0 Bft) N 0 17,2 C 25,3 C 0,0 km/h (0 Bft) 100,00 %
19.07.2019 19:38 26,9 C 25,4 C 56 % 61 % 1014,7 hPa 0,0 l/m 0,0 km/h (0 Bft) N 0 17,3 C 25,4 C 0,0 km/h (0 Bft) 100,00 %
19.07.2019 19:37 26,8 C 25,5 C 56 % 60 % 1014,7 hPa 0,0 l/m 0,0 km/h (0 Bft) N 0 17,2 C 25,5 C 0,0 km/h (0 Bft) 95,65 %
19.07.2019 19:36 26,9 C 25,6 C 56 % 59 % 1014,7 hPa 0,0 l/m 0,0 km/h (0 Bft) N 0 17,0 C 25,6 C 0,0 km/h (0 Bft) 100,00 %
19.07.2019 19:35 26,9 C 25,6 C 56 % 58 % 1014,7 hPa 0,0 l/m 0,0 km/h (0 Bft) O 90 16,7 C 25,6 C 1,6 km/h (1 Bft) 100,00 %
19.07.2019 19:34 26,9 C 25,7 C 56 % 57 % 1014,7 hPa 0,0 l/m 0,0 km/h (0 Bft) O 90 16,5 C 25,7 C 1,6 km/h (1 Bft) 91,30 %
19.07.2019 19:33 26,9 C 25,7 C 56 % 57 % 1014,8 hPa 0,0 l/m 0,0 km/h (0 Bft) O 90 16,5 C 25,7 C 1,6 km/h (1 Bft) 100,00 %
19.07.2019 19:32 26,9 C 25,7 C 56 % 56 % 1014,7 hPa 0,0 l/m 1,6 km/h (1 Bft) O 90 16,2 C 25,7 C 1,6 km/h (1 Bft) 95,65 %
19.07.2019 19:31 26,9 C 25,7 C 56 % 56 % 1014,7 hPa 0,0 l/m 1,6 km/h (1 Bft) O 90 16,2 C 25,7 C 1,6 km/h (1 Bft) 100,00 %
19.07.2019 19:30 26,9 C 25,7 C 56 % 56 % 1014,7 hPa 0,0 l/m 1,6 km/h (1 Bft) O 90 16,2 C 25,7 C 1,6 km/h (1 Bft) 78,26 %
19.07.2019 19:29 26,9 C 25,7 C 56 % 57 % 1014,7 hPa 0,0 l/m 0,0 km/h (0 Bft) N 0 16,5 C 25,7 C 0,0 km/h (0 Bft) 78,26 %
19.07.2019 19:28 26,9 C 25,8 C 56 % 58 % 1014,7 hPa 0,0 l/m 0,0 km/h (0 Bft) N 0 16,9 C 25,8 C 0,0 km/h (0 Bft) 86,96 %
19.07.2019 19:27 26,9 C 25,8 C 56 % 59 % 1014,7 hPa 0,0 l/m 0,0 km/h (0 Bft) O 90 17,2 C 25,8 C 1,6 km/h (1 Bft) 65,22 %
19.07.2019 19:26 26,8 C 25,9 C 56 % 58 % 1014,7 hPa 0,0 l/m 0,0 km/h (0 Bft) N 0 17,0 C 25,9 C 0,0 km/h (0 Bft) 95,65 %
19.07.2019 19:25 26,8 C 25,9 C 56 % 55 % 1014,7 hPa 0,0 l/m 0,0 km/h (0 Bft) O 90 16,2 C 25,9 C 1,6 km/h (1 Bft) 100,00 %
19.07.2019 19:24 26,8 C 25,9 C 56 % 56 % 1014,7 hPa 0,0 l/m 1,6 km/h (1 Bft) O 90 16,4 C 25,9 C 1,6 km/h (1 Bft) 95,65 %
19.07.2019 19:23 26,8 C 25,9 C 56 % 57 % 1014,6 hPa 0,0 l/m 1,6 km/h (1 Bft) O 90 16,7 C 25,9 C 3,2 km/h (1 Bft) 82,61 %
19.07.2019 19:22 26,8 C 26,0 C 56 % 57 % 1014,7 hPa 0,0 l/m 4,8 km/h (1 Bft) O-NO 67 16,8 C 26,0 C 4,8 km/h (1 Bft) 78,26 %
19.07.2019 19:21 26,7 C 26,0 C 56 % 57 % 1014,7 hPa 0,0 l/m 1,6 km/h (1 Bft) O 90 16,8 C 26,0 C 3,2 km/h (1 Bft) 78,26 %
19.07.2019 19:20 26,7 C 26,1 C 57 % 54 % 1014,6 hPa 0,0 l/m 0,0 km/h (0 Bft) O 90 16,0 C 26,1 C 1,6 km/h (1 Bft) 73,91 %
19.07.2019 19:19 26,6 C 26,1 C 57 % 54 % 1014,7 hPa 0,0 l/m 0,0 km/h (0 Bft) N 0 16,0 C 26,1 C 0,0 km/h (0 Bft) 95,65 %
19.07.2019 19:18 26,6 C 26,1 C 57 % 54 % 1014,6 hPa 0,0 l/m 0,0 km/h (0 Bft) N 0 16,0 C 26,1 C 0,0 km/h (0 Bft) 95,65 %
19.07.2019 19:17 26,6 C 26,2 C 57 % 54 % 1014,6 hPa 0,0 l/m 0,0 km/h (0 Bft) O 90 16,1 C 26,2 C 1,6 km/h (1 Bft) 100,00 %
19.07.2019 19:16 26,6 C 26,2 C 57 % 54 % 1014,6 hPa 0,0 l/m 1,6 km/h (1 Bft) O 90 16,1 C 26,2 C 1,6 km/h (1 Bft) 100,00 %
19.07.2019 19:15 26,6 C 26,2 C 57 % 53 % 1014,6 hPa 0,0 l/m 1,6 km/h (1 Bft) O 90 15,8 C 26,2 C 3,2 km/h (1 Bft) 95,65 %
19.07.2019 19:14 26,6 C 26,2 C 57 % 53 % 1014,6 hPa 0,0 l/m 1,6 km/h (1 Bft) O 90 15,8 C 26,2 C 3,2 km/h (1 Bft) 100,00 %
19.07.2019 19:13 26,6 C 26,2 C 57 % 53 % 1014,6 hPa 0,0 l/m 1,6 km/h (1 Bft) O-NO 67 15,8 C 26,2 C 3,2 km/h (1 Bft) 95,65 %
19.07.2019 19:12 26,6 C 26,2 C 57 % 54 % 1014,6 hPa 0,0 l/m 3,2 km/h (1 Bft) O-NO 67 16,1 C 26,2 C 3,2 km/h (1 Bft) 95,65 %
19.07.2019 19:11 26,6 C 26,3 C 57 % 54 % 1014,6 hPa 0,0 l/m 1,6 km/h (1 Bft) O-NO 67 16,2 C 26,3 C 1,6 km/h (1 Bft) 82,61 %
19.07.2019 19:10 26,6 C 26,4 C 57 % 55 % 1014,6 hPa 0,0 l/m 1,6 km/h (1 Bft) O-NO 67 16,6 C 26,4 C 1,6 km/h (1 Bft) 86,96 %
19.07.2019 19:09 26,6 C 26,5 C 57 % 53 % 1014,6 hPa 0,0 l/m 3,2 km/h (1 Bft) O-NO 67 16,1 C 26,5 C 3,2 km/h (1 Bft) 95,65 %
19.07.2019 19:08 26,5 C 26,5 C 57 % 52 % 1014,6 hPa 0,0 l/m 3,2 km/h (1 Bft) O-NO 67 15,8 C 26,5 C 3,2 km/h (1 Bft) 91,30 %
19.07.2019 19:07 26,5 C 26,5 C 57 % 52 % 1014,5 hPa 0,0 l/m 0,0 km/h (0 Bft) O 90 15,8 C 26,5 C 3,2 km/h (1 Bft) 100,00 %
19.07.2019 19:06 26,5 C 26,6 C 57 % 51 % 1014,6 hPa 0,0 l/m 3,2 km/h (1 Bft) O 90 15,6 C 26,6 C 4,8 km/h (1 Bft) 82,61 %
19.07.2019 19:05 26,5 C 26,6 C 57 % 52 % 1014,5 hPa 0,0 l/m 1,6 km/h (1 Bft) O-NO 67 15,9 C 26,6 C 3,2 km/h (1 Bft) 47,83 %
19.07.2019 19:04 26,5 C 26,6 C 57 % 52 % 1014,6 hPa 0,0 l/m 3,2 km/h (1 Bft) O-NO 67 15,9 C 26,6 C 3,2 km/h (1 Bft) 100,00 %
19.07.2019 19:03 26,5 C 26,6 C 57 % 52 % 1014,5 hPa 0,0 l/m 1,6 km/h (1 Bft) O-NO 67 15,9 C 26,6 C 3,2 km/h (1 Bft) 86,96 %
19.07.2019 19:02 26,5 C 26,6 C 57 % 53 % 1014,6 hPa 0,0 l/m 1,6 km/h (1 Bft) O-NO 67 16,2 C 26,6 C 1,6 km/h (1 Bft) 73,91 %
19.07.2019 19:01 26,5 C 26,7 C 57 % 52 % 1014,5 hPa 0,0 l/m 1,6 km/h (1 Bft) O-NO 67 16,0 C 26,7 C 1,6 km/h (1 Bft) 78,26 %
19.07.2019 19:00 26,4 C 26,7 C 57 % 51 % 1014,6 hPa 0,0 l/m 1,6 km/h (1 Bft) O-NO 67 15,7 C 26,7 C 3,2 km/h (1 Bft) 91,30 %
19.07.2019 18:59 26,5 C 26,7 C 57 % 53 % 1014,6 hPa 0,0 l/m 1,6 km/h (1 Bft) O-NO 67 16,3 C 26,7 C 1,6 km/h (1 Bft) 69,57 %
19.07.2019 18:58 26,4 C 26,7 C 57 % 53 % 1014,6 hPa 0,0 l/m 1,6 km/h (1 Bft) O-NO 67 16,3 C 26,7 C 1,6 km/h (1 Bft) 78,26 %
19.07.2019 18:57 26,4 C 26,7 C 57 % 51 % 1014,5 hPa 0,0 l/m 1,6 km/h (1 Bft) O-NO 67 15,7 C 26,7 C 1,6 km/h (1 Bft) 95,65 %
19.07.2019 18:56 26,4 C 26,6 C 57 % 49 % 1014,5 hPa 0,0 l/m 1,6 km/h (1 Bft) O-NO 67 15,0 C 26,6 C 1,6 km/h (1 Bft) 100,00 %
19.07.2019 18:55 26,4 C 26,6 C 57 % 49 % 1014,5 hPa 0,0 l/m 0,0 km/h (0 Bft) O-NO 67 15,0 C 26,6 C 1,6 km/h (1 Bft) 100,00 %
19.07.2019 18:54 26,4 C 26,6 C 57 % 50 % 1014,6 hPa 0,0 l/m 1,6 km/h (1 Bft) O-NO 67 15,3 C 26,6 C 1,6 km/h (1 Bft) 60,87 %
19.07.2019 18:53 26,4 C 26,5 C 57 % 51 % 1014,6 hPa 0,0 l/m 0,0 km/h (0 Bft) O-NO 67 15,5 C 26,5 C 1,6 km/h (1 Bft) 100,00 %
19.07.2019 18:52 26,4 C 26,5 C 56 % 50 % 1014,6 hPa 0,0 l/m 0,0 km/h (0 Bft) O-NO 67 15,2 C 26,5 C 1,6 km/h (1 Bft) 95,65 %
19.07.2019 18:51 26,5 C 26,4 C 57 % 52 % 1014,5 hPa 0,0 l/m 1,6 km/h (1 Bft) O-NO 67 15,7 C 26,4 C 1,6 km/h (1 Bft) 69,57 %
19.07.2019 18:50 26,5 C 26,4 C 56 % 51 % 1014,6 hPa 0,0 l/m 1,6 km/h (1 Bft) O-NO 67 15,4 C 26,4 C 1,6 km/h (1 Bft) 91,30 %
19.07.2019 18:49 26,6 C 26,4 C 56 % 50 % 1014,5 hPa 0,0 l/m 3,2 km/h (1 Bft) O-NO 67 15,1 C 26,4 C 3,2 km/h (1 Bft) 73,91 %
19.07.2019 18:48 26,6 C 26,5 C 56 % 51 % 1014,6 hPa 0,0 l/m 3,2 km/h (1 Bft) O-NO 67 15,5 C 26,5 C 3,2 km/h (1 Bft) 100,00 %
19.07.2019 18:47 26,7 C 26,5 C 56 % 52 % 1014,6 hPa 0,0 l/m 3,2 km/h (1 Bft) O-NO 67 15,8 C 26,5 C 3,2 km/h (1 Bft) 100,00 %
19.07.2019 18:46 26,7 C 26,6 C 56 % 51 % 1014,6 hPa 0,0 l/m 3,2 km/h (1 Bft) O-NO 67 15,6 C 26,6 C 4,8 km/h (1 Bft) 91,30 %
19.07.2019 18:45 26,7 C 26,7 C 56 % 54 % 1014,6 hPa 0,0 l/m 0,0 km/h (0 Bft) N 0 16,6 C 26,7 C 0,0 km/h (0 Bft) 0,00 %
19.07.2019 18:44 26,5 C 26,7 C 56 % 54 % 1014,5 hPa 0,0 l/m 0,0 km/h (0 Bft) N 0 16,6 C 26,7 C 0,0 km/h (0 Bft) 0,00 %
19.07.2019 18:43 26,3 C 26,7 C 57 % 54 % 1014,5 hPa 0,0 l/m 0,0 km/h (0 Bft) N 0 16,6 C 26,7 C 0,0 km/h (0 Bft) 0,00 %
19.07.2019 18:42 26,3 C 26,7 C 57 % 54 % 1014,5 hPa 0,0 l/m 0,0 km/h (0 Bft) O-NO 67 16,6 C 26,7 C 1,6 km/h (1 Bft) 17,39 %
19.07.2019 18:41 26,3 C 26,7 C 57 % 54 % 1014,5 hPa 0,0 l/m 1,6 km/h (1 Bft) O-NO 67 16,6 C 26,7 C 1,6 km/h (1 Bft) 34,78 %
19.07.2019 18:40 26,3 C 26,8 C 57 % 54 % 1014,5 hPa 0,0 l/m 1,6 km/h (1 Bft) O-NO 67 16,7 C 26,8 C 3,2 km/h (1 Bft) 39,13 %
19.07.2019 18:39 26,3 C 26,8 C 57 % 53 % 1014,5 hPa 0,0 l/m 1,6 km/h (1 Bft) O-NO 67 16,4 C 26,8 C 1,6 km/h (1 Bft) 47,83 %
19.07.2019 18:38 26,3 C 26,8 C 57 % 53 % 1014,4 hPa 0,0 l/m 1,6 km/h (1 Bft) O-NO 67 16,4 C 26,8 C 1,6 km/h (1 Bft) 39,13 %
19.07.2019 18:37 26,3 C 26,8 C 57 % 53 % 1014,4 hPa 0,0 l/m 1,6 km/h (1 Bft) O-NO 67 16,4 C 26,8 C 3,2 km/h (1 Bft) 43,48 %
19.07.2019 18:36 26,3 C 26,8 C 57 % 53 % 1014,4 hPa 0,0 l/m 3,2 km/h (1 Bft) NO 45 16,4 C 26,8 C 4,8 km/h (1 Bft) 78,26 %
19.07.2019 18:35 26,2 C 26,8 C 57 % 52 % 1014,4 hPa 0,0 l/m 3,2 km/h (1 Bft) NO 45 16,1 C 26,8 C 3,2 km/h (1 Bft) 78,26 %
19.07.2019 18:34 26,3 C 26,8 C 57 % 53 % 1014,4 hPa 0,0 l/m 1,6 km/h (1 Bft) N-NO 22 16,4 C 26,8 C 1,6 km/h (1 Bft) 78,26 %
19.07.2019 18:33 26,2 C 26,8 C 57 % 53 % 1014,5 hPa 0,0 l/m 1,6 km/h (1 Bft) N-NO 22 16,4 C 26,8 C 1,6 km/h (1 Bft) 69,57 %
19.07.2019 18:32 26,2 C 26,8 C 57 % 55 % 1014,5 hPa 0,0 l/m 1,6 km/h (1 Bft) N-NO 22 17,0 C 26,8 C 3,2 km/h (1 Bft) 78,26 %
19.07.2019 18:31 26,2 C 26,8 C 57 % 51 % 1014,4 hPa 0,0 l/m 3,2 km/h (1 Bft) O-NO 67 15,8 C 26,8 C 3,2 km/h (1 Bft) 95,65 %
19.07.2019 18:30 26,2 C 26,8 C 57 % 52 % 1014,5 hPa 0,0 l/m 1,6 km/h (1 Bft) O-NO 67 16,1 C 26,8 C 3,2 km/h (1 Bft) 82,61 %
19.07.2019 18:29 26,2 C 26,8 C 57 % 52 % 1014,5 hPa 0,0 l/m 3,2 km/h (1 Bft) O-NO 67 16,1 C 26,8 C 4,8 km/h (1 Bft) 95,65 %
19.07.2019 18:28 26,2 C 26,7 C 57 % 49 % 1014,5 hPa 0,0 l/m 3,2 km/h (1 Bft) O-NO 67 15,1 C 26,7 C 4,8 km/h (1 Bft) 100,00 %
19.07.2019 18:27 26,2 C 26,8 C 57 % 50 % 1014,5 hPa 0,0 l/m 4,8 km/h (1 Bft) NO 45 15,5 C 26,8 C 4,8 km/h (1 Bft) 100,00 %
19.07.2019 18:26 26,2 C 26,8 C 57 % 51 % 1014,5 hPa 0,0 l/m 4,8 km/h (1 Bft) NO 45 15,8 C 26,8 C 8,0 km/h (2 Bft) 95,65 %
19.07.2019 18:25 26,1 C 26,8 C 57 % 51 % 1014,6 hPa 0,0 l/m 3,2 km/h (1 Bft) NO 45 15,8 C 26,8 C 6,4 km/h (2 Bft) 100,00 %
19.07.2019 18:24 26,1 C 26,8 C 57 % 51 % 1014,5 hPa 0,0 l/m 4,8 km/h (1 Bft) NO 45 15,8 C 26,8 C 6,4 km/h (2 Bft) 95,65 %
19.07.2019 18:23 26,1 C 26,8 C 57 % 53 % 1014,5 hPa 0,0 l/m 4,8 km/h (1 Bft) O 90 16,4 C 26,8 C 6,4 km/h (2 Bft) 95,65 %
19.07.2019 18:22 26,1 C 26,9 C 57 % 55 % 1014,5 hPa 0,0 l/m 3,2 km/h (1 Bft) O-NO 67 17,1 C 26,9 C 3,2 km/h (1 Bft) 100,00 %
19.07.2019 18:21 26,1 C 26,9 C 57 % 53 % 1014,5 hPa 0,0 l/m 4,8 km/h (1 Bft) O-NO 67 16,5 C 26,9 C 6,4 km/h (2 Bft) 100,00 %
19.07.2019 18:20 26,1 C 27,0 C 57 % 53 % 1014,5 hPa 0,0 l/m 3,2 km/h (1 Bft) O-NO 67 16,6 C 27,0 C 4,8 km/h (1 Bft) 100,00 %
19.07.2019 18:19 26,1 C 27,0 C 57 % 52 % 1014,5 hPa 0,0 l/m 4,8 km/h (1 Bft) NO 45 16,3 C 27,0 C 6,4 km/h (2 Bft) 100,00 %
19.07.2019 18:18 26,1 C 26,9 C 57 % 54 % 1014,5 hPa 0,0 l/m 4,8 km/h (1 Bft) O-NO 67 16,8 C 26,9 C 6,4 km/h (2 Bft) 100,00 %
19.07.2019 18:17 26,1 C 26,9 C 57 % 53 % 1014,5 hPa 0,0 l/m 3,2 km/h (1 Bft) O-NO 67 16,5 C 26,9 C 4,8 km/h (1 Bft) 100,00 %
19.07.2019 18:16 26,1 C 26,9 C 57 % 54 % 1014,5 hPa 0,0 l/m 3,2 km/h (1 Bft) O-NO 67 16,8 C 26,9 C 4,8 km/h (1 Bft) 100,00 %
19.07.2019 18:15 26,1 C 26,9 C 57 % 52 % 1014,5 hPa 0,0 l/m 4,8 km/h (1 Bft) O-NO 67 16,2 C 26,9 C 6,4 km/h (2 Bft) 95,65 %
19.07.2019 18:14 26,0 C 26,9 C 57 % 53 % 1014,5 hPa 0,0 l/m 4,8 km/h (1 Bft) O-NO 67 16,5 C 26,9 C 6,4 km/h (2 Bft) 100,00 %
19.07.2019 18:13 26,0 C 26,9 C 57 % 53 % 1014,5 hPa 0,0 l/m 4,8 km/h (1 Bft) O-NO 67 16,5 C 26,9 C 6,4 km/h (2 Bft) 100,00 %
19.07.2019 18:12 26,0 C 26,8 C 57 % 51 % 1014,5 hPa 0,0 l/m 4,8 km/h (1 Bft) O-NO 67 15,8 C 26,8 C 6,4 km/h (2 Bft) 86,96 %
19.07.2019 18:11 26,0 C 26,8 C 57 % 53 % 1014,5 hPa 0,0 l/m 3,2 km/h (1 Bft) NO 45 16,4 C 26,8 C 8,0 km/h (2 Bft) 100,00 %
19.07.2019 18:10 26,0 C 26,8 C 57 % 54 % 1014,5 hPa 0,0 l/m 3,2 km/h (1 Bft) NO 45 16,7 C 26,8 C 4,8 km/h (1 Bft) 100,00 %
19.07.2019 18:09 25,9 C 26,8 C 57 % 53 % 1014,4 hPa 0,0 l/m 4,8 km/h (1 Bft) NO 45 16,4 C 26,8 C 4,8 km/h (1 Bft) 86,96 %
19.07.2019 18:08 26,0 C 26,7 C 57 % 53 % 1014,5 hPa 0,0 l/m 4,8 km/h (1 Bft) O-NO 67 16,3 C 26,7 C 6,4 km/h (2 Bft) 95,65 %
19.07.2019 18:07 25,9 C 26,7 C 57 % 55 % 1014,4 hPa 0,0 l/m 3,2 km/h (1 Bft) O-NO 67 16,9 C 26,7 C 4,8 km/h (1 Bft) 100,00 %
19.07.2019 18:06 25,9 C 26,6 C 57 % 53 % 1014,5 hPa 0,0 l/m 3,2 km/h (1 Bft) O-NO 67 16,2 C 26,6 C 4,8 km/h (1 Bft) 95,65 %
19.07.2019 18:05 25,9 C 26,6 C 57 % 53 % 1014,5 hPa 0,0 l/m 3,2 km/h (1 Bft) O-NO 67 16,2 C 26,6 C 4,8 km/h (1 Bft) 100,00 %
19.07.2019 18:04 25,9 C 26,5 C 57 % 54 % 1014,5 hPa 0,0 l/m 3,2 km/h (1 Bft) O-NO 67 16,4 C 26,5 C 4,8 km/h (1 Bft) 100,00 %
19.07.2019 18:03 25,9 C 26,4 C 57 % 55 % 1014,4 hPa 0,0 l/m 3,2 km/h (1 Bft) O-NO 67 16,6 C 26,4 C 4,8 km/h (1 Bft) 100,00 %
19.07.2019 18:02 25,8 C 26,4 C 57 % 53 % 1014,5 hPa 0,0 l/m 4,8 km/h (1 Bft) NO 45 16,0 C 26,4 C 6,4 km/h (2 Bft) 91,30 %
19.07.2019 18:01 25,9 C 26,3 C 57 % 54 % 1014,4 hPa 0,0 l/m 4,8 km/h (1 Bft) O-NO 67 16,2 C 26,3 C 6,4 km/h (2 Bft) 100,00 %
19.07.2019 18:00 25,9 C 26,3 C 57 % 54 % 1014,5 hPa 0,0 l/m 3,2 km/h (1 Bft) NO 45 16,2 C 26,3 C 3,2 km/h (1 Bft) 100,00 %
19.07.2019 17:59 25,9 C 26,3 C 57 % 54 % 1014,5 hPa 0,0 l/m 3,2 km/h (1 Bft) NO 45 16,2 C 26,3 C 4,8 km/h (1 Bft) 100,00 %
19.07.2019 17:58 25,8 C 26,3 C 57 % 55 % 1014,4 hPa 0,0 l/m 0,0 km/h (0 Bft) NO 45 16,5 C 26,3 C 1,6 km/h (1 Bft) 95,65 %
19.07.2019 17:57 25,8 C 26,3 C 57 % 52 % 1014,5 hPa 0,0 l/m 1,6 km/h (1 Bft) NO 45 15,6 C 26,3 C 4,8 km/h (1 Bft) 100,00 %
19.07.2019 17:56 25,8 C 26,3 C 57 % 53 % 1014,5 hPa 0,0 l/m 3,2 km/h (1 Bft) NO 45 15,9 C 26,3 C 4,8 km/h (1 Bft) 91,30 %
19.07.2019 17:55 25,9 C 26,3 C 57 % 54 % 1014,4 hPa 0,0 l/m 3,2 km/h (1 Bft) O-NO 67 16,2 C 26,3 C 3,2 km/h (1 Bft) 100,00 %
19.07.2019 17:54 25,8 C 26,3 C 57 % 53 % 1014,5 hPa 0,0 l/m 4,8 km/h (1 Bft) O-NO 67 15,9 C 26,3 C 6,4 km/h (2 Bft) 100,00 %
19.07.2019 17:53 25,8 C 26,4 C 57 % 55 % 1014,4 hPa 0,0 l/m 1,6 km/h (1 Bft) NO 45 16,6 C 26,4 C 3,2 km/h (1 Bft) 100,00 %
19.07.2019 17:52 25,8 C 26,3 C 57 % 51 % 1014,4 hPa 0,0 l/m 1,6 km/h (1 Bft) NO 45 15,3 C 26,3 C 3,2 km/h (1 Bft) 100,00 %
19.07.2019 17:51 25,9 C 26,3 C 57 % 52 % 1014,4 hPa 0,0 l/m 3,2 km/h (1 Bft) NO 45 15,6 C 26,3 C 4,8 km/h (1 Bft) 91,30 %
19.07.2019 17:50 25,8 C 26,3 C 57 % 53 % 1014,5 hPa 0,0 l/m 3,2 km/h (1 Bft) O-NO 67 15,9 C 26,3 C 4,8 km/h (1 Bft) 100,00 %
19.07.2019 17:49 25,9 C 26,4 C 57 % 55 % 1014,4 hPa 0,0 l/m 1,6 km/h (1 Bft) O-NO 67 16,6 C 26,4 C 3,2 km/h (1 Bft) 100,00 %
19.07.2019 17:48 25,9 C 26,4 C 57 % 57 % 1014,4 hPa 0,0 l/m 0,0 km/h (0 Bft) O-NO 67 17,2 C 26,4 C 1,6 km/h (1 Bft) 100,00 %
19.07.2019 17:47 25,8 C 26,4 C 57 % 55 % 1014,4 hPa 0,0 l/m 1,6 km/h (1 Bft) O-NO 67 16,6 C 26,4 C 1,6 km/h (1 Bft) 100,00 %
19.07.2019 17:46 25,8 C 26,5 C 57 % 56 % 1014,4 hPa 0,0 l/m 0,0 km/h (0 Bft) O 90 17,0 C 26,5 C 1,6 km/h (1 Bft) 73,91 %
19.07.2019 17:45 25,8 C 26,5 C 57 % 56 % 1014,4 hPa 0,0 l/m 0,0 km/h (0 Bft) O 90 17,0 C 26,5 C 1,6 km/h (1 Bft) 100,00 %
19.07.2019 17:44 25,8 C 26,5 C 57 % 53 % 1014,4 hPa 0,0 l/m 0,0 km/h (0 Bft) O 90 16,1 C 26,5 C 1,6 km/h (1 Bft) 100,00 %
19.07.2019 17:43 25,9 C 26,5 C 57 % 51 % 1014,4 hPa 0,0 l/m 3,2 km/h (1 Bft) O-NO 67 15,5 C 26,5 C 4,8 km/h (1 Bft) 100,00 %
19.07.2019 17:42 25,9 C 26,5 C 57 % 53 % 1014,5 hPa 0,0 l/m 3,2 km/h (1 Bft) O-NO 67 16,1 C 26,5 C 3,2 km/h (1 Bft) 100,00 %
19.07.2019 17:41 25,9 C 26,6 C 57 % 55 % 1014,4 hPa 0,0 l/m 3,2 km/h (1 Bft) NO 45 16,8 C 26,6 C 4,8 km/h (1 Bft) 100,00 %
19.07.2019 17:40 25,8 C 26,6 C 57 % 54 % 1014,4 hPa 0,0 l/m 3,2 km/h (1 Bft) NO 45 16,5 C 26,6 C 4,8 km/h (1 Bft) 100,00 %
19.07.2019 17:39 25,9 C 26,7 C 57 % 51 % 1014,4 hPa 0,0 l/m 1,6 km/h (1 Bft) O-NO 67 15,7 C 26,7 C 3,2 km/h (1 Bft) 95,65 %
19.07.2019 17:38 25,9 C 26,7 C 57 % 52 % 1014,5 hPa 0,0 l/m 3,2 km/h (1 Bft) O-NO 67 16,0 C 26,7 C 6,4 km/h (2 Bft) 95,65 %
19.07.2019 17:37 25,9 C 26,7 C 57 % 51 % 1014,5 hPa 0,0 l/m 1,6 km/h (1 Bft) O-NO 67 15,7 C 26,7 C 3,2 km/h (1 Bft) 100,00 %
19.07.2019 17:36 25,9 C 26,7 C 57 % 51 % 1014,5 hPa 0,0 l/m 0,0 km/h (0 Bft) O-NO 67 15,7 C 26,7 C 1,6 km/h (1 Bft) 100,00 %
19.07.2019 17:35 25,9 C 26,7 C 57 % 52 % 1014,5 hPa 0,0 l/m 3,2 km/h (1 Bft) O-NO 67 16,0 C 26,7 C 4,8 km/h (1 Bft) 100,00 %
19.07.2019 17:34 25,8 C 26,7 C 57 % 51 % 1014,5 hPa 0,0 l/m 0,0 km/h (0 Bft) O 90 15,7 C 26,7 C 1,6 km/h (1 Bft) 100,00 %
19.07.2019 17:33 25,9 C 26,7 C 57 % 51 % 1014,5 hPa 0,0 l/m 1,6 km/h (1 Bft) O 90 15,7 C 26,7 C 3,2 km/h (1 Bft) 95,65 %
19.07.2019 17:32 25,9 C 26,7 C 57 % 53 % 1014,5 hPa 0,0 l/m 1,6 km/h (1 Bft) O-NO 67 16,3 C 26,7 C 3,2 km/h (1 Bft) 100,00 %
19.07.2019 17:31 25,9 C 26,7 C 57 % 54 % 1014,6 hPa 0,0 l/m 0,0 km/h (0 Bft) O-NO 67 16,6 C 26,7 C 1,6 km/h (1 Bft) 100,00 %
19.07.2019 17:30 25,9 C 26,7 C 57 % 51 % 1014,5 hPa 0,0 l/m 1,6 km/h (1 Bft) O-NO 67 15,7 C 26,7 C 3,2 km/h (1 Bft) 100,00 %
19.07.2019 17:29 25,9 C 26,8 C 57 % 51 % 1014,5 hPa 0,0 l/m 0,0 km/h (0 Bft) O-NO 67 15,8 C 26,8 C 1,6 km/h (1 Bft) 100,00 %
19.07.2019 17:28 25,9 C 26,8 C 57 % 50 % 1014,5 hPa 0,0 l/m 1,6 km/h (1 Bft) O-NO 67 15,5 C 26,8 C 3,2 km/h (1 Bft) 100,00 %
19.07.2019 17:27 25,9 C 26,8 C 57 % 50 % 1014,5 hPa 0,0 l/m 1,6 km/h (1 Bft) O-NO 67 15,5 C 26,8 C 3,2 km/h (1 Bft) 95,65 %
19.07.2019 17:26 25,9 C 26,8 C 56 % 53 % 1014,5 hPa 0,0 l/m 1,6 km/h (1 Bft) O 90 16,4 C 26,8 C 3,2 km/h (1 Bft) 95,65 %
19.07.2019 17:25 25,9 C 26,9 C 57 % 52 % 1014,5 hPa 0,0 l/m 1,6 km/h (1 Bft) O-NO 67 16,2 C 26,9 C 4,8 km/h (1 Bft) 100,00 %
19.07.2019 17:24 25,9 C 26,9 C 57 % 50 % 1014,5 hPa 0,0 l/m 3,2 km/h (1 Bft) O-NO 67 15,6 C 26,9 C 6,4 km/h (2 Bft) 100,00 %
19.07.2019 17:23 25,9 C 27,1 C 56 % 52 % 1014,5 hPa 0,0 l/m 3,2 km/h (1 Bft) O 90 16,4 C 27,1 C 4,8 km/h (1 Bft) 100,00 %
19.07.2019 17:22 25,9 C 27,1 C 56 % 50 % 1014,4 hPa 0,0 l/m 3,2 km/h (1 Bft) O-NO 67 15,8 C 27,1 C 6,4 km/h (2 Bft) 95,65 %
19.07.2019 17:21 25,9 C 27,1 C 56 % 52 % 1014,4 hPa 0,0 l/m 3,2 km/h (1 Bft) O-NO 67 16,4 C 27,1 C 4,8 km/h (1 Bft) 100,00 %
19.07.2019 17:20 25,9 C 27,1 C 56 % 51 % 1014,5 hPa 0,0 l/m 1,6 km/h (1 Bft) O-NO 67 16,1 C 27,1 C 3,2 km/h (1 Bft) 100,00 %
19.07.2019 17:19 25,9 C 27,2 C 56 % 51 % 1014,5 hPa 0,0 l/m 0,0 km/h (0 Bft) O-NO 67 16,2 C 27,2 C 1,6 km/h (1 Bft) 100,00 %
19.07.2019 17:18 25,9 C 27,2 C 56 % 52 % 1014,5 hPa 0,0 l/m 0,0 km/h (0 Bft) O-NO 67 16,5 C 27,2 C 1,6 km/h (1 Bft) 100,00 %
19.07.2019 17:17 25,9 C 27,2 C 56 % 48 % 1014,5 hPa 0,0 l/m 1,6 km/h (1 Bft) O-NO 67 15,2 C 27,2 C 3,2 km/h (1 Bft) 100,00 %
19.07.2019 17:16 25,9 C 27,2 C 56 % 46 % 1014,5 hPa 0,0 l/m 1,6 km/h (1 Bft) O-NO 67 14,6 C 27,2 C 1,6 km/h (1 Bft) 100,00 %
19.07.2019 17:15 25,9 C 27,2 C 56 % 47 % 1014,5 hPa 0,0 l/m 1,6 km/h (1 Bft) O-NO 67 14,9 C 27,2 C 1,6 km/h (1 Bft) 100,00 %
19.07.2019 17:14 26,0 C 27,3 C 56 % 51 % 1014,5 hPa 0,0 l/m 1,6 km/h (1 Bft) O-NO 67 16,3 C 27,3 C 3,2 km/h (1 Bft) 100,00 %
19.07.2019 17:13 25,9 C 27,4 C 56 % 49 % 1014,5 hPa 0,0 l/m 1,6 km/h (1 Bft) O-SO 112 15,7 C 27,4 C 1,6 km/h (1 Bft) 95,65 %
19.07.2019 17:12 25,9 C 27,3 C 56 % 49 % 1014,6 hPa 0,0 l/m 0,0 km/h (0 Bft) N 0 15,6 C 27,3 C 0,0 km/h (0 Bft) 100,00 %
19.07.2019 17:11 26,0 C 27,3 C 56 % 49 % 1014,5 hPa 0,0 l/m 0,0 km/h (0 Bft) O-SO 112 15,6 C 27,3 C 1,6 km/h (1 Bft) 100,00 %
19.07.2019 17:10 25,9 C 27,3 C 56 % 48 % 1014,5 hPa 0,0 l/m 0,0 km/h (0 Bft) N 0 15,3 C 27,3 C 0,0 km/h (0 Bft) 100,00 %
19.07.2019 17:09 26,0 C 27,4 C 56 % 50 % 1014,5 hPa 0,0 l/m 1,6 km/h (1 Bft) O-NO 67 16,0 C 27,4 C 3,2 km/h (1 Bft) 100,00 %
19.07.2019 17:08 25,9 C 27,4 C 56 % 47 % 1014,5 hPa 0,0 l/m 3,2 km/h (1 Bft) O 90 15,1 C 27,4 C 4,8 km/h (1 Bft) 100,00 %
19.07.2019 17:07 25,9 C 27,5 C 56 % 46 % 1014,5 hPa 0,0 l/m 3,2 km/h (1 Bft) O 90 14,8 C 27,5 C 4,8 km/h (1 Bft) 100,00 %
19.07.2019 17:06 26,0 C 27,5 C 56 % 50 % 1014,6 hPa 0,0 l/m 1,6 km/h (1 Bft) O-NO 67 16,1 C 27,5 C 3,2 km/h (1 Bft) 100,00 %
19.07.2019 17:05 25,9 C 27,5 C 56 % 48 % 1014,5 hPa 0,0 l/m 0,0 km/h (0 Bft) N 0 15,5 C 27,5 C 0,0 km/h (0 Bft) 100,00 %
19.07.2019 17:04 26,0 C 27,5 C 56 % 52 % 1014,5 hPa 0,0 l/m 0,0 km/h (0 Bft) NO 45 16,7 C 27,5 C 1,6 km/h (1 Bft) 100,00 %
19.07.2019 17:03 25,9 C 27,6 C 56 % 53 % 1014,6 hPa 0,0 l/m 1,6 km/h (1 Bft) NO 45 17,1 C 27,6 C 3,2 km/h (1 Bft) 82,61 %
19.07.2019 17:02 25,9 C 27,6 C 56 % 53 % 1014,6 hPa 0,0 l/m 4,8 km/h (1 Bft) NO 45 17,1 C 27,6 C 6,4 km/h (2 Bft) 100,00 %
19.07.2019 17:01 25,9 C 27,6 C 56 % 54 % 1014,6 hPa 0,0 l/m 1,6 km/h (1 Bft) N-NO 22 17,4 C 27,6 C 3,2 km/h (1 Bft) 100,00 %
19.07.2019 17:00 25,9 C 27,6 C 56 % 52 % 1014,6 hPa 0,0 l/m 4,8 km/h (1 Bft) NO 45 16,8 C 27,6 C 6,4 km/h (2 Bft) 100,00 %
19.07.2019 16:59 25,9 C 27,6 C 56 % 49 % 1014,6 hPa 0,0 l/m 1,6 km/h (1 Bft) O-NO 67 15,9 C 27,6 C 3,2 km/h (1 Bft) 100,00 %
19.07.2019 16:58 25,9 C 27,5 C 56 % 47 % 1014,6 hPa 0,0 l/m 1,6 km/h (1 Bft) O 90 15,2 C 27,5 C 4,8 km/h (1 Bft) 95,65 %
19.07.2019 16:57 25,9 C 27,5 C 56 % 51 % 1014,6 hPa 0,0 l/m 3,2 km/h (1 Bft) O-NO 67 16,4 C 27,5 C 4,8 km/h (1 Bft) 100,00 %
19.07.2019 16:56 25,9 C 27,4 C 56 % 50 % 1014,6 hPa 0,0 l/m 1,6 km/h (1 Bft) O-NO 67 16,0 C 27,4 C 3,2 km/h (1 Bft) 95,65 %
19.07.2019 16:55 25,9 C 27,4 C 56 % 51 % 1014,7 hPa 0,0 l/m 3,2 km/h (1 Bft) O-NO 67 16,3 C 27,4 C 3,2 km/h (1 Bft) 100,00 %
19.07.2019 16:54 25,9 C 27,4 C 56 % 49 % 1014,7 hPa 0,0 l/m 3,2 km/h (1 Bft) O-NO 67 15,7 C 27,4 C 4,8 km/h (1 Bft) 91,30 %
19.07.2019 16:53 25,9 C 27,4 C 56 % 49 % 1014,7 hPa 0,0 l/m 4,8 km/h (1 Bft) NO 45 15,7 C 27,4 C 6,4 km/h (2 Bft) 86,96 %
19.07.2019 16:52 25,9 C 27,4 C 56 % 47 % 1014,7 hPa 0,0 l/m 1,6 km/h (1 Bft) O-NO 67 15,1 C 27,4 C 6,4 km/h (2 Bft) 100,00 %
19.07.2019 16:51 25,9 C 27,3 C 56 % 47 % 1014,7 hPa 0,0 l/m 0,0 km/h (0 Bft) N 0 15,0 C 27,3 C 0,0 km/h (0 Bft) 100,00 %
19.07.2019 16:50 25,8 C 27,3 C 56 % 48 % 1014,7 hPa 0,0 l/m 1,6 km/h (1 Bft) O-NO 67 15,3 C 27,3 C 3,2 km/h (1 Bft) 100,00 %
19.07.2019 16:49 25,8 C 27,2 C 56 % 49 % 1014,8 hPa 0,0 l/m 3,2 km/h (1 Bft) O-NO 67 15,5 C 27,2 C 4,8 km/h (1 Bft) 95,65 %
19.07.2019 16:48 25,8 C 27,2 C 56 % 51 % 1014,8 hPa 0,0 l/m 3,2 km/h (1 Bft) O 90 16,2 C 27,2 C 3,2 km/h (1 Bft) 95,65 %
19.07.2019 16:47 25,8 C 27,2 C 56 % 51 % 1014,8 hPa 0,0 l/m 3,2 km/h (1 Bft) O-NO 67 16,2 C 27,2 C 4,8 km/h (1 Bft) 100,00 %
19.07.2019 16:46 25,8 C 27,1 C 56 % 53 % 1014,8 hPa 0,0 l/m 3,2 km/h (1 Bft) O-NO 67 16,7 C 27,1 C 4,8 km/h (1 Bft) 95,65 %
19.07.2019 16:45 25,8 C 27,1 C 56 % 49 % 1014,7 hPa 0,0 l/m 4,8 km/h (1 Bft) NO 45 15,4 C 27,1 C 6,4 km/h (2 Bft) 82,61 %
19.07.2019 16:44 25,8 C 27,1 C 56 % 53 % 1014,8 hPa 0,0 l/m 6,4 km/h (2 Bft) O-NO 67 16,7 C 27,1 C 8,0 km/h (2 Bft) 91,30 %
19.07.2019 16:43 25,8 C 27,1 C 56 % 55 % 1014,8 hPa 0,0 l/m 4,8 km/h (1 Bft) O-NO 67 17,3 C 27,1 C 4,8 km/h (1 Bft) 100,00 %
19.07.2019 16:42 25,8 C 27,0 C 56 % 52 % 1014,8 hPa 0,0 l/m 4,8 km/h (1 Bft) NO 45 16,3 C 27,0 C 4,8 km/h (1 Bft) 100,00 %
19.07.2019 16:41 25,8 C 27,0 C 56 % 50 % 1014,8 hPa 0,0 l/m 1,6 km/h (1 Bft) NO 45 15,7 C 27,0 C 4,8 km/h (1 Bft) 100,00 %
19.07.2019 16:40 25,8 C 26,9 C 56 % 49 % 1014,8 hPa 0,0 l/m 1,6 km/h (1 Bft) NO 45 15,3 C 26,9 C 6,4 km/h (2 Bft) 82,61 %
19.07.2019 16:39 25,8 C 26,9 C 56 % 48 % 1014,8 hPa 0,0 l/m 3,2 km/h (1 Bft) NO 45 14,9 C 26,9 C 6,4 km/h (2 Bft) 91,30 %
19.07.2019 16:38 25,8 C 26,9 C 56 % 48 % 1014,9 hPa 0,0 l/m 0,0 km/h (0 Bft) NO 45 14,9 C 26,9 C 1,6 km/h (1 Bft) 100,00 %
19.07.2019 16:37 25,8 C 27,0 C 56 % 51 % 1014,8 hPa 0,0 l/m 3,2 km/h (1 Bft) NO 45 16,0 C 27,0 C 4,8 km/h (1 Bft) 91,30 %
19.07.2019 16:36 25,8 C 27,0 C 56 % 49 % 1014,8 hPa 0,0 l/m 1,6 km/h (1 Bft) O 90 15,4 C 27,0 C 3,2 km/h (1 Bft) 86,96 %
19.07.2019 16:35 25,8 C 27,0 C 56 % 47 % 1014,8 hPa 0,0 l/m 3,2 km/h (1 Bft) O-NO 67 14,7 C 27,0 C 4,8 km/h (1 Bft) 100,00 %
19.07.2019 16:34 25,8 C 27,1 C 56 % 49 % 1014,8 hPa 0,0 l/m 4,8 km/h (1 Bft) O-NO 67 15,4 C 27,1 C 6,4 km/h (2 Bft) 100,00 %
19.07.2019 16:33 25,8 C 27,1 C 56 % 49 % 1014,8 hPa 0,0 l/m 3,2 km/h (1 Bft) O-NO 67 15,4 C 27,1 C 4,8 km/h (1 Bft) 100,00 %
19.07.2019 16:32 25,8 C 27,2 C 56 % 49 % 1014,8 hPa 0,0 l/m 4,8 km/h (1 Bft) NO 45 15,5 C 27,2 C 6,4 km/h (2 Bft) 86,96 %
19.07.2019 16:31 25,8 C 27,2 C 56 % 51 % 1014,8 hPa 0,0 l/m 3,2 km/h (1 Bft) N-NO 22 16,2 C 27,2 C 6,4 km/h (2 Bft) 86,96 %
19.07.2019 16:30 25,8 C 27,2 C 56 % 51 % 1014,8 hPa 0,0 l/m 1,6 km/h (1 Bft) N-NO 22 16,2 C 27,2 C 3,2 km/h (1 Bft) 91,30 %
19.07.2019 16:29 25,8 C 27,2 C 56 % 51 % 1014,7 hPa 0,0 l/m 3,2 km/h (1 Bft) O-NO 67 16,2 C 27,2 C 6,4 km/h (2 Bft) 95,65 %
19.07.2019 16:28 25,8 C 27,2 C 56 % 53 % 1014,7 hPa 0,0 l/m 4,8 km/h (1 Bft) NO 45 16,8 C 27,2 C 6,4 km/h (2 Bft) 69,57 %
19.07.2019 16:27 25,7 C 27,1 C 56 % 50 % 1014,8 hPa 0,0 l/m 1,6 km/h (1 Bft) O-NO 67 15,8 C 27,1 C 4,8 km/h (1 Bft) 65,22 %
19.07.2019 16:26 25,8 C 27,1 C 56 % 50 % 1014,7 hPa 0,0 l/m 3,2 km/h (1 Bft) O-NO 67 15,8 C 27,1 C 3,2 km/h (1 Bft) 100,00 %
19.07.2019 16:25 25,7 C 27,1 C 56 % 52 % 1014,7 hPa 0,0 l/m 3,2 km/h (1 Bft) O 90 16,4 C 27,1 C 4,8 km/h (1 Bft) 91,30 %
19.07.2019 16:24 25,7 C 27,1 C 56 % 51 % 1014,7 hPa 0,0 l/m 4,8 km/h (1 Bft) O-NO 67 16,1 C 27,1 C 4,8 km/h (1 Bft) 95,65 %
19.07.2019 16:23 25,7 C 27,1 C 56 % 53 % 1014,7 hPa 0,0 l/m 4,8 km/h (1 Bft) O 90 16,7 C 27,1 C 8,0 km/h (2 Bft) 100,00 %
19.07.2019 16:22 25,7 C 27,1 C 56 % 53 % 1014,7 hPa 0,0 l/m 6,4 km/h (2 Bft) O-NO 67 16,7 C 27,1 C 8,0 km/h (2 Bft) 86,96 %
19.07.2019 16:21 25,7 C 27,1 C 56 % 53 % 1014,7 hPa 0,0 l/m 4,8 km/h (1 Bft) NO 45 16,7 C 27,1 C 8,0 km/h (2 Bft) 100,00 %
19.07.2019 16:20 25,7 C 26,9 C 56 % 52 % 1014,7 hPa 0,0 l/m 3,2 km/h (1 Bft) O-NO 67 16,2 C 26,9 C 4,8 km/h (1 Bft) 95,65 %
19.07.2019 16:19 25,7 C 26,9 C 56 % 52 % 1014,8 hPa 0,0 l/m 4,8 km/h (1 Bft) NO 45 16,2 C 26,9 C 6,4 km/h (2 Bft) 100,00 %
19.07.2019 16:18 25,7 C 26,8 C 56 % 50 % 1014,7 hPa 0,0 l/m 4,8 km/h (1 Bft) NO 45 15,5 C 26,8 C 4,8 km/h (1 Bft) 95,65 %
19.07.2019 16:17 25,7 C 26,8 C 56 % 52 % 1014,8 hPa 0,0 l/m 4,8 km/h (1 Bft) O-NO 67 16,1 C 26,8 C 6,4 km/h (2 Bft) 95,65 %
19.07.2019 16:16 25,7 C 26,7 C 56 % 54 % 1014,8 hPa 0,0 l/m 6,4 km/h (2 Bft) NO 45 16,6 C 26,7 C 6,4 km/h (2 Bft) 100,00 %
19.07.2019 16:15 25,7 C 26,7 C 56 % 51 % 1014,9 hPa 0,0 l/m 3,2 km/h (1 Bft) N-NO 22 15,7 C 26,7 C 6,4 km/h (2 Bft) 95,65 %
19.07.2019 16:14 25,7 C 26,6 C 56 % 51 % 1014,9 hPa 0,0 l/m 1,6 km/h (1 Bft) N-NO 22 15,6 C 26,6 C 4,8 km/h (1 Bft) 100,00 %
19.07.2019 16:13 25,7 C 26,6 C 56 % 55 % 1014,9 hPa 0,0 l/m 3,2 km/h (1 Bft) O-NO 67 16,8 C 26,6 C 4,8 km/h (1 Bft) 100,00 %
19.07.2019 16:12 25,7 C 26,6 C 56 % 55 % 1014,9 hPa 0,0 l/m 3,2 km/h (1 Bft) O-NO 67 16,8 C 26,6 C 4,8 km/h (1 Bft) 100,00 %
19.07.2019 16:11 25,7 C 26,6 C 56 % 57 % 1014,9 hPa 0,0 l/m 0,0 km/h (0 Bft) N-NO 22 17,4 C 26,6 C 1,6 km/h (1 Bft) 100,00 %
19.07.2019 16:10 25,7 C 26,6 C 56 % 57 % 1014,9 hPa 0,0 l/m 1,6 km/h (1 Bft) N-NO 22 17,4 C 26,6 C 1,6 km/h (1 Bft) 100,00 %
19.07.2019 16:09 25,7 C 26,6 C 56 % 55 % 1014,9 hPa 0,0 l/m 1,6 km/h (1 Bft) N-NO 22 16,8 C 26,6 C 3,2 km/h (1 Bft) 100,00 %
19.07.2019 16:08 25,7 C 26,6 C 56 % 56 % 1014,9 hPa 0,0 l/m 1,6 km/h (1 Bft) N-NO 22 17,1 C 26,6 C 3,2 km/h (1 Bft) 100,00 %
19.07.2019 16:07 25,7 C 26,6 C 56 % 52 % 1015,0 hPa 0,0 l/m 3,2 km/h (1 Bft) N-NO 22 15,9 C 26,6 C 4,8 km/h (1 Bft) 100,00 %
19.07.2019 16:06 25,7 C 26,6 C 56 % 54 % 1015,0 hPa 0,0 l/m 3,2 km/h (1 Bft) N-NO 22 16,5 C 26,6 C 4,8 km/h (1 Bft) 95,65 %
19.07.2019 16:05 25,7 C 26,5 C 56 % 54 % 1015,0 hPa 0,0 l/m 0,0 km/h (0 Bft) N 0 16,4 C 26,5 C 0,0 km/h (0 Bft) 100,00 %
19.07.2019 16:04 25,7 C 26,5 C 56 % 55 % 1015,0 hPa 0,0 l/m 1,6 km/h (1 Bft) NO 45 16,7 C 26,5 C 3,2 km/h (1 Bft) 100,00 %
19.07.2019 16:03 25,7 C 26,5 C 56 % 54 % 1015,0 hPa 0,0 l/m 1,6 km/h (1 Bft) N-NO 22 16,4 C 26,5 C 4,8 km/h (1 Bft) 100,00 %
19.07.2019 16:02 25,7 C 26,5 C 56 % 51 % 1015,0 hPa 0,0 l/m 3,2 km/h (1 Bft) N-NO 22 15,5 C 26,5 C 4,8 km/h (1 Bft) 100,00 %
19.07.2019 16:01 25,7 C 26,5 C 56 % 53 % 1015,0 hPa 0,0 l/m 3,2 km/h (1 Bft) NO 45 16,1 C 26,5 C 4,8 km/h (1 Bft) 100,00 %
19.07.2019 16:00 25,7 C 26,5 C 56 % 51 % 1015,0 hPa 0,0 l/m 4,8 km/h (1 Bft) N-NO 22 15,5 C 26,5 C 6,4 km/h (2 Bft) 100,00 %
19.07.2019 15:59 25,7 C 26,6 C 56 % 51 % 1015,0 hPa 0,0 l/m 6,4 km/h (2 Bft) NO 45 15,6 C 26,6 C 9,7 km/h (2 Bft) 91,30 %
19.07.2019 15:58 25,7 C 26,6 C 56 % 54 % 1015,0 hPa 0,0 l/m 4,8 km/h (1 Bft) O-NO 67 16,5 C 26,6 C 9,7 km/h (2 Bft) 100,00 %
19.07.2019 15:57 25,7 C 26,7 C 56 % 53 % 1015,0 hPa 0,0 l/m 6,4 km/h (2 Bft) NO 45 16,3 C 26,7 C 8,0 km/h (2 Bft) 100,00 %
19.07.2019 15:56 25,7 C 26,7 C 56 % 53 % 1015,0 hPa 0,0 l/m 4,8 km/h (1 Bft) O-NO 67 16,3 C 26,7 C 6,4 km/h (2 Bft) 100,00 %
19.07.2019 15:55 25,7 C 26,7 C 56 % 54 % 1015,0 hPa 0,0 l/m 1,6 km/h (1 Bft) N-NO 22 16,6 C 26,7 C 3,2 km/h (1 Bft) 95,65 %
19.07.2019 15:54 25,7 C 26,7 C 56 % 53 % 1015,1 hPa 0,0 l/m 1,6 km/h (1 Bft) N-NO 22 16,3 C 26,7 C 3,2 km/h (1 Bft) 100,00 %
19.07.2019 15:53 25,7 C 26,8 C 56 % 54 % 1015,0 hPa 0,0 l/m 3,2 km/h (1 Bft) NO 45 16,7 C 26,8 C 4,8 km/h (1 Bft) 95,65 %
19.07.2019 15:52 25,7 C 26,9 C 56 % 56 % 1015,0 hPa 0,0 l/m 3,2 km/h (1 Bft) NO 45 17,4 C 26,9 C 4,8 km/h (1 Bft) 100,00 %
19.07.2019 15:51 25,7 C 26,9 C 56 % 50 % 1015,0 hPa 0,0 l/m 1,6 km/h (1 Bft) NO 45 15,6 C 26,9 C 6,4 km/h (2 Bft) 100,00 %
19.07.2019 15:50 25,7 C 26,9 C 56 % 50 % 1015,1 hPa 0,0 l/m 4,8 km/h (1 Bft) NO 45 15,6 C 26,9 C 6,4 km/h (2 Bft) 100,00 %
19.07.2019 15:49 25,7 C 26,9 C 56 % 51 % 1015,0 hPa 0,0 l/m 1,6 km/h (1 Bft) O-NO 67 15,9 C 26,9 C 4,8 km/h (1 Bft) 100,00 %
19.07.2019 15:48 25,7 C 26,9 C 56 % 53 % 1015,1 hPa 0,0 l/m 1,6 km/h (1 Bft) NO 45 16,5 C 26,9 C 3,2 km/h (1 Bft) 100,00 %
19.07.2019 15:47 25,7 C 26,9 C 56 % 51 % 1015,0 hPa 0,0 l/m 3,2 km/h (1 Bft) NO 45 15,9 C 26,9 C 4,8 km/h (1 Bft) 100,00 %
19.07.2019 15:46 25,7 C 26,9 C 56 % 51 % 1015,1 hPa 0,0 l/m 1,6 km/h (1 Bft) N-NW 337 15,9 C 26,9 C 3,2 km/h (1 Bft) 100,00 %
19.07.2019 15:45 25,7 C 26,9 C 56 % 50 % 1015,1 hPa 0,0 l/m 4,8 km/h (1 Bft) N 360 15,6 C 26,9 C 6,4 km/h (2 Bft) 95,65 %
19.07.2019 15:44 25,7 C 26,8 C 56 % 52 % 1015,1 hPa 0,0 l/m 3,2 km/h (1 Bft) N 360 16,1 C 26,8 C 4,8 km/h (1 Bft) 95,65 %
19.07.2019 15:43 25,7 C 26,8 C 56 % 47 % 1015,1 hPa 0,0 l/m 0,0 km/h (0 Bft) N-NW 337 14,5 C 26,8 C 1,6 km/h (1 Bft) 100,00 %
19.07.2019 15:42 25,7 C 26,8 C 56 % 48 % 1015,1 hPa 0,0 l/m 1,6 km/h (1 Bft) N-NW 337 14,9 C 26,8 C 4,8 km/h (1 Bft) 100,00 %
19.07.2019 15:41 25,7 C 26,8 C 56 % 51 % 1015,2 hPa 0,0 l/m 3,2 km/h (1 Bft) NO 45 15,8 C 26,8 C 4,8 km/h (1 Bft) 100,00 %
19.07.2019 15:40 25,7 C 26,8 C 56 % 48 % 1015,1 hPa 0,0 l/m 4,8 km/h (1 Bft) NO 45 14,9 C 26,8 C 6,4 km/h (2 Bft) 100,00 %
19.07.2019 15:39 25,7 C 26,9 C 56 % 48 % 1015,1 hPa 0,0 l/m 4,8 km/h (1 Bft) N-NO 22 14,9 C 26,9 C 8,0 km/h (2 Bft) 95,65 %
19.07.2019 15:38 25,7 C 26,9 C 56 % 50 % 1015,2 hPa 0,0 l/m 4,8 km/h (1 Bft) NO 45 15,6 C 26,9 C 8,0 km/h (2 Bft) 100,00 %
19.07.2019 15:37 25,7 C 26,9 C 56 % 52 % 1015,2 hPa 0,0 l/m 6,4 km/h (2 Bft) NO 45 16,2 C 26,9 C 8,0 km/h (2 Bft) 100,00 %
19.07.2019 15:36 25,7 C 26,8 C 56 % 52 % 1015,2 hPa 0,0 l/m 4,8 km/h (1 Bft) NO 45 16,1 C 26,8 C 6,4 km/h (2 Bft) 95,65 %
19.07.2019 15:35 25,7 C 26,8 C 56 % 50 % 1015,2 hPa 0,0 l/m 6,4 km/h (2 Bft) NO 45 15,5 C 26,8 C 9,7 km/h (2 Bft) 100,00 %
19.07.2019 15:34 25,7 C 26,7 C 56 % 54 % 1015,2 hPa 0,0 l/m 4,8 km/h (1 Bft) NO 45 16,6 C 26,7 C 6,4 km/h (2 Bft) 100,00 %
19.07.2019 15:33 25,7 C 26,7 C 56 % 53 % 1015,2 hPa 0,0 l/m 4,8 km/h (1 Bft) NO 45 16,3 C 26,7 C 6,4 km/h (2 Bft) 100,00 %
19.07.2019 15:32 25,7 C 26,6 C 56 % 53 % 1015,2 hPa 0,0 l/m 4,8 km/h (1 Bft) O-NO 67 16,2 C 26,6 C 6,4 km/h (2 Bft) 100,00 %
19.07.2019 15:31 25,7 C 26,6 C 56 % 49 % 1015,3 hPa 0,0 l/m 4,8 km/h (1 Bft) O 90 15,0 C 26,6 C 6,4 km/h (2 Bft) 100,00 %
19.07.2019 15:30 25,7 C 26,7 C 56 % 52 % 1015,3 hPa 0,0 l/m 6,4 km/h (2 Bft) O-NO 67 16,0 C 26,7 C 8,0 km/h (2 Bft) 100,00 %
19.07.2019 15:29 25,7 C 26,7 C 56 % 52 % 1015,2 hPa 0,0 l/m 8,0 km/h (2 Bft) NO 45 16,0 C 26,4 C 9,7 km/h (2 Bft) 100,00 %
19.07.2019 15:28 25,7 C 26,8 C 56 % 51 % 1015,3 hPa 0,0 l/m 6,4 km/h (2 Bft) NO 45 15,8 C 26,8 C 8,0 km/h (2 Bft) 100,00 %
19.07.2019 15:27 25,7 C 26,8 C 56 % 51 % 1015,2 hPa 0,0 l/m 4,8 km/h (1 Bft) O-NO 67 15,8 C 26,8 C 6,4 km/h (2 Bft) 100,00 %
19.07.2019 15:26 25,7 C 26,9 C 56 % 55 % 1015,3 hPa 0,0 l/m 3,2 km/h (1 Bft) NO 45 17,1 C 26,9 C 6,4 km/h (2 Bft) 100,00 %
19.07.2019 15:25 25,7 C 27,0 C 56 % 54 % 1015,3 hPa 0,0 l/m 4,8 km/h (1 Bft) N-NO 22 16,9 C 27,0 C 6,4 km/h (2 Bft) 95,65 %
19.07.2019 15:24 25,7 C 27,1 C 56 % 54 % 1015,3 hPa 0,0 l/m 3,2 km/h (1 Bft) O-NO 67 17,0 C 27,1 C 3,2 km/h (1 Bft) 100,00 %
19.07.2019 15:23 25,7 C 27,2 C 56 % 51 % 1015,3 hPa 0,0 l/m 4,8 km/h (1 Bft) O-NO 67 16,2 C 27,2 C 6,4 km/h (2 Bft) 100,00 %
19.07.2019 15:22 25,7 C 27,2 C 56 % 53 % 1015,3 hPa 0,0 l/m 6,4 km/h (2 Bft) O-NO 67 16,8 C 27,2 C 8,0 km/h (2 Bft) 100,00 %
19.07.2019 15:21 25,7 C 27,2 C 56 % 54 % 1015,3 hPa 0,0 l/m 1,6 km/h (1 Bft) O-NO 67 17,1 C 27,2 C 6,4 km/h (2 Bft) 100,00 %
19.07.2019 15:20 25,7 C 27,2 C 56 % 48 % 1015,3 hPa 0,0 l/m 0,0 km/h (0 Bft) N 0 15,2 C 27,2 C 0,0 km/h (0 Bft) 100,00 %
19.07.2019 15:19 25,7 C 27,2 C 56 % 47 % 1015,3 hPa 0,0 l/m 0,0 km/h (0 Bft) N-NO 22 14,9 C 27,2 C 1,6 km/h (1 Bft) 100,00 %
19.07.2019 15:18 25,7 C 27,2 C 56 % 49 % 1015,4 hPa 0,0 l/m 4,8 km/h (1 Bft) NO 45 15,5 C 27,2 C 6,4 km/h (2 Bft) 100,00 %
19.07.2019 15:17 25,7 C 27,3 C 56 % 55 % 1015,3 hPa 0,0 l/m 6,4 km/h (2 Bft) NO 45 17,4 C 27,3 C 8,0 km/h (2 Bft) 95,65 %
19.07.2019 15:16 25,7 C 27,3 C 56 % 55 % 1015,3 hPa 0,0 l/m 4,8 km/h (1 Bft) NO 45 17,4 C 27,3 C 6,4 km/h (2 Bft) 100,00 %
19.07.2019 15:15 25,7 C 27,3 C 56 % 51 % 1015,3 hPa 0,0 l/m 4,8 km/h (1 Bft) O-NO 67 16,3 C 27,3 C 4,8 km/h (1 Bft) 100,00 %
19.07.2019 15:14 25,7 C 27,4 C 56 % 49 % 1015,3 hPa 0,0 l/m 6,4 km/h (2 Bft) O-NO 67 15,7 C 27,4 C 6,4 km/h (2 Bft) 95,65 %
19.07.2019 15:13 25,7 C 27,4 C 56 % 50 % 1015,3 hPa 0,0 l/m 6,4 km/h (2 Bft) O-NO 67 16,0 C 27,4 C 8,0 km/h (2 Bft) 100,00 %
19.07.2019 15:12 25,7 C 27,4 C 56 % 50 % 1015,3 hPa 0,0 l/m 4,8 km/h (1 Bft) O-NO 67 16,0 C 27,4 C 6,4 km/h (2 Bft) 95,65 %
19.07.2019 15:11 25,7 C 27,3 C 56 % 53 % 1015,3 hPa 0,0 l/m 0,0 km/h (0 Bft) O-SO 112 16,9 C 27,3 C 3,2 km/h (1 Bft) 95,65 %
19.07.2019 15:10 25,7 C 27,1 C 56 % 50 % 1015,3 hPa 0,0 l/m 1,6 km/h (1 Bft) SO 135 15,8 C 27,1 C 4,8 km/h (1 Bft) 100,00 %
19.07.2019 15:09 25,7 C 27,0 C 56 % 52 % 1015,3 hPa 0,0 l/m 1,6 km/h (1 Bft) O-SO 112 16,3 C 27,0 C 3,2 km/h (1 Bft) 100,00 %
19.07.2019 15:08 25,7 C 26,9 C 56 % 53 % 1015,3 hPa 0,0 l/m 3,2 km/h (1 Bft) O-NO 67 16,5 C 26,9 C 4,8 km/h (1 Bft) 95,65 %
19.07.2019 15:07 25,7 C 26,9 C 56 % 53 % 1015,4 hPa 0,0 l/m 1,6 km/h (1 Bft) O-NO 67 16,5 C 26,9 C 4,8 km/h (1 Bft) 95,65 %
19.07.2019 15:06 25,6 C 26,9 C 56 % 52 % 1015,4 hPa 0,0 l/m 3,2 km/h (1 Bft) O-NO 67 16,2 C 26,9 C 3,2 km/h (1 Bft) 100,00 %
19.07.2019 15:05 25,6 C 26,9 C 56 % 50 % 1015,4 hPa 0,0 l/m 4,8 km/h (1 Bft) O-NO 67 15,6 C 26,9 C 4,8 km/h (1 Bft) 91,30 %
19.07.2019 15:04 25,6 C 26,9 C 56 % 52 % 1015,3 hPa 0,0 l/m 4,8 km/h (1 Bft) O-NO 67 16,2 C 26,9 C 6,4 km/h (2 Bft) 69,57 %
19.07.2019 15:03 25,6 C 26,9 C 56 % 53 % 1015,3 hPa 0,0 l/m 1,6 km/h (1 Bft) O-NO 67 16,5 C 26,9 C 3,2 km/h (1 Bft) 100,00 %
19.07.2019 15:02 25,7 C 26,8 C 56 % 52 % 1015,3 hPa 0,0 l/m 0,0 km/h (0 Bft) O-SO 112 16,1 C 26,8 C 1,6 km/h (1 Bft) 100,00 %
19.07.2019 15:01 25,7 C 26,8 C 56 % 54 % 1015,4 hPa 0,0 l/m 1,6 km/h (1 Bft) O-SO 112 16,7 C 26,8 C 3,2 km/h (1 Bft) 100,00 %
19.07.2019 15:00 25,6 C 26,8 C 56 % 52 % 1015,4 hPa 0,0 l/m 3,2 km/h (1 Bft) O-NO 67 16,1 C 26,8 C 4,8 km/h (1 Bft) 95,65 %
19.07.2019 14:59 25,6 C 26,7 C 56 % 49 % 1015,4 hPa 0,0 l/m 1,6 km/h (1 Bft) SO 135 15,1 C 26,7 C 3,2 km/h (1 Bft) 100,00 %
19.07.2019 14:58 25,7 C 26,7 C 56 % 48 % 1015,4 hPa 0,0 l/m 3,2 km/h (1 Bft) S 180 14,8 C 26,7 C 3,2 km/h (1 Bft) 95,65 %
19.07.2019 14:57 25,7 C 26,7 C 56 % 48 % 1015,4 hPa 0,0 l/m 3,2 km/h (1 Bft) O 90 14,8 C 26,7 C 4,8 km/h (1 Bft) 100,00 %
19.07.2019 14:56 25,6 C 26,8 C 56 % 49 % 1015,4 hPa 0,0 l/m 3,2 km/h (1 Bft) O-NO 67 15,2 C 26,8 C 4,8 km/h (1 Bft) 82,61 %
19.07.2019 14:55 25,6 C 26,8 C 56 % 49 % 1015,4 hPa 0,0 l/m 4,8 km/h (1 Bft) O-NO 67 15,2 C 26,8 C 6,4 km/h (2 Bft) 100,00 %
19.07.2019 14:54 25,6 C 26,9 C 56 % 50 % 1015,4 hPa 0,0 l/m 1,6 km/h (1 Bft) O-NO 67 15,6 C 26,9 C 3,2 km/h (1 Bft) 100,00 %
19.07.2019 14:53 25,6 C 26,9 C 56 % 49 % 1015,4 hPa 0,0 l/m 3,2 km/h (1 Bft) O-NO 67 15,3 C 26,9 C 4,8 km/h (1 Bft) 100,00 %
19.07.2019 14:52 25,6 C 27,0 C 56 % 52 % 1015,4 hPa 0,0 l/m 3,2 km/h (1 Bft) O 90 16,3 C 27,0 C 4,8 km/h (1 Bft) 100,00 %
19.07.2019 14:51 25,7 C 27,0 C 56 % 56 % 1015,4 hPa 0,0 l/m 3,2 km/h (1 Bft) N 360 17,5 C 27,0 C 4,8 km/h (1 Bft) 95,65 %
19.07.2019 14:50 25,6 C 26,9 C 56 % 47 % 1015,4 hPa 0,0 l/m 0,0 km/h (0 Bft) N 360 14,6 C 26,9 C 1,6 km/h (1 Bft) 100,00 %
19.07.2019 14:49 25,7 C 26,9 C 56 % 47 % 1015,4 hPa 0,0 l/m 1,6 km/h (1 Bft) N 360 14,6 C 26,9 C 1,6 km/h (1 Bft) 100,00 %
19.07.2019 14:48 25,7 C 26,8 C 56 % 50 % 1015,4 hPa 0,0 l/m 1,6 km/h (1 Bft) N 360 15,5 C 26,8 C 1,6 km/h (1 Bft) 100,00 %
19.07.2019 14:47 25,7 C 26,8 C 56 % 52 % 1015,4 hPa 0,0 l/m 0,0 km/h (0 Bft) O-NO 67 16,1 C 26,8 C 1,6 km/h (1 Bft) 100,00 %
19.07.2019 14:46 25,7 C 26,8 C 56 % 50 % 1015,4 hPa 0,0 l/m 0,0 km/h (0 Bft) O-NO 67 15,5 C 26,8 C 1,6 km/h (1 Bft) 100,00 %
19.07.2019 14:45 25,7 C 26,8 C 56 % 47 % 1015,5 hPa 0,0 l/m 1,6 km/h (1 Bft) O-NO 67 14,5 C 26,8 C 3,2 km/h (1 Bft) 100,00 %
19.07.2019 14:44 25,6 C 26,8 C 56 % 47 % 1015,4 hPa 0,0 l/m 3,2 km/h (1 Bft) O-NO 67 14,5 C 26,8 C 4,8 km/h (1 Bft) 100,00 %
19.07.2019 14:43 25,7 C 26,9 C 56 % 49 % 1015,4 hPa 0,0 l/m 3,2 km/h (1 Bft) O-NO 67 15,3 C 26,9 C 4,8 km/h (1 Bft) 95,65 %
19.07.2019 14:42 25,7 C 27,0 C 56 % 50 % 1015,5 hPa 0,0 l/m 4,8 km/h (1 Bft) O-NO 67 15,7 C 27,0 C 6,4 km/h (2 Bft) 100,00 %
19.07.2019 14:41 25,7 C 27,1 C 56 % 50 % 1015,5 hPa 0,0 l/m 4,8 km/h (1 Bft) O-NO 67 15,8 C 27,1 C 6,4 km/h (2 Bft) 100,00 %
19.07.2019 14:40 25,7 C 27,1 C 56 % 49 % 1015,5 hPa 0,0 l/m 3,2 km/h (1 Bft) O-NO 67 15,4 C 27,1 C 4,8 km/h (1 Bft) 100,00 %
19.07.2019 14:39 25,7 C 27,1 C 56 % 50 % 1015,6 hPa 0,0 l/m 1,6 km/h (1 Bft) O-NO 67 15,8 C 27,1 C 1,6 km/h (1 Bft) 100,00 %
19.07.2019 14:38 25,7 C 27,2 C 56 % 48 % 1015,5 hPa 0,0 l/m 1,6 km/h (1 Bft) O-NO 67 15,2 C 27,2 C 4,8 km/h (1 Bft) 100,00 %
19.07.2019 14:37 25,6 C 27,3 C 56 % 48 % 1015,5 hPa 0,0 l/m 4,8 km/h (1 Bft) O-NO 67 15,3 C 27,3 C 4,8 km/h (1 Bft) 95,65 %
19.07.2019 14:36 25,7 C 27,3 C 56 % 51 % 1015,5 hPa 0,0 l/m 3,2 km/h (1 Bft) O-NO 67 16,3 C 27,3 C 6,4 km/h (2 Bft) 95,65 %
19.07.2019 14:35 25,7 C 27,3 C 56 % 50 % 1015,5 hPa 0,0 l/m 0,0 km/h (0 Bft) N 0 15,9 C 27,3 C 0,0 km/h (0 Bft) 100,00 %
19.07.2019 14:34 25,7 C 27,3 C 56 % 51 % 1015,5 hPa 0,0 l/m 0,0 km/h (0 Bft) N 0 16,3 C 27,3 C 0,0 km/h (0 Bft) 100,00 %
19.07.2019 14:33 25,7 C 27,3 C 56 % 47 % 1015,5 hPa 0,0 l/m 1,6 km/h (1 Bft) O-NO 67 15,0 C 27,3 C 3,2 km/h (1 Bft) 100,00 %
19.07.2019 14:32 25,7 C 27,4 C 56 % 49 % 1015,4 hPa 0,0 l/m 3,2 km/h (1 Bft) NO 45 15,7 C 27,4 C 4,8 km/h (1 Bft) 95,65 %
19.07.2019 14:31 25,7 C 27,4 C 56 % 48 % 1015,4 hPa 0,0 l/m 4,8 km/h (1 Bft) N 360 15,4 C 27,4 C 6,4 km/h (2 Bft) 95,65 %
19.07.2019 14:30 25,6 C 27,4 C 56 % 50 % 1015,5 hPa 0,0 l/m 1,6 km/h (1 Bft) W-NW 292 16,0 C 27,4 C 1,6 km/h (1 Bft) 100,00 %
19.07.2019 14:29 25,6 C 27,4 C 56 % 54 % 1015,5 hPa 0,0 l/m 1,6 km/h (1 Bft) O 90 17,3 C 27,4 C 3,2 km/h (1 Bft) 100,00 %
19.07.2019 14:28 25,6 C 27,3 C 56 % 54 % 1015,5 hPa 0,0 l/m 1,6 km/h (1 Bft) O 90 17,2 C 27,3 C 3,2 km/h (1 Bft) 100,00 %
19.07.2019 14:27 25,7 C 27,2 C 56 % 52 % 1015,5 hPa 0,0 l/m 3,2 km/h (1 Bft) O 90 16,5 C 27,2 C 4,8 km/h (1 Bft) 100,00 %
19.07.2019 14:26 25,6 C 27,1 C 56 % 56 % 1015,5 hPa 0,0 l/m 3,2 km/h (1 Bft) O 90 17,5 C 27,1 C 3,2 km/h (1 Bft) 100,00 %
19.07.2019 14:25 25,6 C 27,0 C 56 % 54 % 1015,6 hPa 0,0 l/m 3,2 km/h (1 Bft) O-SO 112 16,9 C 27,0 C 8,0 km/h (2 Bft) 100,00 %
19.07.2019 14:24 25,6 C 26,9 C 56 % 51 % 1015,6 hPa 0,0 l/m 4,8 km/h (1 Bft) N 360 15,9 C 26,9 C 8,0 km/h (2 Bft) 95,65 %
19.07.2019 14:23 25,6 C 26,9 C 56 % 52 % 1015,6 hPa 0,0 l/m 3,2 km/h (1 Bft) O 90 16,2 C 26,9 C 3,2 km/h (1 Bft) 100,00 %
19.07.2019 14:22 25,6 C 26,8 C 56 % 53 % 1015,6 hPa 0,0 l/m 3,2 km/h (1 Bft) O-NO 67 16,4 C 26,8 C 6,4 km/h (2 Bft) 100,00 %
19.07.2019 14:21 25,6 C 26,8 C 56 % 54 % 1015,7 hPa 0,0 l/m 3,2 km/h (1 Bft) O 90 16,7 C 26,8 C 6,4 km/h (2 Bft) 100,00 %
19.07.2019 14:20 25,7 C 26,7 C 56 % 51 % 1015,7 hPa 0,0 l/m 3,2 km/h (1 Bft) O 90 15,7 C 26,7 C 3,2 km/h (1 Bft) 100,00 %
19.07.2019 14:19 25,6 C 26,7 C 56 % 52 % 1015,7 hPa 0,0 l/m 4,8 km/h (1 Bft) O-NO 67 16,0 C 26,7 C 6,4 km/h (2 Bft) 100,00 %
19.07.2019 14:18 25,6 C 26,7 C 56 % 53 % 1015,7 hPa 0,0 l/m 6,4 km/h (2 Bft) O-NO 67 16,3 C 26,7 C 9,7 km/h (2 Bft) 100,00 %
19.07.2019 14:17 25,6 C 26,7 C 56 % 53 % 1015,7 hPa 0,0 l/m 4,8 km/h (1 Bft) O-NO 67 16,3 C 26,7 C 6,4 km/h (2 Bft) 100,00 %
19.07.2019 14:16 25,6 C 26,6 C 56 % 54 % 1015,7 hPa 0,0 l/m 0,0 km/h (0 Bft) O-NO 67 16,5 C 26,6 C 1,6 km/h (1 Bft) 100,00 %
19.07.2019 14:15 25,6 C 26,4 C 56 % 54 % 1015,7 hPa 0,0 l/m 0,0 km/h (0 Bft) N 0 16,3 C 26,4 C 0,0 km/h (0 Bft) 100,00 %
19.07.2019 14:14 25,6 C 26,4 C 56 % 55 % 1015,7 hPa 0,0 l/m 1,6 km/h (1 Bft) O-NO 67 16,6 C 26,4 C 3,2 km/h (1 Bft) 100,00 %
19.07.2019 14:13 25,6 C 26,3 C 56 % 54 % 1015,7 hPa 0,0 l/m 1,6 km/h (1 Bft) O 90 16,2 C 26,3 C 3,2 km/h (1 Bft) 100,00 %
19.07.2019 14:12 25,6 C 26,2 C 56 % 55 % 1015,8 hPa 0,0 l/m 1,6 km/h (1 Bft) O 90 16,4 C 26,2 C 3,2 km/h (1 Bft) 95,65 %
19.07.2019 14:11 25,6 C 26,1 C 56 % 52 % 1015,8 hPa 0,0 l/m 1,6 km/h (1 Bft) S-SW 202 15,5 C 26,1 C 3,2 km/h (1 Bft) 100,00 %
19.07.2019 14:10 25,6 C 26,1 C 56 % 50 % 1015,8 hPa 0,0 l/m 3,2 km/h (1 Bft) S-SW 202 14,8 C 26,1 C 3,2 km/h (1 Bft) 100,00 %
19.07.2019 14:09 25,6 C 25,9 C 56 % 51 % 1015,7 hPa 0,0 l/m 0,0 km/h (0 Bft) SO 135 15,0 C 25,9 C 1,6 km/h (1 Bft) 100,00 %
19.07.2019 14:08 25,6 C 25,9 C 56 % 54 % 1015,8 hPa 0,0 l/m 0,0 km/h (0 Bft) SO 135 15,9 C 25,9 C 1,6 km/h (1 Bft) 47,83 %
19.07.2019 14:07 25,6 C 25,8 C 56 % 54 % 1015,8 hPa 0,0 l/m 0,0 km/h (0 Bft) N 0 15,8 C 25,8 C 0,0 km/h (0 Bft) 0,00 %
19.07.2019 14:06 25,7 C 25,8 C 56 % 54 % 1015,8 hPa 0,0 l/m 4,8 km/h (1 Bft) O-NO 67 15,8 C 25,8 C 6,4 km/h (2 Bft) 39,13 %
19.07.2019 14:05 25,6 C 25,8 C 56 % 54 % 1015,8 hPa 0,0 l/m 1,6 km/h (1 Bft) O-NO 67 15,8 C 25,8 C 4,8 km/h (1 Bft) 100,00 %
19.07.2019 14:04 25,6 C 25,7 C 56 % 50 % 1015,7 hPa 0,0 l/m 1,6 km/h (1 Bft) O-NO 67 14,5 C 25,7 C 4,8 km/h (1 Bft) 100,00 %
19.07.2019 14:03 25,6 C 25,7 C 56 % 55 % 1015,7 hPa 0,0 l/m 3,2 km/h (1 Bft) O-NO 67 16,0 C 25,7 C 4,8 km/h (1 Bft) 100,00 %
19.07.2019 14:02 25,6 C 25,7 C 56 % 56 % 1015,7 hPa 0,0 l/m 3,2 km/h (1 Bft) O-NO 67 16,2 C 25,7 C 4,8 km/h (1 Bft) 100,00 %
19.07.2019 14:01 25,6 C 25,7 C 56 % 52 % 1015,7 hPa 0,0 l/m 3,2 km/h (1 Bft) O-NO 67 15,1 C 25,7 C 4,8 km/h (1 Bft) 100,00 %
19.07.2019 14:00 25,6 C 25,8 C 56 % 56 % 1015,7 hPa 0,0 l/m 4,8 km/h (1 Bft) O-NO 67 16,3 C 25,8 C 6,4 km/h (2 Bft) 100,00 %
19.07.2019 13:59 25,6 C 25,8 C 56 % 53 % 1015,7 hPa 0,0 l/m 4,8 km/h (1 Bft) NO 45 15,5 C 25,8 C 6,4 km/h (2 Bft) 100,00 %
19.07.2019 13:58 25,6 C 25,9 C 56 % 50 % 1015,7 hPa 0,0 l/m 3,2 km/h (1 Bft) O-NO 67 14,7 C 25,9 C 6,4 km/h (2 Bft) 100,00 %
19.07.2019 13:57 25,6 C 25,8 C 56 % 49 % 1015,8 hPa 0,0 l/m 0,0 km/h (0 Bft) N 0 14,3 C 25,8 C 0,0 km/h (0 Bft) 100,00 %
19.07.2019 13:56 25,6 C 25,9 C 56 % 55 % 1015,7 hPa 0,0 l/m 1,6 km/h (1 Bft) O-NO 67 16,2 C 25,9 C 4,8 km/h (1 Bft) 95,65 %
19.07.2019 13:55 25,6 C 25,9 C 56 % 55 % 1015,8 hPa 0,0 l/m 4,8 km/h (1 Bft) O-NO 67 16,2 C 25,9 C 6,4 km/h (2 Bft) 100,00 %
19.07.2019 13:54 25,6 C 25,8 C 56 % 55 % 1015,9 hPa 0,0 l/m 0,0 km/h (0 Bft) O-SO 112 16,1 C 25,8 C 3,2 km/h (1 Bft) 100,00 %
19.07.2019 13:53 25,6 C 25,6 C 56 % 55 % 1015,8 hPa 0,0 l/m 0,0 km/h (0 Bft) O-SO 112 15,9 C 25,6 C 1,6 km/h (1 Bft) 100,00 %
19.07.2019 13:52 25,6 C 25,4 C 56 % 58 % 1015,9 hPa 0,0 l/m 1,6 km/h (1 Bft) O-NO 67 16,5 C 25,4 C 3,2 km/h (1 Bft) 100,00 %
19.07.2019 13:51 25,6 C 25,3 C 56 % 55 % 1015,9 hPa 0,0 l/m 1,6 km/h (1 Bft) O 90 15,6 C 25,3 C 3,2 km/h (1 Bft) 95,65 %
19.07.2019 13:50 25,6 C 25,1 C 56 % 57 % 1015,9 hPa 0,0 l/m 3,2 km/h (1 Bft) O-SO 112 16,0 C 25,1 C 4,8 km/h (1 Bft) 100,00 %
19.07.2019 13:49 25,6 C 25,1 C 56 % 55 % 1015,8 hPa 0,0 l/m 4,8 km/h (1 Bft) O 90 15,4 C 25,1 C 8,0 km/h (2 Bft) 100,00 %
19.07.2019 13:48 25,6 C 25,1 C 55 % 56 % 1015,9 hPa 0,0 l/m 4,8 km/h (1 Bft) O-NO 67 15,7 C 25,1 C 6,4 km/h (2 Bft) 100,00 %
19.07.2019 13:47 25,6 C 25,1 C 55 % 55 % 1015,9 hPa 0,0 l/m 4,8 km/h (1 Bft) O-NO 67 15,4 C 25,1 C 6,4 km/h (2 Bft) 100,00 %
19.07.2019 13:46 25,6 C 25,1 C 55 % 58 % 1015,9 hPa 0,0 l/m 3,2 km/h (1 Bft) O-NO 67 16,2 C 25,1 C 6,4 km/h (2 Bft) 100,00 %
19.07.2019 13:45 25,6 C 25,1 C 55 % 59 % 1015,9 hPa 0,0 l/m 4,8 km/h (1 Bft) O-NO 67 16,5 C 25,1 C 8,0 km/h (2 Bft) 100,00 %
19.07.2019 13:44 25,6 C 25,0 C 55 % 56 % 1015,9 hPa 0,0 l/m 3,2 km/h (1 Bft) O-NO 67 15,6 C 25,0 C 6,4 km/h (2 Bft) 100,00 %
19.07.2019 13:43 25,6 C 24,9 C 55 % 57 % 1015,9 hPa 0,0 l/m 1,6 km/h (1 Bft) O 90 15,8 C 24,9 C 3,2 km/h (1 Bft) 100,00 %
19.07.2019 13:42 25,6 C 24,9 C 55 % 57 % 1015,9 hPa 0,0 l/m 1,6 km/h (1 Bft) O-NO 67 15,8 C 24,9 C 3,2 km/h (1 Bft) 100,00 %
19.07.2019 13:41 25,6 C 24,9 C 55 % 58 % 1015,9 hPa 0,0 l/m 3,2 km/h (1 Bft) O-NO 67 16,1 C 24,9 C 4,8 km/h (1 Bft) 100,00 %
19.07.2019 13:40 25,6 C 24,8 C 55 % 57 % 1015,9 hPa 0,0 l/m 3,2 km/h (1 Bft) O-NO 67 15,7 C 24,8 C 4,8 km/h (1 Bft) 100,00 %
19.07.2019 13:39 25,6 C 24,8 C 55 % 57 % 1016,0 hPa 0,0 l/m 1,6 km/h (1 Bft) O-NO 67 15,7 C 24,8 C 3,2 km/h (1 Bft) 100,00 %
19.07.2019 13:38 25,6 C 24,9 C 55 % 61 % 1015,9 hPa 0,0 l/m 3,2 km/h (1 Bft) O-NO 67 16,8 C 24,9 C 4,8 km/h (1 Bft) 100,00 %
19.07.2019 13:37 25,6 C 24,9 C 55 % 60 % 1015,9 hPa 0,0 l/m 1,6 km/h (1 Bft) O-NO 67 16,6 C 24,9 C 3,2 km/h (1 Bft) 100,00 %
19.07.2019 13:36 25,6 C 24,8 C 55 % 58 % 1016,0 hPa 0,0 l/m 1,6 km/h (1 Bft) O-NO 67 16,0 C 24,8 C 1,6 km/h (1 Bft) 95,65 %
19.07.2019 13:35 25,6 C 24,8 C 55 % 57 % 1016,0 hPa 0,0 l/m 3,2 km/h (1 Bft) O-NO 67 15,7 C 24,8 C 6,4 km/h (2 Bft) 100,00 %
19.07.2019 13:34 25,7 C 24,8 C 55 % 58 % 1016,0 hPa 0,0 l/m 0,0 km/h (0 Bft) O-NO 67 16,0 C 24,8 C 1,6 km/h (1 Bft) 100,00 %
19.07.2019 13:33 25,7 C 24,8 C 55 % 56 % 1016,1 hPa 0,0 l/m 1,6 km/h (1 Bft) O-NO 67 15,4 C 24,8 C 3,2 km/h (1 Bft) 100,00 %
19.07.2019 13:32 25,6 C 24,8 C 55 % 59 % 1016,0 hPa 0,0 l/m 1,6 km/h (1 Bft) O-NO 67 16,2 C 24,8 C 3,2 km/h (1 Bft) 100,00 %
19.07.2019 13:31 25,7 C 24,8 C 55 % 57 % 1016,1 hPa 0,0 l/m 3,2 km/h (1 Bft) O-NO 67 15,7 C 24,8 C 3,2 km/h (1 Bft) 100,00 %
19.07.2019 13:30 25,7 C 24,8 C 55 % 57 % 1016,1 hPa 0,0 l/m 3,2 km/h (1 Bft) O-NO 67 15,7 C 24,8 C 3,2 km/h (1 Bft) 100,00 %
19.07.2019 13:29 25,6 C 24,8 C 55 % 57 % 1016,1 hPa 0,0 l/m 3,2 km/h (1 Bft) O 90 15,7 C 24,8 C 4,8 km/h (1 Bft) 100,00 %
19.07.2019 13:28 25,7 C 24,8 C 55 % 58 % 1016,1 hPa 0,0 l/m 1,6 km/h (1 Bft) O-NO 67 16,0 C 24,8 C 1,6 km/h (1 Bft) 100,00 %
19.07.2019 13:27 25,6 C 24,8 C 55 % 60 % 1016,1 hPa 0,0 l/m 0,0 km/h (0 Bft) O-NO 67 16,5 C 24,8 C 3,2 km/h (1 Bft) 100,00 %
19.07.2019 13:26 25,7 C 24,8 C 55 % 58 % 1016,2 hPa 0,0 l/m 3,2 km/h (1 Bft) O-NO 67 16,0 C 24,8 C 8,0 km/h (2 Bft) 95,65 %
19.07.2019 13:25 25,7 C 24,8 C 55 % 56 % 1016,1 hPa 0,0 l/m 4,8 km/h (1 Bft) O-NO 67 15,4 C 24,8 C 6,4 km/h (2 Bft) 100,00 %
19.07.2019 13:24 25,7 C 24,9 C 55 % 57 % 1016,1 hPa 0,0 l/m 4,8 km/h (1 Bft) O-NO 67 15,8 C 24,9 C 8,0 km/h (2 Bft) 100,00 %
19.07.2019 13:23 25,6 C 24,9 C 55 % 58 % 1016,1 hPa 0,0 l/m 1,6 km/h (1 Bft) O-NO 67 16,1 C 24,9 C 3,2 km/h (1 Bft) 95,65 %
19.07.2019 13:22 25,7 C 24,9 C 55 % 59 % 1016,1 hPa 0,0 l/m 3,2 km/h (1 Bft) O-NO 67 16,3 C 24,9 C 4,8 km/h (1 Bft) 95,65 %
19.07.2019 13:21 25,7 C 24,8 C 55 % 58 % 1016,1 hPa 0,0 l/m 1,6 km/h (1 Bft) O-NO 67 16,0 C 24,8 C 3,2 km/h (1 Bft) 100,00 %
19.07.2019 13:20 25,7 C 24,8 C 55 % 59 % 1016,2 hPa 0,0 l/m 1,6 km/h (1 Bft) O-NO 67 16,2 C 24,8 C 3,2 km/h (1 Bft) 100,00 %
19.07.2019 13:19 25,6 C 24,8 C 55 % 59 % 1016,2 hPa 0,0 l/m 1,6 km/h (1 Bft) O-NO 67 16,2 C 24,8 C 4,8 km/h (1 Bft) 100,00 %
19.07.2019 13:18 25,6 C 24,8 C 55 % 60 % 1016,2 hPa 0,0 l/m 1,6 km/h (1 Bft) O 90 16,5 C 24,8 C 1,6 km/h (1 Bft) 100,00 %
19.07.2019 13:17 25,6 C 24,8 C 55 % 60 % 1016,3 hPa 0,0 l/m 4,8 km/h (1 Bft) O 90 16,5 C 24,8 C 6,4 km/h (2 Bft) 100,00 %
19.07.2019 13:16 25,6 C 24,8 C 55 % 61 % 1016,2 hPa 0,0 l/m 3,2 km/h (1 Bft) O-NO 67 16,8 C 24,8 C 4,8 km/h (1 Bft) 100,00 %
19.07.2019 13:15 25,6 C 24,8 C 55 % 61 % 1016,3 hPa 0,0 l/m 4,8 km/h (1 Bft) O-NO 67 16,8 C 24,8 C 4,8 km/h (1 Bft) 100,00 %
19.07.2019 13:14 25,6 C 24,8 C 55 % 58 % 1016,2 hPa 0,0 l/m 1,6 km/h (1 Bft) NO 45 16,0 C 24,8 C 4,8 km/h (1 Bft) 100,00 %
19.07.2019 13:13 25,6 C 24,7 C 55 % 59 % 1016,2 hPa 0,0 l/m 1,6 km/h (1 Bft) NO 45 16,1 C 24,7 C 3,2 km/h (1 Bft) 100,00 %
19.07.2019 13:12 25,6 C 24,7 C 55 % 60 % 1016,2 hPa 0,0 l/m 1,6 km/h (1 Bft) NO 45 16,4 C 24,7 C 4,8 km/h (1 Bft) 100,00 %
19.07.2019 13:11 25,6 C 24,7 C 56 % 58 % 1016,3 hPa 0,0 l/m 3,2 km/h (1 Bft) NO 45 15,9 C 24,7 C 4,8 km/h (1 Bft) 100,00 %
19.07.2019 13:10 25,6 C 24,7 C 56 % 60 % 1016,3 hPa 0,0 l/m 4,8 km/h (1 Bft) O-NO 67 16,4 C 24,7 C 6,4 km/h (2 Bft) 100,00 %
19.07.2019 13:09 25,6 C 24,7 C 55 % 60 % 1016,3 hPa 0,0 l/m 4,8 km/h (1 Bft) O-NO 67 16,4 C 24,7 C 4,8 km/h (1 Bft) 100,00 %
19.07.2019 13:08 25,6 C 24,6 C 55 % 59 % 1016,2 hPa 0,0 l/m 3,2 km/h (1 Bft) O 90 16,0 C 24,6 C 4,8 km/h (1 Bft) 100,00 %
19.07.2019 13:07 25,6 C 24,6 C 56 % 59 % 1016,3 hPa 0,0 l/m 3,2 km/h (1 Bft) O-NO 67 16,0 C 24,6 C 4,8 km/h (1 Bft) 100,00 %
19.07.2019 13:06 25,6 C 24,6 C 55 % 61 % 1016,3 hPa 0,0 l/m 1,6 km/h (1 Bft) O-NO 67 16,6 C 24,6 C 3,2 km/h (1 Bft) 100,00 %
19.07.2019 13:05 25,5 C 24,5 C 55 % 59 % 1016,3 hPa 0,0 l/m 1,6 km/h (1 Bft) O-NO 67 15,9 C 24,5 C 3,2 km/h (1 Bft) 100,00 %
19.07.2019 13:04 25,5 C 24,5 C 55 % 58 % 1016,3 hPa 0,0 l/m 3,2 km/h (1 Bft) O-NO 67 15,7 C 24,5 C 4,8 km/h (1 Bft) 100,00 %
19.07.2019 13:03 25,5 C 24,6 C 55 % 59 % 1016,4 hPa 0,0 l/m 3,2 km/h (1 Bft) O-NO 67 16,0 C 24,6 C 4,8 km/h (1 Bft) 100,00 %
19.07.2019 13:02 25,6 C 24,6 C 55 % 57 % 1016,3 hPa 0,0 l/m 3,2 km/h (1 Bft) O-NO 67 15,5 C 24,6 C 4,8 km/h (1 Bft) 100,00 %
19.07.2019 13:01 25,5 C 24,6 C 55 % 57 % 1016,3 hPa 0,0 l/m 0,0 km/h (0 Bft) O-NO 67 15,5 C 24,6 C 1,6 km/h (1 Bft) 100,00 %
19.07.2019 13:00 25,5 C 24,6 C 55 % 60 % 1016,3 hPa 0,0 l/m 3,2 km/h (1 Bft) O-NO 67 16,3 C 24,6 C 3,2 km/h (1 Bft) 95,65 %
19.07.2019 12:59 25,5 C 24,7 C 55 % 58 % 1016,3 hPa 0,0 l/m 1,6 km/h (1 Bft) O-NO 67 15,9 C 24,7 C 3,2 km/h (1 Bft) 100,00 %
19.07.2019 12:58 25,5 C 24,7 C 55 % 60 % 1016,3 hPa 0,0 l/m 3,2 km/h (1 Bft) O-NO 67 16,4 C 24,7 C 4,8 km/h (1 Bft) 100,00 %
19.07.2019 12:57 25,5 C 24,8 C 55 % 59 % 1016,3 hPa 0,0 l/m 3,2 km/h (1 Bft) O-NO 67 16,2 C 24,8 C 4,8 km/h (1 Bft) 100,00 %
19.07.2019 12:56 25,5 C 24,8 C 55 % 61 % 1016,3 hPa 0,0 l/m 3,2 km/h (1 Bft) O-NO 67 16,8 C 24,8 C 3,2 km/h (1 Bft) 100,00 %
19.07.2019 12:55 25,5 C 24,8 C 55 % 59 % 1016,3 hPa 0,0 l/m 1,6 km/h (1 Bft) O-NO 67 16,2 C 24,8 C 1,6 km/h (1 Bft) 95,65 %
19.07.2019 12:54 25,4 C 24,9 C 55 % 60 % 1016,3 hPa 0,0 l/m 0,0 km/h (0 Bft) NO 45 16,6 C 24,9 C 1,6 km/h (1 Bft) 100,00 %
19.07.2019 12:53 25,4 C 24,9 C 55 % 57 % 1016,3 hPa 0,0 l/m 1,6 km/h (1 Bft) NO 45 15,8 C 24,9 C 1,6 km/h (1 Bft) 95,65 %
19.07.2019 12:52 25,4 C 24,9 C 55 % 60 % 1016,4 hPa 0,0 l/m 3,2 km/h (1 Bft) NO 45 16,6 C 24,9 C 4,8 km/h (1 Bft) 100,00 %
19.07.2019 12:51 25,4 C 25,0 C 55 % 61 % 1016,3 hPa 0,0 l/m 1,6 km/h (1 Bft) NO 45 16,9 C 25,0 C 4,8 km/h (1 Bft) 100,00 %
19.07.2019 12:50 25,4 C 25,0 C 55 % 59 % 1016,3 hPa 0,0 l/m 1,6 km/h (1 Bft) O-NO 67 16,4 C 25,0 C 1,6 km/h (1 Bft) 100,00 %
19.07.2019 12:49 25,4 C 25,0 C 55 % 60 % 1016,3 hPa 0,0 l/m 1,6 km/h (1 Bft) O-NO 67 16,7 C 25,0 C 1,6 km/h (1 Bft) 100,00 %
19.07.2019 12:48 25,4 C 24,9 C 55 % 61 % 1016,3 hPa 0,0 l/m 0,0 km/h (0 Bft) N 0 16,8 C 24,9 C 0,0 km/h (0 Bft) 100,00 %
19.07.2019 12:47 25,4 C 24,8 C 55 % 62 % 1016,2 hPa 0,0 l/m 0,0 km/h (0 Bft) N 0 17,0 C 24,8 C 0,0 km/h (0 Bft) 100,00 %
19.07.2019 12:46 25,4 C 24,8 C 56 % 60 % 1016,3 hPa 0,0 l/m 0,0 km/h (0 Bft) N 0 16,5 C 24,8 C 0,0 km/h (0 Bft) 100,00 %
19.07.2019 12:45 25,4 C 24,7 C 56 % 59 % 1016,3 hPa 0,0 l/m 0,0 km/h (0 Bft) O-NO 67 16,1 C 24,7 C 1,6 km/h (1 Bft) 100,00 %
19.07.2019 12:44 25,4 C 24,6 C 55 % 61 % 1016,2 hPa 0,0 l/m 0,0 km/h (0 Bft) O-NO 67 16,6 C 24,6 C 1,6 km/h (1 Bft) 95,65 %
19.07.2019 12:43 25,4 C 24,5 C 56 % 59 % 1016,3 hPa 0,0 l/m 0,0 km/h (0 Bft) N 0 15,9 C 24,5 C 0,0 km/h (0 Bft) 95,65 %
19.07.2019 12:42 25,4 C 24,4 C 56 % 58 % 1016,3 hPa 0,0 l/m 0,0 km/h (0 Bft) N 0 15,6 C 24,4 C 0,0 km/h (0 Bft) 100,00 %
19.07.2019 12:41 25,4 C 24,4 C 56 % 61 % 1016,3 hPa 0,0 l/m 1,6 km/h (1 Bft) O-NO 67 16,4 C 24,4 C 1,6 km/h (1 Bft) 100,00 %
19.07.2019 12:40 25,4 C 24,4 C 56 % 63 % 1016,3 hPa 0,0 l/m 0,0 km/h (0 Bft) O-NO 67 16,9 C 24,4 C 1,6 km/h (1 Bft) 100,00 %
19.07.2019 12:39 25,4 C 24,3 C 56 % 59 % 1016,3 hPa 0,0 l/m 0,0 km/h (0 Bft) N 0 15,8 C 24,3 C 0,0 km/h (0 Bft) 100,00 %
19.07.2019 12:38 25,4 C 24,3 C 56 % 59 % 1016,3 hPa 0,0 l/m 0,0 km/h (0 Bft) O-NO 67 15,8 C 24,3 C 1,6 km/h (1 Bft) 100,00 %
19.07.2019 12:37 25,4 C 24,3 C 56 % 60 % 1016,4 hPa 0,0 l/m 0,0 km/h (0 Bft) O-NO 67 16,0 C 24,3 C 1,6 km/h (1 Bft) 100,00 %
19.07.2019 12:36 25,4 C 24,3 C 56 % 62 % 1016,4 hPa 0,0 l/m 1,6 km/h (1 Bft) O-NO 67 16,5 C 24,3 C 1,6 km/h (1 Bft) 100,00 %
19.07.2019 12:35 25,3 C 24,3 C 56 % 61 % 1016,4 hPa 0,0 l/m 1,6 km/h (1 Bft) O-NO 67 16,3 C 24,3 C 3,2 km/h (1 Bft) 100,00 %
19.07.2019 12:34 25,3 C 24,4 C 56 % 60 % 1016,5 hPa 0,0 l/m 3,2 km/h (1 Bft) O-NO 67 16,1 C 24,4 C 3,2 km/h (1 Bft) 100,00 %
19.07.2019 12:33 25,3 C 24,4 C 56 % 59 % 1016,4 hPa 0,0 l/m 1,6 km/h (1 Bft) O-NO 67 15,9 C 24,4 C 3,2 km/h (1 Bft) 100,00 %
19.07.2019 12:32 25,4 C 24,5 C 56 % 60 % 1016,4 hPa 0,0 l/m 3,2 km/h (1 Bft) O-NO 67 16,2 C 24,5 C 4,8 km/h (1 Bft) 100,00 %
19.07.2019 12:31 25,3 C 24,6 C 56 % 58 % 1016,4 hPa 0,0 l/m 3,2 km/h (1 Bft) O-NO 67 15,8 C 24,6 C 4,8 km/h (1 Bft) 100,00 %
19.07.2019 12:30 25,3 C 24,7 C 56 % 59 % 1016,4 hPa 0,0 l/m 3,2 km/h (1 Bft) O-NO 67 16,1 C 24,7 C 6,4 km/h (2 Bft) 100,00 %
19.07.2019 12:29 25,3 C 24,7 C 56 % 57 % 1016,4 hPa 0,0 l/m 1,6 km/h (1 Bft) W-NW 292 15,6 C 24,7 C 3,2 km/h (1 Bft) 100,00 %
19.07.2019 12:28 25,3 C 24,7 C 56 % 56 % 1016,5 hPa 0,0 l/m 1,6 km/h (1 Bft) W-NW 292 15,3 C 24,7 C 3,2 km/h (1 Bft) 100,00 %
19.07.2019 12:27 25,3 C 24,8 C 56 % 56 % 1016,4 hPa 0,0 l/m 0,0 km/h (0 Bft) S-SW 202 15,4 C 24,8 C 1,6 km/h (1 Bft) 95,65 %
19.07.2019 12:26 25,3 C 24,8 C 56 % 56 % 1016,4 hPa 0,0 l/m 0,0 km/h (0 Bft) S-SW 202 15,4 C 24,8 C 1,6 km/h (1 Bft) 95,65 %
19.07.2019 12:25 25,3 C 24,9 C 56 % 55 % 1016,3 hPa 0,0 l/m 0,0 km/h (0 Bft) N 0 15,2 C 24,9 C 0,0 km/h (0 Bft) 100,00 %
19.07.2019 12:24 25,3 C 24,9 C 57 % 57 % 1016,4 hPa 0,0 l/m 0,0 km/h (0 Bft) S-SW 202 15,8 C 24,9 C 1,6 km/h (1 Bft) 100,00 %
19.07.2019 12:23 25,3 C 25,0 C 56 % 56 % 1016,4 hPa 0,0 l/m 0,0 km/h (0 Bft) S-SW 202 15,6 C 25,0 C 1,6 km/h (1 Bft) 100,00 %
19.07.2019 12:22 25,3 C 25,0 C 56 % 58 % 1016,4 hPa 0,0 l/m 0,0 km/h (0 Bft) S-SW 202 16,1 C 25,0 C 1,6 km/h (1 Bft) 100,00 %
19.07.2019 12:21 25,3 C 24,9 C 56 % 57 % 1016,4 hPa 0,0 l/m 0,0 km/h (0 Bft) N 0 15,8 C 24,9 C 0,0 km/h (0 Bft) 100,00 %
19.07.2019 12:20 25,3 C 24,9 C 56 % 55 % 1016,4 hPa 0,0 l/m 0,0 km/h (0 Bft) N 0 15,2 C 24,9 C 0,0 km/h (0 Bft) 100,00 %
19.07.2019 12:19 25,3 C 24,8 C 56 % 55 % 1016,4 hPa 0,0 l/m 0,0 km/h (0 Bft) S-SW 202 15,1 C 24,8 C 1,6 km/h (1 Bft) 100,00 %
19.07.2019 12:18 25,3 C 24,8 C 56 % 56 % 1016,4 hPa 0,0 l/m 0,0 km/h (0 Bft) S-SW 202 15,4 C 24,8 C 1,6 km/h (1 Bft) 100,00 %
19.07.2019 12:17 25,3 C 24,8 C 56 % 57 % 1016,3 hPa 0,0 l/m 1,6 km/h (1 Bft) S-SW 202 15,7 C 24,8 C 1,6 km/h (1 Bft) 95,65 %
19.07.2019 12:16 25,3 C 24,8 C 56 % 57 % 1016,4 hPa 0,0 l/m 1,6 km/h (1 Bft) W-SW 247 15,7 C 24,8 C 3,2 km/h (1 Bft) 100,00 %
19.07.2019 12:15 25,3 C 24,8 C 56 % 56 % 1016,3 hPa 0,0 l/m 1,6 km/h (1 Bft) S-SW 202 15,4 C 24,8 C 1,6 km/h (1 Bft) 100,00 %
19.07.2019 12:14 25,3 C 24,8 C 57 % 58 % 1016,4 hPa 0,0 l/m 0,0 km/h (0 Bft) N 0 16,0 C 24,8 C 0,0 km/h (0 Bft) 95,65 %
19.07.2019 12:13 25,3 C 24,7 C 57 % 58 % 1016,4 hPa 0,0 l/m 0,0 km/h (0 Bft) N 0 15,9 C 24,7 C 0,0 km/h (0 Bft) 100,00 %
19.07.2019 12:12 25,3 C 24,6 C 57 % 58 % 1016,3 hPa 0,0 l/m 0,0 km/h (0 Bft) N 0 15,8 C 24,6 C 0,0 km/h (0 Bft) 100,00 %
19.07.2019 12:11 25,3 C 24,5 C 56 % 58 % 1016,4 hPa 0,0 l/m 0,0 km/h (0 Bft) N 0 15,7 C 24,5 C 0,0 km/h (0 Bft) 100,00 %
19.07.2019 12:10 25,3 C 24,4 C 57 % 57 % 1016,3 hPa 0,0 l/m 0,0 km/h (0 Bft) N 0 15,3 C 24,4 C 0,0 km/h (0 Bft) 100,00 %
19.07.2019 12:09 25,3 C 24,3 C 57 % 56 % 1016,4 hPa 0,0 l/m 0,0 km/h (0 Bft) N 0 14,9 C 24,3 C 0,0 km/h (0 Bft) 100,00 %
19.07.2019 12:08 25,3 C 24,3 C 57 % 58 % 1016,4 hPa 0,0 l/m 0,0 km/h (0 Bft) S-SW 202 15,5 C 24,3 C 1,6 km/h (1 Bft) 91,30 %
19.07.2019 12:07 25,3 C 24,2 C 56 % 60 % 1016,3 hPa 0,0 l/m 0,0 km/h (0 Bft) N 0 15,9 C 24,2 C 0,0 km/h (0 Bft) 100,00 %
19.07.2019 12:06 25,3 C 24,2 C 57 % 55 % 1016,3 hPa 0,0 l/m 0,0 km/h (0 Bft) N 0 14,6 C 24,2 C 0,0 km/h (0 Bft) 100,00 %
19.07.2019 12:05 25,3 C 24,1 C 57 % 56 % 1016,4 hPa 0,0 l/m 0,0 km/h (0 Bft) S-SW 202 14,8 C 24,1 C 1,6 km/h (1 Bft) 100,00 %
19.07.2019 12:04 25,3 C 24,1 C 56 % 59 % 1016,4 hPa 0,0 l/m 0,0 km/h (0 Bft) S-SW 202 15,6 C 24,1 C 1,6 km/h (1 Bft) 91,30 %
19.07.2019 12:03 25,3 C 24,1 C 57 % 61 % 1016,3 hPa 0,0 l/m 0,0 km/h (0 Bft) N 0 16,1 C 24,1 C 0,0 km/h (0 Bft) 91,30 %
19.07.2019 12:02 25,3 C 24,1 C 56 % 60 % 1016,4 hPa 0,0 l/m 0,0 km/h (0 Bft) N 0 15,8 C 24,1 C 0,0 km/h (0 Bft) 100,00 %
19.07.2019 12:01 25,3 C 24,1 C 56 % 61 % 1016,3 hPa 0,0 l/m 1,6 km/h (1 Bft) S-SW 202 16,1 C 24,1 C 1,6 km/h (1 Bft) 100,00 %
19.07.2019 12:00 25,3 C 24,2 C 57 % 62 % 1016,4 hPa 0,0 l/m 0,0 km/h (0 Bft) S-SW 202 16,4 C 24,2 C 1,6 km/h (1 Bft) 95,65 %
19.07.2019 11:59 25,3 C 24,2 C 56 % 62 % 1016,3 hPa 0,0 l/m 0,0 km/h (0 Bft) S-SW 202 16,4 C 24,2 C 1,6 km/h (1 Bft) 100,00 %
19.07.2019 11:58 25,3 C 24,2 C 57 % 60 % 1016,3 hPa 0,0 l/m 0,0 km/h (0 Bft) S-SW 202 15,9 C 24,2 C 1,6 km/h (1 Bft) 95,65 %
19.07.2019 11:57 25,3 C 24,3 C 57 % 61 % 1016,3 hPa 0,0 l/m 1,6 km/h (1 Bft) S-SW 202 16,3 C 24,3 C 1,6 km/h (1 Bft) 100,00 %
19.07.2019 11:56 25,3 C 24,3 C 57 % 61 % 1016,3 hPa 0,0 l/m 0,0 km/h (0 Bft) N 0 16,3 C 24,3 C 0,0 km/h (0 Bft) 100,00 %
19.07.2019 11:55 25,3 C 24,3 C 56 % 60 % 1016,3 hPa 0,0 l/m 0,0 km/h (0 Bft) N 0 16,0 C 24,3 C 0,0 km/h (0 Bft) 100,00 %
19.07.2019 11:54 25,3 C 24,2 C 56 % 60 % 1016,4 hPa 0,0 l/m 0,0 km/h (0 Bft) N 0 15,9 C 24,2 C 0,0 km/h (0 Bft) 100,00 %
19.07.2019 11:53 25,3 C 24,2 C 56 % 58 % 1016,3 hPa 0,0 l/m 0,0 km/h (0 Bft) N 0 15,4 C 24,2 C 0,0 km/h (0 Bft) 100,00 %
19.07.2019 11:52 25,3 C 24,1 C 56 % 59 % 1016,4 hPa 0,0 l/m 0,0 km/h (0 Bft) S-SW 202 15,6 C 24,1 C 1,6 km/h (1 Bft) 100,00 %
19.07.2019 11:51 25,3 C 24,1 C 56 % 62 % 1016,4 hPa 0,0 l/m 0,0 km/h (0 Bft) S-SW 202 16,4 C 24,1 C 1,6 km/h (1 Bft) 100,00 %
19.07.2019 11:50 25,3 C 24,1 C 56 % 62 % 1016,3 hPa 0,0 l/m 0,0 km/h (0 Bft) N 0 16,4 C 24,1 C 0,0 km/h (0 Bft) 100,00 %
19.07.2019 11:49 25,3 C 24,1 C 56 % 60 % 1016,3 hPa 0,0 l/m 0,0 km/h (0 Bft) N 0 15,8 C 24,1 C 0,0 km/h (0 Bft) 100,00 %
19.07.2019 11:48 25,3 C 24,0 C 56 % 61 % 1016,4 hPa 0,0 l/m 0,0 km/h (0 Bft) N 0 16,0 C 24,0 C 0,0 km/h (0 Bft) 95,65 %
19.07.2019 11:47 25,3 C 24,0 C 56 % 59 % 1016,4 hPa 0,0 l/m 1,6 km/h (1 Bft) W-SW 247 15,5 C 24,0 C 3,2 km/h (1 Bft) 100,00 %
19.07.2019 11:46 25,3 C 23,9 C 56 % 60 % 1016,4 hPa 0,0 l/m 0,0 km/h (0 Bft) W-SW 247 15,7 C 23,9 C 1,6 km/h (1 Bft) 100,00 %
19.07.2019 11:45 25,2 C 23,9 C 56 % 62 % 1016,4 hPa 0,0 l/m 0,0 km/h (0 Bft) SW 225 16,2 C 23,9 C 1,6 km/h (1 Bft) 100,00 %
19.07.2019 11:44 25,3 C 23,8 C 56 % 61 % 1016,4 hPa 0,0 l/m 0,0 km/h (0 Bft) N 0 15,8 C 23,8 C 0,0 km/h (0 Bft) 86,96 %
19.07.2019 11:43 25,3 C 23,8 C 56 % 59 % 1016,4 hPa 0,0 l/m 0,0 km/h (0 Bft) N 0 15,3 C 23,8 C 0,0 km/h (0 Bft) 100,00 %
19.07.2019 11:42 25,3 C 23,8 C 56 % 58 % 1016,4 hPa 0,0 l/m 1,6 km/h (1 Bft) SW 225 15,0 C 23,8 C 1,6 km/h (1 Bft) 100,00 %
19.07.2019 11:41 25,3 C 23,8 C 56 % 59 % 1016,4 hPa 0,0 l/m 0,0 km/h (0 Bft) SW 225 15,3 C 23,8 C 1,6 km/h (1 Bft) 95,65 %
19.07.2019 11:40 25,3 C 23,8 C 56 % 59 % 1016,4 hPa 0,0 l/m 0,0 km/h (0 Bft) N 0 15,3 C 23,8 C 0,0 km/h (0 Bft) 100,00 %
19.07.2019 11:39 25,3 C 23,8 C 56 % 58 % 1016,4 hPa 0,0 l/m 0,0 km/h (0 Bft) N 0 15,0 C 23,8 C 0,0 km/h (0 Bft) 100,00 %
19.07.2019 11:38 25,2 C 23,8 C 56 % 58 % 1016,4 hPa 0,0 l/m 1,6 km/h (1 Bft) SW 225 15,0 C 23,8 C 3,2 km/h (1 Bft) 100,00 %
19.07.2019 11:37 25,3 C 23,8 C 56 % 61 % 1016,4 hPa 0,0 l/m 0,0 km/h (0 Bft) W-SW 247 15,8 C 23,8 C 1,6 km/h (1 Bft) 100,00 %
19.07.2019 11:36 25,3 C 23,7 C 56 % 62 % 1016,4 hPa 0,0 l/m 0,0 km/h (0 Bft) N 0 16,0 C 23,7 C 0,0 km/h (0 Bft) 100,00 %
19.07.2019 11:35 25,3 C 23,7 C 56 % 60 % 1016,4 hPa 0,0 l/m 0,0 km/h (0 Bft) N 0 15,5 C 23,7 C 0,0 km/h (0 Bft) 100,00 %
19.07.2019 11:34 25,3 C 23,7 C 56 % 60 % 1016,3 hPa 0,0 l/m 0,0 km/h (0 Bft) W 270 15,5 C 23,7 C 1,6 km/h (1 Bft) 100,00 %
19.07.2019 11:33 25,3 C 23,7 C 56 % 62 % 1016,4 hPa 0,0 l/m 0,0 km/h (0 Bft) W 270 16,0 C 23,7 C 1,6 km/h (1 Bft) 100,00 %
19.07.2019 11:32 25,3 C 23,7 C 56 % 64 % 1016,4 hPa 0,0 l/m 0,0 km/h (0 Bft) N 0 16,5 C 23,7 C 0,0 km/h (0 Bft) 100,00 %
19.07.2019 11:31 25,3 C 23,7 C 56 % 66 % 1016,4 hPa 0,0 l/m 0,0 km/h (0 Bft) N 0 17,0 C 23,7 C 0,0 km/h (0 Bft) 100,00 %
19.07.2019 11:30 25,3 C 23,7 C 56 % 64 % 1016,4 hPa 0,0 l/m 0,0 km/h (0 Bft) W 270 16,5 C 23,7 C 1,6 km/h (1 Bft) 100,00 %
19.07.2019 11:29 25,3 C 23,7 C 56 % 63 % 1016,4 hPa 0,0 l/m 0,0 km/h (0 Bft) N 0 16,2 C 23,7 C 0,0 km/h (0 Bft) 100,00 %
19.07.2019 11:28 25,3 C 23,7 C 56 % 64 % 1016,4 hPa 0,0 l/m 0,0 km/h (0 Bft) N 0 16,5 C 23,7 C 0,0 km/h (0 Bft) 100,00 %
19.07.2019 11:27 25,3 C 23,6 C 56 % 64 % 1016,4 hPa 0,0 l/m 0,0 km/h (0 Bft) N 0 16,4 C 23,6 C 0,0 km/h (0 Bft) 95,65 %
19.07.2019 11:26 25,3 C 23,6 C 56 % 64 % 1016,4 hPa 0,0 l/m 0,0 km/h (0 Bft) N 0 16,4 C 23,6 C 0,0 km/h (0 Bft) 100,00 %
19.07.2019 11:25 25,3 C 23,5 C 56 % 60 % 1016,4 hPa 0,0 l/m 0,0 km/h (0 Bft) N 0 15,3 C 23,5 C 0,0 km/h (0 Bft) 100,00 %
19.07.2019 11:24 25,3 C 23,4 C 56 % 60 % 1016,4 hPa 0,0 l/m 0,0 km/h (0 Bft) N 0 15,2 C 23,4 C 0,0 km/h (0 Bft) 100,00 %
19.07.2019 11:23 25,3 C 23,4 C 56 % 60 % 1016,4 hPa 0,0 l/m 0,0 km/h (0 Bft) W 270 15,2 C 23,4 C 1,6 km/h (1 Bft) 100,00 %
19.07.2019 11:22 25,3 C 23,4 C 56 % 60 % 1016,4 hPa 0,0 l/m 1,6 km/h (1 Bft) W 270 15,2 C 23,4 C 1,6 km/h (1 Bft) 100,00 %
19.07.2019 11:21 25,3 C 23,4 C 56 % 61 % 1016,5 hPa 0,0 l/m 1,6 km/h (1 Bft) W 270 15,4 C 23,4 C 3,2 km/h (1 Bft) 100,00 %
19.07.2019 11:20 25,3 C 23,4 C 56 % 60 % 1016,4 hPa 0,0 l/m 1,6 km/h (1 Bft) W-NW 292 15,2 C 23,4 C 3,2 km/h (1 Bft) 100,00 %
19.07.2019 11:19 25,3 C 23,4 C 56 % 63 % 1016,4 hPa 0,0 l/m 0,0 km/h (0 Bft) W-NW 292 15,9 C 23,4 C 1,6 km/h (1 Bft) 100,00 %
19.07.2019 11:18 25,3 C 23,3 C 56 % 63 % 1016,5 hPa 0,0 l/m 0,0 km/h (0 Bft) N 0 15,9 C 23,3 C 0,0 km/h (0 Bft) 100,00 %
19.07.2019 11:17 25,2 C 23,3 C 56 % 61 % 1016,4 hPa 0,0 l/m 0,0 km/h (0 Bft) W-NW 292 15,3 C 23,3 C 1,6 km/h (1 Bft) 100,00 %
19.07.2019 11:16 25,2 C 23,3 C 56 % 59 % 1016,4 hPa 0,0 l/m 1,6 km/h (1 Bft) W-NW 292 14,8 C 23,3 C 3,2 km/h (1 Bft) 100,00 %
19.07.2019 11:15 25,2 C 23,4 C 56 % 61 % 1016,5 hPa 0,0 l/m 0,0 km/h (0 Bft) W-NW 292 15,4 C 23,4 C 1,6 km/h (1 Bft) 100,00 %
19.07.2019 11:14 25,2 C 23,4 C 56 % 65 % 1016,4 hPa 0,0 l/m 1,6 km/h (1 Bft) W-NW 292 16,4 C 23,4 C 1,6 km/h (1 Bft) 100,00 %
19.07.2019 11:13 25,2 C 23,5 C 56 % 67 % 1016,4 hPa 0,0 l/m 0,0 km/h (0 Bft) N 0 17,0 C 23,5 C 0,0 km/h (0 Bft) 100,00 %
19.07.2019 11:12 25,2 C 23,5 C 56 % 65 % 1016,4 hPa 0,0 l/m 0,0 km/h (0 Bft) W-NW 292 16,5 C 23,5 C 1,6 km/h (1 Bft) 100,00 %
19.07.2019 11:11 25,2 C 23,4 C 56 % 61 % 1016,4 hPa 0,0 l/m 0,0 km/h (0 Bft) W-NW 292 15,4 C 23,4 C 1,6 km/h (1 Bft) 100,00 %
19.07.2019 11:10 25,2 C 23,4 C 56 % 60 % 1016,5 hPa 0,0 l/m 0,0 km/h (0 Bft) W-NW 292 15,2 C 23,4 C 1,6 km/h (1 Bft) 91,30 %
19.07.2019 11:09 25,2 C 23,4 C 56 % 62 % 1016,4 hPa 0,0 l/m 0,0 km/h (0 Bft) N 0 15,7 C 23,4 C 0,0 km/h (0 Bft) 100,00 %
19.07.2019 11:08 25,2 C 23,4 C 56 % 62 % 1016,4 hPa 0,0 l/m 0,0 km/h (0 Bft) N 0 15,7 C 23,4 C 0,0 km/h (0 Bft) 100,00 %
19.07.2019 11:07 25,2 C 23,4 C 56 % 65 % 1016,4 hPa 0,0 l/m 0,0 km/h (0 Bft) N 0 16,4 C 23,4 C 0,0 km/h (0 Bft) 95,65 %
19.07.2019 11:06 25,2 C 23,4 C 56 % 64 % 1016,4 hPa 0,0 l/m 0,0 km/h (0 Bft) N 0 16,2 C 23,4 C 0,0 km/h (0 Bft) 100,00 %
19.07.2019 11:05 25,2 C 23,3 C 56 % 63 % 1016,4 hPa 0,0 l/m 0,0 km/h (0 Bft) N 0 15,9 C 23,3 C 0,0 km/h (0 Bft) 100,00 %
19.07.2019 11:04 25,2 C 23,3 C 56 % 61 % 1016,4 hPa 0,0 l/m 0,0 km/h (0 Bft) N 0 15,3 C 23,3 C 0,0 km/h (0 Bft) 100,00 %
19.07.2019 11:03 25,2 C 23,2 C 56 % 61 % 1016,4 hPa 0,0 l/m 0,0 km/h (0 Bft) N 0 15,3 C 23,2 C 0,0 km/h (0 Bft) 100,00 %
19.07.2019 11:02 25,2 C 23,2 C 56 % 63 % 1016,4 hPa 0,0 l/m 0,0 km/h (0 Bft) N 0 15,8 C 23,2 C 0,0 km/h (0 Bft) 100,00 %
19.07.2019 11:01 25,2 C 23,2 C 56 % 62 % 1016,5 hPa 0,0 l/m 0,0 km/h (0 Bft) N 0 15,5 C 23,2 C 0,0 km/h (0 Bft) 100,00 %
19.07.2019 11:00 25,2 C 23,2 C 56 % 62 % 1016,4 hPa 0,0 l/m 0,0 km/h (0 Bft) N 0 15,5 C 23,2 C 0,0 km/h (0 Bft) 100,00 %
19.07.2019 10:59 25,2 C 23,2 C 56 % 66 % 1016,5 hPa 0,0 l/m 0,0 km/h (0 Bft) W-NW 292 16,5 C 23,2 C 1,6 km/h (1 Bft) 100,00 %
19.07.2019 10:58 25,2 C 23,2 C 56 % 60 % 1016,5 hPa 0,0 l/m 0,0 km/h (0 Bft) N 0 15,0 C 23,2 C 0,0 km/h (0 Bft) 100,00 %
19.07.2019 10:57 25,2 C 23,1 C 56 % 60 % 1016,5 hPa 0,0 l/m 0,0 km/h (0 Bft) W-NW 292 14,9 C 23,1 C 1,6 km/h (1 Bft) 95,65 %
19.07.2019 10:56 25,2 C 23,1 C 56 % 61 % 1016,5 hPa 0,0 l/m 0,0 km/h (0 Bft) W-NW 292 15,2 C 23,1 C 1,6 km/h (1 Bft) 100,00 %
19.07.2019 10:55 25,2 C 23,1 C 56 % 60 % 1016,5 hPa 0,0 l/m 0,0 km/h (0 Bft) W-NW 292 14,9 C 23,1 C 1,6 km/h (1 Bft) 95,65 %
19.07.2019 10:54 25,2 C 23,1 C 56 % 60 % 1016,5 hPa 0,0 l/m 0,0 km/h (0 Bft) N 0 14,9 C 23,1 C 0,0 km/h (0 Bft) 100,00 %
19.07.2019 10:53 25,2 C 23,1 C 56 % 61 % 1016,5 hPa 0,0 l/m 1,6 km/h (1 Bft) W-NW 292 15,2 C 23,1 C 1,6 km/h (1 Bft) 100,00 %
19.07.2019 10:52 25,2 C 23,1 C 56 % 62 % 1016,5 hPa 0,0 l/m 1,6 km/h (1 Bft) W-NW 292 15,4 C 23,1 C 3,2 km/h (1 Bft) 100,00 %
19.07.2019 10:51 25,2 C 23,1 C 56 % 61 % 1016,5 hPa 0,0 l/m 1,6 km/h (1 Bft) W-NW 292 15,2 C 23,1 C 3,2 km/h (1 Bft) 100,00 %
19.07.2019 10:50 25,2 C 23,2 C 56 % 61 % 1016,5 hPa 0,0 l/m 1,6 km/h (1 Bft) W-NW 292 15,3 C 23,2 C 3,2 km/h (1 Bft) 100,00 %
19.07.2019 10:49 25,2 C 23,2 C 56 % 62 % 1016,5 hPa 0,0 l/m 1,6 km/h (1 Bft) W-NW 292 15,5 C 23,2 C 3,2 km/h (1 Bft) 100,00 %
19.07.2019 10:48 25,2 C 23,2 C 56 % 62 % 1016,5 hPa 0,0 l/m 1,6 km/h (1 Bft) W 270 15,5 C 23,2 C 3,2 km/h (1 Bft) 100,00 %
19.07.2019 10:47 25,2 C 23,2 C 56 % 61 % 1016,6 hPa 0,0 l/m 1,6 km/h (1 Bft) W 270 15,3 C 23,2 C 3,2 km/h (1 Bft) 100,00 %
19.07.2019 10:46 25,2 C 23,2 C 56 % 63 % 1016,5 hPa 0,0 l/m 0,0 km/h (0 Bft) W 270 15,8 C 23,2 C 3,2 km/h (1 Bft) 100,00 %
19.07.2019 10:45 25,2 C 23,3 C 56 % 64 % 1016,5 hPa 0,0 l/m 0,0 km/h (0 Bft) N 0 16,1 C 23,3 C 0,0 km/h (0 Bft) 100,00 %
19.07.2019 10:44 25,2 C 23,3 C 56 % 63 % 1016,5 hPa 0,0 l/m 1,6 km/h (1 Bft) W-NW 292 15,9 C 23,3 C 3,2 km/h (1 Bft) 100,00 %
19.07.2019 10:43 25,2 C 23,3 C 56 % 63 % 1016,5 hPa 0,0 l/m 1,6 km/h (1 Bft) W-NW 292 15,9 C 23,3 C 1,6 km/h (1 Bft) 100,00 %
19.07.2019 10:42 25,1 C 23,3 C 56 % 61 % 1016,5 hPa 0,0 l/m 0,0 km/h (0 Bft) N 0 15,3 C 23,3 C 0,0 km/h (0 Bft) 100,00 %
19.07.2019 10:41 25,1 C 23,3 C 55 % 61 % 1016,5 hPa 0,0 l/m 0,0 km/h (0 Bft) W-NW 292 15,3 C 23,3 C 1,6 km/h (1 Bft) 100,00 %
19.07.2019 10:40 25,1 C 23,3 C 55 % 60 % 1016,5 hPa 0,0 l/m 1,6 km/h (1 Bft) W-NW 292 15,1 C 23,3 C 1,6 km/h (1 Bft) 100,00 %
19.07.2019 10:39 25,1 C 23,3 C 55 % 62 % 1016,5 hPa 0,0 l/m 1,6 km/h (1 Bft) W-NW 292 15,6 C 23,3 C 3,2 km/h (1 Bft) 100,00 %
19.07.2019 10:38 25,1 C 23,4 C 55 % 63 % 1016,4 hPa 0,0 l/m 1,6 km/h (1 Bft) N-NW 337 15,9 C 23,4 C 1,6 km/h (1 Bft) 100,00 %
19.07.2019 10:37 25,1 C 23,3 C 55 % 59 % 1016,5 hPa 0,0 l/m 0,0 km/h (0 Bft) N-NW 337 14,8 C 23,3 C 1,6 km/h (1 Bft) 100,00 %
19.07.2019 10:36 25,1 C 23,3 C 55 % 59 % 1016,5 hPa 0,0 l/m 1,6 km/h (1 Bft) N-NW 337 14,8 C 23,3 C 3,2 km/h (1 Bft) 100,00 %
19.07.2019 10:35 25,1 C 23,3 C 55 % 59 % 1016,4 hPa 0,0 l/m 1,6 km/h (1 Bft) NW 315 14,8 C 23,3 C 3,2 km/h (1 Bft) 100,00 %
19.07.2019 10:34 25,1 C 23,4 C 55 % 62 % 1016,4 hPa 0,0 l/m 0,0 km/h (0 Bft) NW 315 15,7 C 23,4 C 1,6 km/h (1 Bft) 100,00 %
19.07.2019 10:33 25,1 C 23,4 C 55 % 62 % 1016,4 hPa 0,0 l/m 0,0 km/h (0 Bft) N 0 15,7 C 23,4 C 0,0 km/h (0 Bft) 100,00 %
19.07.2019 10:32 25,1 C 23,4 C 55 % 63 % 1016,4 hPa 0,0 l/m 0,0 km/h (0 Bft) N 0 15,9 C 23,4 C 0,0 km/h (0 Bft) 100,00 %
19.07.2019 10:31 25,1 C 23,4 C 55 % 61 % 1016,4 hPa 0,0 l/m 0,0 km/h (0 Bft) N 0 15,4 C 23,4 C 0,0 km/h (0 Bft) 100,00 %
19.07.2019 10:30 25,1 C 23,4 C 55 % 59 % 1016,4 hPa 0,0 l/m 1,6 km/h (1 Bft) NW 315 14,9 C 23,4 C 4,8 km/h (1 Bft) 100,00 %
19.07.2019 10:29 25,1 C 23,4 C 55 % 62 % 1016,4 hPa 0,0 l/m 1,6 km/h (1 Bft) NW 315 15,7 C 23,4 C 3,2 km/h (1 Bft) 95,65 %
19.07.2019 10:28 25,1 C 23,5 C 55 % 63 % 1016,4 hPa 0,0 l/m 1,6 km/h (1 Bft) NW 315 16,0 C 23,5 C 3,2 km/h (1 Bft) 100,00 %
19.07.2019 10:27 25,1 C 23,4 C 55 % 61 % 1016,3 hPa 0,0 l/m 0,0 km/h (0 Bft) N-NW 337 15,4 C 23,4 C 1,6 km/h (1 Bft) 100,00 %
19.07.2019 10:26 25,1 C 23,4 C 55 % 59 % 1016,4 hPa 0,0 l/m 0,0 km/h (0 Bft) N 360 14,9 C 23,4 C 1,6 km/h (1 Bft) 100,00 %
19.07.2019 10:25 25,1 C 23,4 C 55 % 57 % 1016,4 hPa 0,0 l/m 0,0 km/h (0 Bft) N 0 14,4 C 23,4 C 0,0 km/h (0 Bft) 100,00 %
19.07.2019 10:24 25,1 C 23,5 C 55 % 59 % 1016,4 hPa 0,0 l/m 0,0 km/h (0 Bft) N 360 15,0 C 23,5 C 1,6 km/h (1 Bft) 100,00 %
19.07.2019 10:23 25,1 C 23,6 C 55 % 61 % 1016,4 hPa 0,0 l/m 0,0 km/h (0 Bft) N 0 15,6 C 23,6 C 0,0 km/h (0 Bft) 100,00 %
19.07.2019 10:22 25,1 C 23,6 C 55 % 60 % 1016,3 hPa 0,0 l/m 0,0 km/h (0 Bft) N 360 15,4 C 23,6 C 1,6 km/h (1 Bft) 100,00 %
19.07.2019 10:21 25,1 C 23,6 C 55 % 60 % 1016,3 hPa 0,0 l/m 0,0 km/h (0 Bft) N 0 15,4 C 23,6 C 0,0 km/h (0 Bft) 95,65 %
19.07.2019 10:20 25,1 C 23,7 C 55 % 60 % 1016,4 hPa 0,0 l/m 1,6 km/h (1 Bft) N 360 15,5 C 23,7 C 3,2 km/h (1 Bft) 100,00 %
19.07.2019 10:19 25,1 C 23,7 C 55 % 59 % 1016,3 hPa 0,0 l/m 0,0 km/h (0 Bft) O-SO 112 15,2 C 23,7 C 1,6 km/h (1 Bft) 100,00 %
19.07.2019 10:18 25,1 C 23,7 C 55 % 59 % 1016,3 hPa 0,0 l/m 0,0 km/h (0 Bft) N 0 15,2 C 23,7 C 0,0 km/h (0 Bft) 100,00 %
19.07.2019 10:17 25,1 C 23,7 C 55 % 58 % 1016,3 hPa 0,0 l/m 0,0 km/h (0 Bft) N 0 14,9 C 23,7 C 0,0 km/h (0 Bft) 100,00 %
19.07.2019 10:16 25,1 C 23,7 C 55 % 60 % 1016,4 hPa 0,0 l/m 0,0 km/h (0 Bft) O-SO 112 15,5 C 23,7 C 1,6 km/h (1 Bft) 100,00 %
19.07.2019 10:15 25,1 C 23,7 C 55 % 59 % 1016,3 hPa 0,0 l/m 0,0 km/h (0 Bft) N 0 15,2 C 23,7 C 0,0 km/h (0 Bft) 100,00 %
19.07.2019 10:14 25,1 C 23,7 C 55 % 59 % 1016,3 hPa 0,0 l/m 0,0 km/h (0 Bft) O-SO 112 15,2 C 23,7 C 1,6 km/h (1 Bft) 95,65 %
19.07.2019 10:13 25,1 C 23,7 C 55 % 57 % 1016,3 hPa 0,0 l/m 0,0 km/h (0 Bft) N 0 14,7 C 23,7 C 0,0 km/h (0 Bft) 100,00 %
19.07.2019 10:12 25,1 C 23,8 C 55 % 57 % 1016,3 hPa 0,0 l/m 0,0 km/h (0 Bft) N 0 14,8 C 23,8 C 0,0 km/h (0 Bft) 100,00 %
19.07.2019 10:11 25,1 C 23,8 C 55 % 56 % 1016,2 hPa 0,0 l/m 0,0 km/h (0 Bft) O-SO 112 14,5 C 23,8 C 1,6 km/h (1 Bft) 100,00 %
19.07.2019 10:10 25,1 C 23,9 C 55 % 57 % 1016,3 hPa 0,0 l/m 0,0 km/h (0 Bft) O-SO 112 14,9 C 23,9 C 1,6 km/h (1 Bft) 100,00 %
19.07.2019 10:09 25,1 C 23,9 C 55 % 56 % 1016,2 hPa 0,0 l/m 1,6 km/h (1 Bft) O-SO 112 14,6 C 23,9 C 3,2 km/h (1 Bft) 100,00 %
19.07.2019 10:08 25,1 C 23,9 C 55 % 58 % 1016,2 hPa 0,0 l/m 0,0 km/h (0 Bft) S-SO 157 15,1 C 23,9 C 3,2 km/h (1 Bft) 100,00 %
19.07.2019 10:07 25,1 C 23,9 C 55 % 58 % 1016,2 hPa 0,0 l/m 1,6 km/h (1 Bft) S-SO 157 15,1 C 23,9 C 1,6 km/h (1 Bft) 100,00 %
19.07.2019 10:06 25,1 C 23,8 C 55 % 59 % 1016,2 hPa 0,0 l/m 0,0 km/h (0 Bft) S-SO 157 15,3 C 23,8 C 1,6 km/h (1 Bft) 100,00 %
19.07.2019 10:05 25,1 C 23,8 C 55 % 58 % 1016,2 hPa 0,0 l/m 0,0 km/h (0 Bft) S-SO 157 15,0 C 23,8 C 1,6 km/h (1 Bft) 95,65 %
19.07.2019 10:04 25,1 C 23,7 C 55 % 59 % 1016,2 hPa 0,0 l/m 0,0 km/h (0 Bft) S 180 15,2 C 23,7 C 1,6 km/h (1 Bft) 100,00 %
19.07.2019 10:03 25,1 C 23,7 C 55 % 60 % 1016,2 hPa 0,0 l/m 0,0 km/h (0 Bft) N 0 15,5 C 23,7 C 0,0 km/h (0 Bft) 100,00 %
19.07.2019 10:02 25,1 C 23,6 C 55 % 59 % 1016,2 hPa 0,0 l/m 0,0 km/h (0 Bft) N 0 15,1 C 23,6 C 0,0 km/h (0 Bft) 95,65 %
19.07.2019 10:01 25,0 C 23,6 C 55 % 60 % 1016,2 hPa 0,0 l/m 1,6 km/h (1 Bft) S 180 15,4 C 23,6 C 1,6 km/h (1 Bft) 100,00 %
19.07.2019 10:00 25,0 C 23,6 C 55 % 61 % 1016,2 hPa 0,0 l/m 1,6 km/h (1 Bft) S 180 15,6 C 23,6 C 3,2 km/h (1 Bft) 100,00 %
19.07.2019 09:59 25,0 C 23,5 C 55 % 61 % 1016,3 hPa 0,0 l/m 0,0 km/h (0 Bft) N 0 15,5 C 23,5 C 0,0 km/h (0 Bft) 100,00 %
19.07.2019 09:58 25,0 C 23,4 C 55 % 62 % 1016,2 hPa 0,0 l/m 0,0 km/h (0 Bft) N 0 15,7 C 23,4 C 0,0 km/h (0 Bft) 100,00 %
19.07.2019 09:57 25,0 C 23,4 C 55 % 65 % 1016,2 hPa 0,0 l/m 0,0 km/h (0 Bft) S-SO 157 16,4 C 23,4 C 1,6 km/h (1 Bft) 100,00 %
19.07.2019 09:56 25,0 C 23,3 C 55 % 62 % 1016,2 hPa 0,0 l/m 1,6 km/h (1 Bft) S-SO 157 15,6 C 23,3 C 1,6 km/h (1 Bft) 100,00 %
19.07.2019 09:55 25,0 C 23,3 C 55 % 65 % 1016,2 hPa 0,0 l/m 1,6 km/h (1 Bft) O 90 16,3 C 23,3 C 1,6 km/h (1 Bft) 100,00 %
19.07.2019 09:54 25,0 C 23,3 C 55 % 65 % 1016,2 hPa 0,0 l/m 1,6 km/h (1 Bft) O 90 16,3 C 23,3 C 3,2 km/h (1 Bft) 100,00 %
19.07.2019 09:53 25,0 C 23,3 C 55 % 64 % 1016,3 hPa 0,0 l/m 0,0 km/h (0 Bft) O-SO 112 16,1 C 23,3 C 1,6 km/h (1 Bft) 100,00 %
19.07.2019 09:52 25,0 C 23,2 C 55 % 61 % 1016,3 hPa 0,0 l/m 1,6 km/h (1 Bft) N-NW 337 15,3 C 23,2 C 3,2 km/h (1 Bft) 86,96 %
19.07.2019 09:51 25,0 C 23,2 C 55 % 62 % 1016,2 hPa 0,0 l/m 1,6 km/h (1 Bft) W-SW 247 15,5 C 23,2 C 3,2 km/h (1 Bft) 95,65 %
19.07.2019 09:50 25,0 C 23,2 C 55 % 62 % 1016,3 hPa 0,0 l/m 1,6 km/h (1 Bft) W-SW 247 15,5 C 23,2 C 3,2 km/h (1 Bft) 100,00 %
19.07.2019 09:49 25,0 C 23,2 C 55 % 61 % 1016,3 hPa 0,0 l/m 0,0 km/h (0 Bft) S-SW 202 15,3 C 23,2 C 1,6 km/h (1 Bft) 100,00 %
19.07.2019 09:48 25,0 C 23,2 C 55 % 61 % 1016,2 hPa 0,0 l/m 0,0 km/h (0 Bft) S-SW 202 15,3 C 23,2 C 1,6 km/h (1 Bft) 100,00 %
19.07.2019 09:47 24,9 C 23,2 C 55 % 60 % 1016,2 hPa 0,0 l/m 3,2 km/h (1 Bft) W-SW 247 15,0 C 23,2 C 6,4 km/h (2 Bft) 100,00 %
19.07.2019 09:46 24,9 C 23,2 C 54 % 64 % 1016,3 hPa 0,0 l/m 3,2 km/h (1 Bft) SW 225 16,0 C 23,2 C 6,4 km/h (2 Bft) 95,65 %
19.07.2019 09:45 24,9 C 23,2 C 54 % 63 % 1016,3 hPa 0,0 l/m 0,0 km/h (0 Bft) N 0 15,8 C 23,2 C 0,0 km/h (0 Bft) 100,00 %
19.07.2019 09:44 25,0 C 23,2 C 54 % 61 % 1016,2 hPa 0,0 l/m 0,0 km/h (0 Bft) N 0 15,3 C 23,2 C 0,0 km/h (0 Bft) 100,00 %
19.07.2019 09:43 24,9 C 23,2 C 54 % 61 % 1016,2 hPa 0,0 l/m 0,0 km/h (0 Bft) W-NW 292 15,3 C 23,2 C 1,6 km/h (1 Bft) 100,00 %
19.07.2019 09:42 24,9 C 23,3 C 54 % 62 % 1016,2 hPa 0,0 l/m 1,6 km/h (1 Bft) W-NW 292 15,6 C 23,3 C 3,2 km/h (1 Bft) 100,00 %
19.07.2019 09:41 24,9 C 23,3 C 54 % 61 % 1016,3 hPa 0,0 l/m 3,2 km/h (1 Bft) W-NW 292 15,3 C 23,3 C 3,2 km/h (1 Bft) 95,65 %
19.07.2019 09:40 24,9 C 23,4 C 54 % 60 % 1016,3 hPa 0,0 l/m 1,6 km/h (1 Bft) W 270 15,2 C 23,4 C 3,2 km/h (1 Bft) 100,00 %
19.07.2019 09:39 24,9 C 23,5 C 54 % 61 % 1016,3 hPa 0,0 l/m 1,6 km/h (1 Bft) W 270 15,5 C 23,5 C 3,2 km/h (1 Bft) 100,00 %
19.07.2019 09:38 24,9 C 23,6 C 54 % 62 % 1016,3 hPa 0,0 l/m 3,2 km/h (1 Bft) W-SW 247 15,9 C 23,6 C 6,4 km/h (2 Bft) 100,00 %
19.07.2019 09:37 24,9 C 23,6 C 54 % 64 % 1016,3 hPa 0,0 l/m 0,0 km/h (0 Bft) N 0 16,4 C 23,6 C 0,0 km/h (0 Bft) 100,00 %
19.07.2019 09:36 24,9 C 23,6 C 54 % 63 % 1016,3 hPa 0,0 l/m 1,6 km/h (1 Bft) O-NO 67 16,1 C 23,6 C 3,2 km/h (1 Bft) 100,00 %
19.07.2019 09:35 24,9 C 23,5 C 54 % 62 % 1016,3 hPa 0,0 l/m 1,6 km/h (1 Bft) O-NO 67 15,8 C 23,5 C 3,2 km/h (1 Bft) 100,00 %
19.07.2019 09:34 24,9 C 23,4 C 54 % 63 % 1016,3 hPa 0,0 l/m 0,0 km/h (0 Bft) S 180 15,9 C 23,4 C 1,6 km/h (1 Bft) 95,65 %
19.07.2019 09:33 24,9 C 23,4 C 54 % 63 % 1016,3 hPa 0,0 l/m 0,0 km/h (0 Bft) N 0 15,9 C 23,4 C 0,0 km/h (0 Bft) 100,00 %
19.07.2019 09:32 24,9 C 23,3 C 54 % 63 % 1016,3 hPa 0,0 l/m 0,0 km/h (0 Bft) N 0 15,9 C 23,3 C 0,0 km/h (0 Bft) 100,00 %
19.07.2019 09:31 24,9 C 23,3 C 54 % 62 % 1016,3 hPa 0,0 l/m 0,0 km/h (0 Bft) S-SW 202 15,6 C 23,3 C 1,6 km/h (1 Bft) 100,00 %
19.07.2019 09:30 24,9 C 23,3 C 54 % 61 % 1016,4 hPa 0,0 l/m 1,6 km/h (1 Bft) S-SW 202 15,3 C 23,3 C 3,2 km/h (1 Bft) 100,00 %
19.07.2019 09:29 24,9 C 23,3 C 54 % 62 % 1016,3 hPa 0,0 l/m 3,2 km/h (1 Bft) S-SW 202 15,6 C 23,3 C 6,4 km/h (2 Bft) 100,00 %
19.07.2019 09:28 24,8 C 23,2 C 54 % 62 % 1016,3 hPa 0,0 l/m 1,6 km/h (1 Bft) S 180 15,5 C 23,2 C 3,2 km/h (1 Bft) 100,00 %
19.07.2019 09:27 24,8 C 23,1 C 54 % 64 % 1016,3 hPa 0,0 l/m 0,0 km/h (0 Bft) S 180 15,9 C 23,1 C 3,2 km/h (1 Bft) 95,65 %
19.07.2019 09:26 24,9 C 22,9 C 54 % 64 % 1016,3 hPa 0,0 l/m 1,6 km/h (1 Bft) S-SW 202 15,7 C 22,9 C 3,2 km/h (1 Bft) 100,00 %
19.07.2019 09:25 24,9 C 22,8 C 54 % 63 % 1016,3 hPa 0,0 l/m 0,0 km/h (0 Bft) N 0 15,4 C 22,8 C 0,0 km/h (0 Bft) 100,00 %
19.07.2019 09:24 24,8 C 22,8 C 54 % 63 % 1016,3 hPa 0,0 l/m 0,0 km/h (0 Bft) S 180 15,4 C 22,8 C 1,6 km/h (1 Bft) 100,00 %
19.07.2019 09:23 24,8 C 22,7 C 54 % 64 % 1016,3 hPa 0,0 l/m 1,6 km/h (1 Bft) S-SW 202 15,5 C 22,7 C 3,2 km/h (1 Bft) 100,00 %
19.07.2019 09:22 24,8 C 22,7 C 54 % 64 % 1016,3 hPa 0,0 l/m 1,6 km/h (1 Bft) S-SW 202 15,5 C 22,7 C 3,2 km/h (1 Bft) 100,00 %
19.07.2019 09:21 24,8 C 22,7 C 54 % 63 % 1016,4 hPa 0,0 l/m 0,0 km/h (0 Bft) S 180 15,3 C 22,7 C 1,6 km/h (1 Bft) 100,00 %
19.07.2019 09:20 24,8 C 22,6 C 54 % 64 % 1016,3 hPa 0,0 l/m 1,6 km/h (1 Bft) S 180 15,4 C 22,6 C 3,2 km/h (1 Bft) 100,00 %
19.07.2019 09:19 24,8 C 22,5 C 54 % 63 % 1016,3 hPa 0,0 l/m 1,6 km/h (1 Bft) S 180 15,1 C 22,5 C 3,2 km/h (1 Bft) 100,00 %
19.07.2019 09:18 24,8 C 22,5 C 54 % 64 % 1016,3 hPa 0,0 l/m 1,6 km/h (1 Bft) S-SW 202 15,3 C 22,5 C 6,4 km/h (2 Bft) 100,00 %
19.07.2019 09:17 24,8 C 22,4 C 54 % 68 % 1016,3 hPa 0,0 l/m 3,2 km/h (1 Bft) S-SW 202 16,2 C 22,4 C 6,4 km/h (2 Bft) 95,65 %
19.07.2019 09:16 24,8 C 22,4 C 54 % 66 % 1016,3 hPa 0,0 l/m 1,6 km/h (1 Bft) NO 45 15,7 C 22,4 C 3,2 km/h (1 Bft) 100,00 %
19.07.2019 09:15 24,8 C 22,4 C 54 % 67 % 1016,3 hPa 0,0 l/m 3,2 km/h (1 Bft) NO 45 16,0 C 22,4 C 4,8 km/h (1 Bft) 95,65 %
19.07.2019 09:14 24,8 C 22,4 C 54 % 67 % 1016,3 hPa 0,0 l/m 3,2 km/h (1 Bft) NO 45 16,0 C 22,4 C 4,8 km/h (1 Bft) 100,00 %
19.07.2019 09:13 24,8 C 22,4 C 54 % 68 % 1016,3 hPa 0,0 l/m 3,2 km/h (1 Bft) NO 45 16,2 C 22,4 C 3,2 km/h (1 Bft) 100,00 %
19.07.2019 09:12 24,8 C 22,4 C 54 % 68 % 1016,3 hPa 0,0 l/m 3,2 km/h (1 Bft) NO 45 16,2 C 22,4 C 4,8 km/h (1 Bft) 100,00 %
19.07.2019 09:11 24,8 C 22,4 C 54 % 66 % 1016,3 hPa 0,0 l/m 3,2 km/h (1 Bft) N-NO 22 15,7 C 22,4 C 4,8 km/h (1 Bft) 100,00 %
19.07.2019 09:10 24,8 C 22,5 C 54 % 65 % 1016,3 hPa 0,0 l/m 3,2 km/h (1 Bft) N-NO 22 15,6 C 22,5 C 4,8 km/h (1 Bft) 100,00 %
19.07.2019 09:09 24,8 C 22,6 C 54 % 65 % 1016,3 hPa 0,0 l/m 3,2 km/h (1 Bft) N-NO 22 15,7 C 22,6 C 4,8 km/h (1 Bft) 95,65 %
19.07.2019 09:08 24,7 C 22,6 C 54 % 65 % 1016,3 hPa 0,0 l/m 3,2 km/h (1 Bft) N-NO 22 15,7 C 22,6 C 3,2 km/h (1 Bft) 100,00 %
19.07.2019 09:07 24,8 C 22,6 C 54 % 66 % 1016,3 hPa 0,0 l/m 1,6 km/h (1 Bft) S 180 15,9 C 22,6 C 1,6 km/h (1 Bft) 100,00 %
19.07.2019 09:06 24,8 C 22,6 C 54 % 65 % 1016,3 hPa 0,0 l/m 1,6 km/h (1 Bft) S 180 15,7 C 22,6 C 1,6 km/h (1 Bft) 100,00 %
19.07.2019 09:05 24,8 C 22,5 C 54 % 67 % 1016,4 hPa 0,0 l/m 1,6 km/h (1 Bft) S 180 16,1 C 22,5 C 3,2 km/h (1 Bft) 100,00 %
19.07.2019 09:04 24,7 C 22,4 C 54 % 66 % 1016,4 hPa 0,0 l/m 0,0 km/h (0 Bft) N 0 15,7 C 22,4 C 0,0 km/h (0 Bft) 100,00 %
19.07.2019 09:03 24,7 C 22,4 C 54 % 64 % 1016,4 hPa 0,0 l/m 1,6 km/h (1 Bft) S-SW 202 15,2 C 22,4 C 3,2 km/h (1 Bft) 100,00 %
19.07.2019 09:02 24,7 C 22,4 C 54 % 66 % 1016,3 hPa 0,0 l/m 1,6 km/h (1 Bft) S 180 15,7 C 22,4 C 3,2 km/h (1 Bft) 95,65 %
19.07.2019 09:01 24,7 C 22,3 C 54 % 67 % 1016,4 hPa 0,0 l/m 0,0 km/h (0 Bft) S 180 15,9 C 22,3 C 1,6 km/h (1 Bft) 100,00 %
19.07.2019 09:00 24,7 C 22,2 C 54 % 66 % 1016,3 hPa 0,0 l/m 0,0 km/h (0 Bft) N 0 15,5 C 22,2 C 0,0 km/h (0 Bft) 100,00 %
19.07.2019 08:59 24,7 C 22,2 C 54 % 67 % 1016,4 hPa 0,0 l/m 0,0 km/h (0 Bft) N 0 15,8 C 22,2 C 0,0 km/h (0 Bft) 100,00 %
19.07.2019 08:58 24,7 C 22,1 C 54 % 67 % 1016,4 hPa 0,0 l/m 0,0 km/h (0 Bft) O-SO 112 15,7 C 22,1 C 1,6 km/h (1 Bft) 100,00 %
19.07.2019 08:57 24,7 C 22,1 C 54 % 68 % 1016,3 hPa 0,0 l/m 1,6 km/h (1 Bft) O 90 15,9 C 22,1 C 1,6 km/h (1 Bft) 95,65 %
19.07.2019 08:56 24,7 C 22,0 C 54 % 70 % 1016,3 hPa 0,0 l/m 1,6 km/h (1 Bft) O 90 16,3 C 22,0 C 3,2 km/h (1 Bft) 100,00 %
19.07.2019 08:55 24,7 C 21,9 C 54 % 70 % 1016,3 hPa 0,0 l/m 0,0 km/h (0 Bft) S 180 16,2 C 21,9 C 1,6 km/h (1 Bft) 95,65 %
19.07.2019 08:54 24,7 C 21,9 C 54 % 71 % 1016,3 hPa 0,0 l/m 0,0 km/h (0 Bft) N 0 16,4 C 21,9 C 0,0 km/h (0 Bft) 100,00 %
19.07.2019 08:53 24,7 C 21,8 C 54 % 67 % 1016,3 hPa 0,0 l/m 0,0 km/h (0 Bft) N 0 15,4 C 21,8 C 0,0 km/h (0 Bft) 100,00 %
19.07.2019 08:52 24,7 C 21,7 C 54 % 67 % 1016,3 hPa 0,0 l/m 0,0 km/h (0 Bft) S 180 15,3 C 21,7 C 1,6 km/h (1 Bft) 100,00 %
19.07.2019 08:51 24,7 C 21,7 C 54 % 68 % 1016,4 hPa 0,0 l/m 1,6 km/h (1 Bft) S 180 15,5 C 21,7 C 3,2 km/h (1 Bft) 100,00 %
19.07.2019 08:50 24,7 C 21,7 C 54 % 68 % 1016,3 hPa 0,0 l/m 0,0 km/h (0 Bft) N 0 15,5 C 21,7 C 0,0 km/h (0 Bft) 95,65 %
19.07.2019 08:49 24,7 C 21,6 C 54 % 68 % 1016,3 hPa 0,0 l/m 0,0 km/h (0 Bft) N 0 15,4 C 21,6 C 0,0 km/h (0 Bft) 100,00 %
19.07.2019 08:48 24,6 C 21,5 C 54 % 69 % 1016,3 hPa 0,0 l/m 1,6 km/h (1 Bft) S 180 15,6 C 21,5 C 3,2 km/h (1 Bft) 100,00 %
19.07.2019 08:47 24,7 C 21,4 C 54 % 70 % 1016,4 hPa 0,0 l/m 0,0 km/h (0 Bft) N 0 15,7 C 21,4 C 0,0 km/h (0 Bft) 100,00 %
19.07.2019 08:46 24,6 C 21,4 C 54 % 70 % 1016,3 hPa 0,0 l/m 0,0 km/h (0 Bft) O-NO 67 15,7 C 21,4 C 1,6 km/h (1 Bft) 100,00 %
19.07.2019 08:45 24,6 C 21,4 C 54 % 69 % 1016,3 hPa 0,0 l/m 1,6 km/h (1 Bft) O-NO 67 15,5 C 21,4 C 3,2 km/h (1 Bft) 95,65 %
19.07.2019 08:44 24,6 C 21,4 C 54 % 70 % 1016,3 hPa 0,0 l/m 1,6 km/h (1 Bft) O-NO 67 15,7 C 21,4 C 3,2 km/h (1 Bft) 100,00 %
19.07.2019 08:43 24,6 C 21,4 C 54 % 70 % 1016,3 hPa 0,0 l/m 1,6 km/h (1 Bft) O-NO 67 15,7 C 21,4 C 1,6 km/h (1 Bft) 100,00 %
19.07.2019 08:42 24,6 C 21,5 C 54 % 71 % 1016,2 hPa 0,0 l/m 1,6 km/h (1 Bft) O-NO 67 16,0 C 21,5 C 3,2 km/h (1 Bft) 100,00 %
19.07.2019 08:41 24,6 C 21,4 C 54 % 71 % 1016,3 hPa 0,0 l/m 0,0 km/h (0 Bft) N-NW 337 15,9 C 21,4 C 1,6 km/h (1 Bft) 100,00 %
19.07.2019 08:40 24,6 C 21,4 C 54 % 71 % 1016,3 hPa 0,0 l/m 0,0 km/h (0 Bft) N-NW 337 15,9 C 21,4 C 1,6 km/h (1 Bft) 100,00 %
19.07.2019 08:39 24,6 C 21,4 C 54 % 72 % 1016,3 hPa 0,0 l/m 1,6 km/h (1 Bft) W-NW 292 16,1 C 21,4 C 1,6 km/h (1 Bft) 100,00 %
19.07.2019 08:38 24,6 C 21,3 C 54 % 71 % 1016,3 hPa 0,0 l/m 0,0 km/h (0 Bft) O 90 15,8 C 21,3 C 1,6 km/h (1 Bft) 100,00 %
19.07.2019 08:37 24,6 C 21,3 C 54 % 70 % 1016,4 hPa 0,0 l/m 0,0 km/h (0 Bft) N 0 15,6 C 21,3 C 0,0 km/h (0 Bft) 100,00 %
19.07.2019 08:36 24,6 C 21,3 C 54 % 69 % 1016,3 hPa 0,0 l/m 0,0 km/h (0 Bft) N 0 15,4 C 21,3 C 0,0 km/h (0 Bft) 100,00 %
19.07.2019 08:35 24,6 C 21,3 C 54 % 69 % 1016,3 hPa 0,0 l/m 1,6 km/h (1 Bft) O 90 15,4 C 21,3 C 1,6 km/h (1 Bft) 95,65 %
19.07.2019 08:34 24,6 C 21,4 C 54 % 71 % 1016,2 hPa 0,0 l/m 1,6 km/h (1 Bft) O 90 15,9 C 21,4 C 1,6 km/h (1 Bft) 95,65 %
19.07.2019 08:33 24,6 C 21,4 C 54 % 71 % 1016,2 hPa 0,0 l/m 0,0 km/h (0 Bft) O 90 15,9 C 21,4 C 1,6 km/h (1 Bft) 95,65 %
19.07.2019 08:32 24,6 C 21,4 C 54 % 72 % 1016,2 hPa 0,0 l/m 1,6 km/h (1 Bft) O 90 16,1 C 21,4 C 3,2 km/h (1 Bft) 100,00 %
19.07.2019 08:31 24,6 C 21,4 C 54 % 70 % 1016,3 hPa 0,0 l/m 1,6 km/h (1 Bft) O-SO 112 15,7 C 21,4 C 1,6 km/h (1 Bft) 100,00 %
19.07.2019 08:30 24,6 C 21,5 C 54 % 71 % 1016,3 hPa 0,0 l/m 1,6 km/h (1 Bft) SO 135 16,0 C 21,5 C 1,6 km/h (1 Bft) 100,00 %
19.07.2019 08:29 24,6 C 21,6 C 54 % 72 % 1016,3 hPa 0,0 l/m 1,6 km/h (1 Bft) SO 135 16,3 C 21,6 C 1,6 km/h (1 Bft) 91,30 %
19.07.2019 08:28 24,6 C 21,5 C 54 % 71 % 1016,2 hPa 0,0 l/m 0,0 km/h (0 Bft) SO 135 16,0 C 21,5 C 1,6 km/h (1 Bft) 95,65 %
19.07.2019 08:27 24,6 C 21,4 C 54 % 72 % 1016,2 hPa 0,0 l/m 0,0 km/h (0 Bft) SO 135 16,1 C 21,4 C 1,6 km/h (1 Bft) 100,00 %
19.07.2019 08:26 24,6 C 21,3 C 54 % 72 % 1016,1 hPa 0,0 l/m 0,0 km/h (0 Bft) N 0 16,0 C 21,3 C 0,0 km/h (0 Bft) 95,65 %
19.07.2019 08:25 24,6 C 21,2 C 54 % 72 % 1016,1 hPa 0,0 l/m 0,0 km/h (0 Bft) N 0 15,9 C 21,2 C 0,0 km/h (0 Bft) 100,00 %
19.07.2019 08:24 24,6 C 21,1 C 54 % 72 % 1016,1 hPa 0,0 l/m 0,0 km/h (0 Bft) S-SO 157 15,8 C 21,1 C 1,6 km/h (1 Bft) 100,00 %
19.07.2019 08:23 24,6 C 21,0 C 54 % 72 % 1016,2 hPa 0,0 l/m 0,0 km/h (0 Bft) S-SO 157 15,8 C 21,0 C 1,6 km/h (1 Bft) 100,00 %
19.07.2019 08:22 24,5 C 20,9 C 54 % 72 % 1016,1 hPa 0,0 l/m 0,0 km/h (0 Bft) N 0 15,7 C 20,9 C 0,0 km/h (0 Bft) 100,00 %
19.07.2019 08:21 24,5 C 20,8 C 54 % 72 % 1016,2 hPa 0,0 l/m 0,0 km/h (0 Bft) N 0 15,6 C 20,8 C 0,0 km/h (0 Bft) 100,00 %
19.07.2019 08:20 24,5 C 20,8 C 54 % 71 % 1016,2 hPa 0,0 l/m 1,6 km/h (1 Bft) S 180 15,3 C 20,8 C 3,2 km/h (1 Bft) 100,00 %
19.07.2019 08:19 24,5 C 20,8 C 54 % 72 % 1016,2 hPa 0,0 l/m 0,0 km/h (0 Bft) N 0 15,6 C 20,8 C 0,0 km/h (0 Bft) 100,00 %
19.07.2019 08:18 24,5 C 20,7 C 54 % 73 % 1016,2 hPa 0,0 l/m 0,0 km/h (0 Bft) S-SO 157 15,7 C 20,7 C 1,6 km/h (1 Bft) 100,00 %
19.07.2019 08:17 24,5 C 20,7 C 54 % 75 % 1016,3 hPa 0,0 l/m 1,6 km/h (1 Bft) S 180 16,1 C 20,7 C 1,6 km/h (1 Bft) 95,65 %
19.07.2019 08:16 24,5 C 20,7 C 54 % 74 % 1016,2 hPa 0,0 l/m 1,6 km/h (1 Bft) O-NO 67 15,9 C 20,7 C 3,2 km/h (1 Bft) 100,00 %
19.07.2019 08:15 24,5 C 20,6 C 54 % 74 % 1016,2 hPa 0,0 l/m 0,0 km/h (0 Bft) S-SO 157 15,8 C 20,6 C 1,6 km/h (1 Bft) 100,00 %
19.07.2019 08:14 24,5 C 20,5 C 54 % 74 % 1016,1 hPa 0,0 l/m 0,0 km/h (0 Bft) N 0 15,7 C 20,5 C 0,0 km/h (0 Bft) 100,00 %
19.07.2019 08:13 24,5 C 20,4 C 54 % 73 % 1016,1 hPa 0,0 l/m 0,0 km/h (0 Bft) N 0 15,4 C 20,4 C 0,0 km/h (0 Bft) 86,96 %
19.07.2019 08:12 24,6 C 20,3 C 54 % 73 % 1016,2 hPa 0,0 l/m 0,0 km/h (0 Bft) N 0 15,3 C 20,3 C 0,0 km/h (0 Bft) 100,00 %
19.07.2019 08:11 24,5 C 20,3 C 54 % 73 % 1016,1 hPa 0,0 l/m 0,0 km/h (0 Bft) N 0 15,3 C 20,3 C 0,0 km/h (0 Bft) 100,00 %
19.07.2019 08:10 24,5 C 20,2 C 54 % 74 % 1016,2 hPa 0,0 l/m 0,0 km/h (0 Bft) N 0 15,4 C 20,2 C 0,0 km/h (0 Bft) 86,96 %
19.07.2019 08:09 24,6 C 20,1 C 54 % 76 % 1016,2 hPa 0,0 l/m 0,0 km/h (0 Bft) O 90 15,7 C 20,1 C 1,6 km/h (1 Bft) 91,30 %
19.07.2019 08:08 24,6 C 20,1 C 54 % 76 % 1016,2 hPa 0,0 l/m 0,0 km/h (0 Bft) N 0 15,7 C 20,1 C 0,0 km/h (0 Bft) 95,65 %
19.07.2019 08:07 24,6 C 19,9 C 54 % 75 % 1016,2 hPa 0,0 l/m 0,0 km/h (0 Bft) N 0 15,3 C 19,9 C 0,0 km/h (0 Bft) 95,65 %
19.07.2019 08:06 24,6 C 19,9 C 54 % 76 % 1016,1 hPa 0,0 l/m 0,0 km/h (0 Bft) N 0 15,5 C 19,9 C 0,0 km/h (0 Bft) 100,00 %
19.07.2019 08:05 24,6 C 19,8 C 54 % 76 % 1016,1 hPa 0,0 l/m 0,0 km/h (0 Bft) O 90 15,4 C 19,8 C 1,6 km/h (1 Bft) 95,65 %
19.07.2019 08:04 24,6 C 19,7 C 54 % 76 % 1016,2 hPa 0,0 l/m 0,0 km/h (0 Bft) N 0 15,3 C 19,7 C 0,0 km/h (0 Bft) 100,00 %
19.07.2019 08:03 24,6 C 19,7 C 54 % 76 % 1016,2 hPa 0,0 l/m 1,6 km/h (1 Bft) O 90 15,3 C 19,7 C 1,6 km/h (1 Bft) 100,00 %
19.07.2019 08:02 24,6 C 19,7 C 54 % 77 % 1016,2 hPa 0,0 l/m 1,6 km/h (1 Bft) O 90 15,5 C 19,7 C 3,2 km/h (1 Bft) 95,65 %
19.07.2019 08:01 24,7 C 19,8 C 54 % 77 % 1016,2 hPa 0,0 l/m 1,6 km/h (1 Bft) O 90 15,6 C 19,8 C 3,2 km/h (1 Bft) 100,00 %
19.07.2019 08:00 24,6 C 19,7 C 54 % 78 % 1016,2 hPa 0,0 l/m 1,6 km/h (1 Bft) O 90 15,8 C 19,7 C 1,6 km/h (1 Bft) 100,00 %
19.07.2019 07:59 24,6 C 19,6 C 54 % 78 % 1016,2 hPa 0,0 l/m 0,0 km/h (0 Bft) N 0 15,7 C 19,6 C 0,0 km/h (0 Bft) 100,00 %
19.07.2019 07:58 24,7 C 19,4 C 54 % 79 % 1016,2 hPa 0,0 l/m 0,0 km/h (0 Bft) N 0 15,7 C 19,4 C 0,0 km/h (0 Bft) 100,00 %
19.07.2019 07:57 24,7 C 19,2 C 54 % 80 % 1016,1 hPa 0,0 l/m 0,0 km/h (0 Bft) O 90 15,7 C 19,2 C 1,6 km/h (1 Bft) 95,65 %
19.07.2019 07:56 24,7 C 19,1 C 54 % 80 % 1016,2 hPa 0,0 l/m 0,0 km/h (0 Bft) O 90 15,6 C 19,1 C 1,6 km/h (1 Bft) 100,00 %
19.07.2019 07:55 24,7 C 18,9 C 54 % 80 % 1016,1 hPa 0,0 l/m 0,0 km/h (0 Bft) O 90 15,4 C 18,9 C 1,6 km/h (1 Bft) 100,00 %
19.07.2019 07:54 24,7 C 18,8 C 54 % 80 % 1016,1 hPa 0,0 l/m 0,0 km/h (0 Bft) N 0 15,3 C 18,8 C 0,0 km/h (0 Bft) 100,00 %
19.07.2019 07:53 24,7 C 18,7 C 54 % 81 % 1016,1 hPa 0,0 l/m 0,0 km/h (0 Bft) O 90 15,4 C 18,7 C 1,6 km/h (1 Bft) 100,00 %
19.07.2019 07:52 24,7 C 18,6 C 54 % 81 % 1016,2 hPa 0,0 l/m 0,0 km/h (0 Bft) O 90 15,3 C 18,6 C 1,6 km/h (1 Bft) 100,00 %
19.07.2019 07:51 24,7 C 18,5 C 54 % 81 % 1016,2 hPa 0,0 l/m 0,0 km/h (0 Bft) O-NO 67 15,2 C 18,5 C 1,6 km/h (1 Bft) 100,00 %
19.07.2019 07:50 24,7 C 18,4 C 54 % 81 % 1016,2 hPa 0,0 l/m 3,2 km/h (1 Bft) O-NO 67 15,1 C 18,4 C 3,2 km/h (1 Bft) 100,00 %
19.07.2019 07:49 24,8 C 18,4 C 54 % 82 % 1016,2 hPa 0,0 l/m 3,2 km/h (1 Bft) O-NO 67 15,3 C 18,4 C 3,2 km/h (1 Bft) 100,00 %
19.07.2019 07:48 24,8 C 18,3 C 53 % 83 % 1016,2 hPa 0,0 l/m 1,6 km/h (1 Bft) O 90 15,4 C 18,3 C 1,6 km/h (1 Bft) 100,00 %
19.07.2019 07:47 24,8 C 18,2 C 53 % 83 % 1016,2 hPa 0,0 l/m 1,6 km/h (1 Bft) O 90 15,3 C 18,2 C 1,6 km/h (1 Bft) 100,00 %
19.07.2019 07:46 24,8 C 18,2 C 53 % 83 % 1016,3 hPa 0,0 l/m 1,6 km/h (1 Bft) O 90 15,3 C 18,2 C 1,6 km/h (1 Bft) 100,00 %
19.07.2019 07:45 24,9 C 18,1 C 53 % 83 % 1016,2 hPa 0,0 l/m 1,6 km/h (1 Bft) O 90 15,2 C 18,1 C 3,2 km/h (1 Bft) 95,65 %
19.07.2019 07:44 24,9 C 17,9 C 53 % 82 % 1016,2 hPa 0,0 l/m 3,2 km/h (1 Bft) S 180 14,8 C 17,9 C 3,2 km/h (1 Bft) 100,00 %
19.07.2019 07:43 25,0 C 17,9 C 53 % 83 % 1016,2 hPa 0,0 l/m 0,0 km/h (0 Bft) S 180 15,0 C 17,9 C 1,6 km/h (1 Bft) 100,00 %
19.07.2019 07:42 25,1 C 17,9 C 54 % 82 % 1016,0 hPa 0,0 l/m 0,0 km/h (0 Bft) S 180 14,8 C 17,9 C 1,6 km/h (1 Bft) 100,00 %
19.07.2019 07:41 25,1 C 17,8 C 55 % 82 % 1016,0 hPa 0,0 l/m 0,0 km/h (0 Bft) S 180 14,7 C 17,8 C 1,6 km/h (1 Bft) 100,00 %
19.07.2019 07:40 25,1 C 17,7 C 55 % 82 % 1016,0 hPa 0,0 l/m 0,0 km/h (0 Bft) S 180 14,6 C 17,7 C 1,6 km/h (1 Bft) 100,00 %
19.07.2019 07:39 25,1 C 17,7 C 56 % 83 % 1015,9 hPa 0,0 l/m 0,0 km/h (0 Bft) S 180 14,8 C 17,7 C 1,6 km/h (1 Bft) 100,00 %
19.07.2019 07:38 25,1 C 17,6 C 56 % 83 % 1015,9 hPa 0,0 l/m 0,0 km/h (0 Bft) N 0 14,7 C 17,6 C 0,0 km/h (0 Bft) 95,65 %
19.07.2019 07:37 25,1 C 17,4 C 57 % 83 % 1015,9 hPa 0,0 l/m 0,0 km/h (0 Bft) N 0 14,5 C 17,4 C 0,0 km/h (0 Bft) 100,00 %
19.07.2019 07:36 25,1 C 17,3 C 57 % 83 % 1015,9 hPa 0,0 l/m 0,0 km/h (0 Bft) N 0 14,4 C 17,3 C 0,0 km/h (0 Bft) 100,00 %
19.07.2019 07:35 25,1 C 17,2 C 57 % 82 % 1015,8 hPa 0,0 l/m 0,0 km/h (0 Bft) N 0 14,1 C 17,2 C 0,0 km/h (0 Bft) 100,00 %
19.07.2019 07:34 25,1 C 17,1 C 57 % 82 % 1015,9 hPa 0,0 l/m 1,6 km/h (1 Bft) S 180 14,0 C 17,1 C 3,2 km/h (1 Bft) 100,00 %
19.07.2019 07:33 25,1 C 17,1 C 57 % 83 % 1015,8 hPa 0,0 l/m 0,0 km/h (0 Bft) S 180 14,2 C 17,1 C 1,6 km/h (1 Bft) 95,65 %
19.07.2019 07:32 25,1 C 17,0 C 57 % 83 % 1015,8 hPa 0,0 l/m 0,0 km/h (0 Bft) S 180 14,1 C 17,0 C 1,6 km/h (1 Bft) 100,00 %
19.07.2019 07:31 25,1 C 16,9 C 57 % 84 % 1015,8 hPa 0,0 l/m 0,0 km/h (0 Bft) S 180 14,2 C 16,9 C 1,6 km/h (1 Bft) 100,00 %
19.07.2019 07:30 25,1 C 16,8 C 57 % 84 % 1015,9 hPa 0,0 l/m 1,6 km/h (1 Bft) S 180 14,1 C 16,8 C 1,6 km/h (1 Bft) 100,00 %
19.07.2019 07:29 25,1 C 16,7 C 57 % 84 % 1015,9 hPa 0,0 l/m 0,0 km/h (0 Bft) N 0 14,0 C 16,7 C 0,0 km/h (0 Bft) 100,00 %
19.07.2019 07:28 25,1 C 16,7 C 57 % 85 % 1015,8 hPa 0,0 l/m 0,0 km/h (0 Bft) N 0 14,2 C 16,7 C 0,0 km/h (0 Bft) 100,00 %
19.07.2019 07:27 25,1 C 16,6 C 57 % 86 % 1015,8 hPa 0,0 l/m 0,0 km/h (0 Bft) N 0 14,2 C 16,6 C 0,0 km/h (0 Bft) 100,00 %
19.07.2019 07:26 25,1 C 16,6 C 57 % 86 % 1015,8 hPa 0,0 l/m 0,0 km/h (0 Bft) N 0 14,2 C 16,6 C 0,0 km/h (0 Bft) 100,00 %
19.07.2019 07:25 25,1 C 16,5 C 57 % 86 % 1015,8 hPa 0,0 l/m 0,0 km/h (0 Bft) N 0 14,1 C 16,5 C 0,0 km/h (0 Bft) 100,00 %
19.07.2019 07:24 25,1 C 16,4 C 57 % 87 % 1015,8 hPa 0,0 l/m 0,0 km/h (0 Bft) N 0 14,2 C 16,4 C 0,0 km/h (0 Bft) 100,00 %
19.07.2019 07:23 25,1 C 16,4 C 57 % 87 % 1015,8 hPa 0,0 l/m 0,0 km/h (0 Bft) N 0 14,2 C 16,4 C 0,0 km/h (0 Bft) 100,00 %
19.07.2019 07:22 25,1 C 16,4 C 57 % 87 % 1015,8 hPa 0,0 l/m 0,0 km/h (0 Bft) N 0 14,2 C 16,4 C 0,0 km/h (0 Bft) 95,65 %
19.07.2019 07:21 25,1 C 16,3 C 57 % 87 % 1015,8 hPa 0,0 l/m 0,0 km/h (0 Bft) N 0 14,1 C 16,3 C 0,0 km/h (0 Bft) 95,65 %
19.07.2019 07:20 25,1 C 16,3 C 57 % 88 % 1015,8 hPa 0,0 l/m 0,0 km/h (0 Bft) N 0 14,3 C 16,3 C 0,0 km/h (0 Bft) 100,00 %
19.07.2019 07:19 25,1 C 16,3 C 57 % 88 % 1015,8 hPa 0,0 l/m 0,0 km/h (0 Bft) N 0 14,3 C 16,3 C 0,0 km/h (0 Bft) 100,00 %
19.07.2019 07:18 25,1 C 16,3 C 57 % 88 % 1015,8 hPa 0,0 l/m 0,0 km/h (0 Bft) N 0 14,3 C 16,3 C 0,0 km/h (0 Bft) 100,00 %
19.07.2019 07:17 25,1 C 16,3 C 57 % 88 % 1015,8 hPa 0,0 l/m 0,0 km/h (0 Bft) N 0 14,3 C 16,3 C 0,0 km/h (0 Bft) 100,00 %
19.07.2019 07:16 25,1 C 16,2 C 57 % 88 % 1015,8 hPa 0,0 l/m 0,0 km/h (0 Bft) N 0 14,2 C 16,2 C 0,0 km/h (0 Bft) 100,00 %
19.07.2019 07:15 25,1 C 16,2 C 57 % 87 % 1015,8 hPa 0,0 l/m 0,0 km/h (0 Bft) N 0 14,0 C 16,2 C 0,0 km/h (0 Bft) 100,00 %
19.07.2019 07:14 25,1 C 16,1 C 57 % 87 % 1015,8 hPa 0,0 l/m 0,0 km/h (0 Bft) N 0 13,9 C 16,1 C 0,0 km/h (0 Bft) 100,00 %
19.07.2019 07:13 25,1 C 16,1 C 57 % 87 % 1015,8 hPa 0,0 l/m 0,0 km/h (0 Bft) N 0 13,9 C 16,1 C 0,0 km/h (0 Bft) 100,00 %
19.07.2019 07:12 25,1 C 16,1 C 57 % 87 % 1015,8 hPa 0,0 l/m 0,0 km/h (0 Bft) N 0 13,9 C 16,1 C 0,0 km/h (0 Bft) 100,00 %
19.07.2019 07:11 25,1 C 16,1 C 57 % 87 % 1015,8 hPa 0,0 l/m 0,0 km/h (0 Bft) N 0 13,9 C 16,1 C 0,0 km/h (0 Bft) 100,00 %
19.07.2019 07:10 25,1 C 16,0 C 57 % 87 % 1015,8 hPa 0,0 l/m 0,0 km/h (0 Bft) N 0 13,8 C 16,0 C 0,0 km/h (0 Bft) 100,00 %
19.07.2019 07:09 25,1 C 16,0 C 57 % 88 % 1015,8 hPa 0,0 l/m 0,0 km/h (0 Bft) N 0 14,0 C 16,0 C 0,0 km/h (0 Bft) 95,65 %
19.07.2019 07:08 25,1 C 15,9 C 57 % 87 % 1015,8 hPa 0,0 l/m 0,0 km/h (0 Bft) N 0 13,7 C 15,9 C 0,0 km/h (0 Bft) 100,00 %
19.07.2019 07:07 25,1 C 15,9 C 57 % 88 % 1015,7 hPa 0,0 l/m 0,0 km/h (0 Bft) N 0 13,9 C 15,9 C 0,0 km/h (0 Bft) 100,00 %
19.07.2019 07:06 25,1 C 15,9 C 57 % 88 % 1015,7 hPa 0,0 l/m 0,0 km/h (0 Bft) N 0 13,9 C 15,9 C 0,0 km/h (0 Bft) 100,00 %
19.07.2019 07:05 25,1 C 15,8 C 57 % 87 % 1015,8 hPa 0,0 l/m 0,0 km/h (0 Bft) N 0 13,6 C 15,8 C 0,0 km/h (0 Bft) 100,00 %
19.07.2019 07:04 25,1 C 15,8 C 56 % 88 % 1015,7 hPa 0,0 l/m 0,0 km/h (0 Bft) N 0 13,8 C 15,8 C 0,0 km/h (0 Bft) 100,00 %
19.07.2019 07:03 25,1 C 15,8 C 56 % 88 % 1015,7 hPa 0,0 l/m 0,0 km/h (0 Bft) N 0 13,8 C 15,8 C 0,0 km/h (0 Bft) 100,00 %
19.07.2019 07:02 25,1 C 15,7 C 56 % 88 % 1015,7 hPa 0,0 l/m 0,0 km/h (0 Bft) N 0 13,7 C 15,7 C 0,0 km/h (0 Bft) 100,00 %
19.07.2019 07:01 25,1 C 15,7 C 56 % 88 % 1015,7 hPa 0,0 l/m 0,0 km/h (0 Bft) N 0 13,7 C 15,7 C 0,0 km/h (0 Bft) 100,00 %
19.07.2019 07:00 25,1 C 15,7 C 56 % 88 % 1015,7 hPa 0,0 l/m 0,0 km/h (0 Bft) N 0 13,7 C 15,7 C 0,0 km/h (0 Bft) 100,00 %
19.07.2019 06:59 25,1 C 15,6 C 56 % 88 % 1015,7 hPa 0,0 l/m 0,0 km/h (0 Bft) N 0 13,6 C 15,6 C 0,0 km/h (0 Bft) 100,00 %
19.07.2019 06:58 25,1 C 15,6 C 56 % 88 % 1015,6 hPa 0,0 l/m 0,0 km/h (0 Bft) N 0 13,6 C 15,6 C 0,0 km/h (0 Bft) 100,00 %
19.07.2019 06:57 25,1 C 15,6 C 56 % 88 % 1015,6 hPa 0,0 l/m 0,0 km/h (0 Bft) N 0 13,6 C 15,6 C 0,0 km/h (0 Bft) 100,00 %
19.07.2019 06:56 25,1 C 15,5 C 56 % 89 % 1015,7 hPa 0,0 l/m 0,0 km/h (0 Bft) N 0 13,7 C 15,5 C 0,0 km/h (0 Bft) 100,00 %
19.07.2019 06:55 25,1 C 15,4 C 56 % 89 % 1015,6 hPa 0,0 l/m 0,0 km/h (0 Bft) N 0 13,6 C 15,4 C 0,0 km/h (0 Bft) 100,00 %
19.07.2019 06:54 25,1 C 15,4 C 56 % 89 % 1015,7 hPa 0,0 l/m 0,0 km/h (0 Bft) N 0 13,6 C 15,4 C 0,0 km/h (0 Bft) 100,00 %
19.07.2019 06:53 25,1 C 15,3 C 56 % 89 % 1015,7 hPa 0,0 l/m 0,0 km/h (0 Bft) N 0 13,5 C 15,3 C 0,0 km/h (0 Bft) 100,00 %
19.07.2019 06:52 25,1 C 15,3 C 56 % 89 % 1015,6 hPa 0,0 l/m 0,0 km/h (0 Bft) N 0 13,5 C 15,3 C 0,0 km/h (0 Bft) 95,65 %
19.07.2019 06:51 25,1 C 15,3 C 56 % 90 % 1015,6 hPa 0,0 l/m 0,0 km/h (0 Bft) N 0 13,7 C 15,3 C 0,0 km/h (0 Bft) 100,00 %
19.07.2019 06:50 25,1 C 15,3 C 56 % 90 % 1015,7 hPa 0,0 l/m 0,0 km/h (0 Bft) N 0 13,7 C 15,3 C 0,0 km/h (0 Bft) 95,65 %
19.07.2019 06:49 25,1 C 15,2 C 56 % 90 % 1015,6 hPa 0,0 l/m 0,0 km/h (0 Bft) N 0 13,6 C 15,2 C 0,0 km/h (0 Bft) 100,00 %
19.07.2019 06:48 25,1 C 15,2 C 56 % 90 % 1015,6 hPa 0,0 l/m 0,0 km/h (0 Bft) N 0 13,6 C 15,2 C 0,0 km/h (0 Bft) 95,65 %
19.07.2019 06:47 25,1 C 15,2 C 56 % 90 % 1015,6 hPa 0,0 l/m 0,0 km/h (0 Bft) N 0 13,6 C 15,2 C 0,0 km/h (0 Bft) 100,00 %
19.07.2019 06:46 25,1 C 15,1 C 56 % 90 % 1015,7 hPa 0,0 l/m 0,0 km/h (0 Bft) N 0 13,5 C 15,1 C 0,0 km/h (0 Bft) 95,65 %
19.07.2019 06:45 25,1 C 15,1 C 56 % 90 % 1015,6 hPa 0,0 l/m 1,6 km/h (1 Bft) S 180 13,5 C 15,1 C 1,6 km/h (1 Bft) 100,00 %
19.07.2019 06:44 25,1 C 15,1 C 56 % 91 % 1015,6 hPa 0,0 l/m 0,0 km/h (0 Bft) S 180 13,6 C 15,1 C 1,6 km/h (1 Bft) 100,00 %
19.07.2019 06:43 25,1 C 15,0 C 56 % 91 % 1015,6 hPa 0,0 l/m 0,0 km/h (0 Bft) N 0 13,5 C 15,0 C 0,0 km/h (0 Bft) 100,00 %
19.07.2019 06:42 25,1 C 14,9 C 57 % 91 % 1015,5 hPa 0,0 l/m 0,0 km/h (0 Bft) N 0 13,4 C 14,9 C 0,0 km/h (0 Bft) 100,00 %
19.07.2019 06:41 25,1 C 14,9 C 57 % 91 % 1015,5 hPa 0,0 l/m 0,0 km/h (0 Bft) N 0 13,4 C 14,9 C 0,0 km/h (0 Bft) 100,00 %
19.07.2019 06:40 25,1 C 14,8 C 57 % 91 % 1015,5 hPa 0,0 l/m 0,0 km/h (0 Bft) N 0 13,3 C 14,8 C 0,0 km/h (0 Bft) 100,00 %
19.07.2019 06:39 25,1 C 14,8 C 57 % 91 % 1015,5 hPa 0,0 l/m 0,0 km/h (0 Bft) S 180 13,3 C 14,8 C 1,6 km/h (1 Bft) 100,00 %
19.07.2019 06:38 25,1 C 14,8 C 57 % 92 % 1015,6 hPa 0,0 l/m 0,0 km/h (0 Bft) N 0 13,5 C 14,8 C 0,0 km/h (0 Bft) 100,00 %
19.07.2019 06:37 25,1 C 14,7 C 57 % 92 % 1015,5 hPa 0,0 l/m 0,0 km/h (0 Bft) N 0 13,4 C 14,7 C 0,0 km/h (0 Bft) 100,00 %
19.07.2019 06:36 25,1 C 14,7 C 57 % 92 % 1015,5 hPa 0,0 l/m 0,0 km/h (0 Bft) N 0 13,4 C 14,7 C 0,0 km/h (0 Bft) 95,65 %
19.07.2019 06:35 25,1 C 14,6 C 57 % 92 % 1015,6 hPa 0,0 l/m 0,0 km/h (0 Bft) N 0 13,3 C 14,6 C 0,0 km/h (0 Bft) 100,00 %
19.07.2019 06:34 25,1 C 14,6 C 57 % 93 % 1015,6 hPa 0,0 l/m 0,0 km/h (0 Bft) N 0 13,5 C 14,6 C 0,0 km/h (0 Bft) 95,65 %
19.07.2019 06:33 25,1 C 14,5 C 57 % 93 % 1015,5 hPa 0,0 l/m 0,0 km/h (0 Bft) N 0 13,4 C 14,5 C 0,0 km/h (0 Bft) 100,00 %
19.07.2019 06:32 25,1 C 14,4 C 57 % 93 % 1015,6 hPa 0,0 l/m 0,0 km/h (0 Bft) N 0 13,3 C 14,4 C 0,0 km/h (0 Bft) 100,00 %
19.07.2019 06:31 25,1 C 14,4 C 57 % 93 % 1015,5 hPa 0,0 l/m 0,0 km/h (0 Bft) N 0 13,3 C 14,4 C 0,0 km/h (0 Bft) 95,65 %
19.07.2019 06:30 25,1 C 14,3 C 57 % 93 % 1015,6 hPa 0,0 l/m 0,0 km/h (0 Bft) N 0 13,2 C 14,3 C 0,0 km/h (0 Bft) 100,00 %
19.07.2019 06:29 25,1 C 14,3 C 57 % 93 % 1015,5 hPa 0,0 l/m 0,0 km/h (0 Bft) N 0 13,2 C 14,3 C 0,0 km/h (0 Bft) 100,00 %
19.07.2019 06:28 25,1 C 14,2 C 57 % 93 % 1015,5 hPa 0,0 l/m 0,0 km/h (0 Bft) N 0 13,1 C 14,2 C 0,0 km/h (0 Bft) 95,65 %
19.07.2019 06:27 25,1 C 14,1 C 57 % 93 % 1015,6 hPa 0,0 l/m 0,0 km/h (0 Bft) N 0 13,0 C 14,1 C 0,0 km/h (0 Bft) 95,65 %
19.07.2019 06:26 25,1 C 14,0 C 57 % 93 % 1015,6 hPa 0,0 l/m 0,0 km/h (0 Bft) N 0 12,9 C 14,0 C 0,0 km/h (0 Bft) 100,00 %
19.07.2019 06:25 25,1 C 13,9 C 57 % 93 % 1015,5 hPa 0,0 l/m 0,0 km/h (0 Bft) N 0 12,8 C 13,9 C 0,0 km/h (0 Bft) 100,00 %
19.07.2019 06:24 25,1 C 13,9 C 57 % 93 % 1015,6 hPa 0,0 l/m 0,0 km/h (0 Bft) N 0 12,8 C 13,9 C 0,0 km/h (0 Bft) 100,00 %
19.07.2019 06:23 25,0 C 13,8 C 57 % 93 % 1015,6 hPa 0,0 l/m 0,0 km/h (0 Bft) N 0 12,7 C 13,8 C 0,0 km/h (0 Bft) 100,00 %
19.07.2019 06:22 25,0 C 13,8 C 57 % 93 % 1015,6 hPa 0,0 l/m 0,0 km/h (0 Bft) N 0 12,7 C 13,8 C 0,0 km/h (0 Bft) 100,00 %
19.07.2019 06:21 25,0 C 13,7 C 57 % 93 % 1015,5 hPa 0,0 l/m 0,0 km/h (0 Bft) N 0 12,6 C 13,7 C 0,0 km/h (0 Bft) 100,00 %
19.07.2019 06:20 25,0 C 13,7 C 57 % 93 % 1015,6 hPa 0,0 l/m 0,0 km/h (0 Bft) N 0 12,6 C 13,7 C 0,0 km/h (0 Bft) 100,00 %
19.07.2019 06:19 25,0 C 13,7 C 57 % 93 % 1015,5 hPa 0,0 l/m 0,0 km/h (0 Bft) N 0 12,6 C 13,7 C 0,0 km/h (0 Bft) 100,00 %
19.07.2019 06:18 25,0 C 13,6 C 57 % 93 % 1015,6 hPa 0,0 l/m 0,0 km/h (0 Bft) N 0 12,5 C 13,6 C 0,0 km/h (0 Bft) 100,00 %
19.07.2019 06:17 25,0 C 13,6 C 57 % 93 % 1015,6 hPa 0,0 l/m 0,0 km/h (0 Bft) N 0 12,5 C 13,6 C 0,0 km/h (0 Bft) 95,65 %
19.07.2019 06:16 25,0 C 13,6 C 57 % 93 % 1015,6 hPa 0,0 l/m 0,0 km/h (0 Bft) N 0 12,5 C 13,6 C 0,0 km/h (0 Bft) 100,00 %
19.07.2019 06:15 24,9 C 13,6 C 57 % 93 % 1015,5 hPa 0,0 l/m 0,0 km/h (0 Bft) N 0 12,5 C 13,6 C 0,0 km/h (0 Bft) 100,00 %
19.07.2019 06:14 24,9 C 13,6 C 57 % 93 % 1015,6 hPa 0,0 l/m 0,0 km/h (0 Bft) N 0 12,5 C 13,6 C 0,0 km/h (0 Bft) 100,00 %
19.07.2019 06:13 25,0 C 13,6 C 57 % 93 % 1015,6 hPa 0,0 l/m 0,0 km/h (0 Bft) N 0 12,5 C 13,6 C 0,0 km/h (0 Bft) 100,00 %
19.07.2019 06:12 25,0 C 13,6 C 57 % 93 % 1015,6 hPa 0,0 l/m 0,0 km/h (0 Bft) N 0 12,5 C 13,6 C 0,0 km/h (0 Bft) 100,00 %
19.07.2019 06:11 24,9 C 13,6 C 57 % 93 % 1015,5 hPa 0,0 l/m 0,0 km/h (0 Bft) N 0 12,5 C 13,6 C 0,0 km/h (0 Bft) 100,00 %
19.07.2019 06:10 25,0 C 13,5 C 57 % 93 % 1015,6 hPa 0,0 l/m 0,0 km/h (0 Bft) N 0 12,4 C 13,5 C 0,0 km/h (0 Bft) 100,00 %
19.07.2019 06:09 25,0 C 13,5 C 57 % 93 % 1015,5 hPa 0,0 l/m 0,0 km/h (0 Bft) N 0 12,4 C 13,5 C 0,0 km/h (0 Bft) 100,00 %
19.07.2019 06:08 24,9 C 13,5 C 57 % 93 % 1015,5 hPa 0,0 l/m 0,0 km/h (0 Bft) N 0 12,4 C 13,5 C 0,0 km/h (0 Bft) 100,00 %
19.07.2019 06:07 24,9 C 13,4 C 57 % 93 % 1015,5 hPa 0,0 l/m 0,0 km/h (0 Bft) N 0 12,3 C 13,4 C 0,0 km/h (0 Bft) 100,00 %
19.07.2019 06:06 24,9 C 13,4 C 57 % 93 % 1015,5 hPa 0,0 l/m 0,0 km/h (0 Bft) N 0 12,3 C 13,4 C 0,0 km/h (0 Bft) 100,00 %
19.07.2019 06:05 25,0 C 13,4 C 57 % 93 % 1015,5 hPa 0,0 l/m 0,0 km/h (0 Bft) N 0 12,3 C 13,4 C 0,0 km/h (0 Bft) 100,00 %
19.07.2019 06:04 25,0 C 13,4 C 57 % 93 % 1015,6 hPa 0,0 l/m 0,0 km/h (0 Bft) N 0 12,3 C 13,4 C 0,0 km/h (0 Bft) 100,00 %
19.07.2019 06:03 25,0 C 13,3 C 57 % 93 % 1015,5 hPa 0,0 l/m 0,0 km/h (0 Bft) N 0 12,2 C 13,3 C 0,0 km/h (0 Bft) 100,00 %
19.07.2019 06:02 24,9 C 13,3 C 57 % 93 % 1015,6 hPa 0,0 l/m 0,0 km/h (0 Bft) N 0 12,2 C 13,3 C 0,0 km/h (0 Bft) 95,65 %
19.07.2019 06:01 25,0 C 13,3 C 57 % 93 % 1015,5 hPa 0,0 l/m 0,0 km/h (0 Bft) N 0 12,2 C 13,3 C 0,0 km/h (0 Bft) 100,00 %
19.07.2019 06:00 25,0 C 13,3 C 57 % 93 % 1015,5 hPa 0,0 l/m 0,0 km/h (0 Bft) N 0 12,2 C 13,3 C 0,0 km/h (0 Bft) 100,00 %
19.07.2019 05:59 24,9 C 13,3 C 57 % 93 % 1015,5 hPa 0,0 l/m 0,0 km/h (0 Bft) N 0 12,2 C 13,3 C 0,0 km/h (0 Bft) 100,00 %
19.07.2019 05:58 25,0 C 13,2 C 57 % 93 % 1015,5 hPa 0,0 l/m 0,0 km/h (0 Bft) N 0 12,1 C 13,2 C 0,0 km/h (0 Bft) 100,00 %
19.07.2019 05:57 25,0 C 13,2 C 57 % 92 % 1015,5 hPa 0,0 l/m 0,0 km/h (0 Bft) N 0 11,9 C 13,2 C 0,0 km/h (0 Bft) 100,00 %
19.07.2019 05:56 25,0 C 13,2 C 57 % 92 % 1015,5 hPa 0,0 l/m 0,0 km/h (0 Bft) N 0 11,9 C 13,2 C 0,0 km/h (0 Bft) 100,00 %
19.07.2019 05:55 24,9 C 13,2 C 57 % 92 % 1015,5 hPa 0,0 l/m 0,0 km/h (0 Bft) N 0 11,9 C 13,2 C 0,0 km/h (0 Bft) 100,00 %
19.07.2019 05:54 25,0 C 13,2 C 57 % 92 % 1015,5 hPa 0,0 l/m 0,0 km/h (0 Bft) N 0 11,9 C 13,2 C 0,0 km/h (0 Bft) 100,00 %
19.07.2019 05:53 25,0 C 13,3 C 57 % 92 % 1015,5 hPa 0,0 l/m 0,0 km/h (0 Bft) N 0 12,0 C 13,3 C 0,0 km/h (0 Bft) 100,00 %
19.07.2019 05:52 24,9 C 13,3 C 57 % 92 % 1015,4 hPa 0,0 l/m 0,0 km/h (0 Bft) N 0 12,0 C 13,3 C 0,0 km/h (0 Bft) 100,00 %
19.07.2019 05:51 25,0 C 13,3 C 57 % 92 % 1015,5 hPa 0,0 l/m 0,0 km/h (0 Bft) N 0 12,0 C 13,3 C 0,0 km/h (0 Bft) 100,00 %
19.07.2019 05:50 24,9 C 13,3 C 57 % 92 % 1015,5 hPa 0,0 l/m 0,0 km/h (0 Bft) N 0 12,0 C 13,3 C 0,0 km/h (0 Bft) 95,65 %
19.07.2019 05:49 25,0 C 13,3 C 57 % 92 % 1015,5 hPa 0,0 l/m 0,0 km/h (0 Bft) N 0 12,0 C 13,3 C 0,0 km/h (0 Bft) 100,00 %
19.07.2019 05:48 25,0 C 13,3 C 57 % 92 % 1015,5 hPa 0,0 l/m 0,0 km/h (0 Bft) N 0 12,0 C 13,3 C 0,0 km/h (0 Bft) 100,00 %
19.07.2019 05:47 25,0 C 13,3 C 57 % 92 % 1015,5 hPa 0,0 l/m 0,0 km/h (0 Bft) N 0 12,0 C 13,3 C 0,0 km/h (0 Bft) 100,00 %
19.07.2019 05:46 25,0 C 13,3 C 57 % 93 % 1015,4 hPa 0,0 l/m 0,0 km/h (0 Bft) N 0 12,2 C 13,3 C 0,0 km/h (0 Bft) 100,00 %
19.07.2019 05:45 25,0 C 13,3 C 57 % 93 % 1015,4 hPa 0,0 l/m 0,0 km/h (0 Bft) N 0 12,2 C 13,3 C 0,0 km/h (0 Bft) 100,00 %
19.07.2019 05:44 25,0 C 13,3 C 57 % 93 % 1015,5 hPa 0,0 l/m 0,0 km/h (0 Bft) N 0 12,2 C 13,3 C 0,0 km/h (0 Bft) 100,00 %
19.07.2019 05:43 25,0 C 13,2 C 57 % 93 % 1015,5 hPa 0,0 l/m 0,0 km/h (0 Bft) N 0 12,1 C 13,2 C 0,0 km/h (0 Bft) 100,00 %
19.07.2019 05:42 25,0 C 13,2 C 57 % 92 % 1015,4 hPa 0,0 l/m 0,0 km/h (0 Bft) N 0 11,9 C 13,2 C 0,0 km/h (0 Bft) 100,00 %
19.07.2019 05:41 25,0 C 13,2 C 57 % 92 % 1015,4 hPa 0,0 l/m 0,0 km/h (0 Bft) N 0 11,9 C 13,2 C 0,0 km/h (0 Bft) 100,00 %
19.07.2019 05:40 25,0 C 13,2 C 57 % 92 % 1015,4 hPa 0,0 l/m 0,0 km/h (0 Bft) N 0 11,9 C 13,2 C 0,0 km/h (0 Bft) 100,00 %
19.07.2019 05:39 25,0 C 13,2 C 57 % 92 % 1015,4 hPa 0,0 l/m 0,0 km/h (0 Bft) N 0 11,9 C 13,2 C 0,0 km/h (0 Bft) 100,00 %
19.07.2019 05:38 25,0 C 13,3 C 57 % 92 % 1015,4 hPa 0,0 l/m 0,0 km/h (0 Bft) N 0 12,0 C 13,3 C 0,0 km/h (0 Bft) 95,65 %
19.07.2019 05:37 25,0 C 13,3 C 57 % 92 % 1015,4 hPa 0,0 l/m 0,0 km/h (0 Bft) N 0 12,0 C 13,3 C 0,0 km/h (0 Bft) 100,00 %
19.07.2019 05:36 25,0 C 13,3 C 57 % 92 % 1015,4 hPa 0,0 l/m 0,0 km/h (0 Bft) N 0 12,0 C 13,3 C 0,0 km/h (0 Bft) 100,00 %
19.07.2019 05:35 25,0 C 13,3 C 57 % 92 % 1015,4 hPa 0,0 l/m 0,0 km/h (0 Bft) N 0 12,0 C 13,3 C 0,0 km/h (0 Bft) 100,00 %
19.07.2019 05:34 25,0 C 13,3 C 57 % 92 % 1015,3 hPa 0,0 l/m 0,0 km/h (0 Bft) N 0 12,0 C 13,3 C 0,0 km/h (0 Bft) 100,00 %
19.07.2019 05:33 24,9 C 13,3 C 57 % 92 % 1015,3 hPa 0,0 l/m 0,0 km/h (0 Bft) N 0 12,0 C 13,3 C 0,0 km/h (0 Bft) 95,65 %
19.07.2019 05:32 25,0 C 13,3 C 57 % 92 % 1015,3 hPa 0,0 l/m 0,0 km/h (0 Bft) N 0 12,0 C 13,3 C 0,0 km/h (0 Bft) 100,00 %
19.07.2019 05:31 25,0 C 13,3 C 57 % 92 % 1015,3 hPa 0,0 l/m 0,0 km/h (0 Bft) N 0 12,0 C 13,3 C 0,0 km/h (0 Bft) 100,00 %
19.07.2019 05:30 25,0 C 13,3 C 57 % 92 % 1015,2 hPa 0,0 l/m 0,0 km/h (0 Bft) N 0 12,0 C 13,3 C 0,0 km/h (0 Bft) 100,00 %
19.07.2019 05:29 25,0 C 13,3 C 57 % 92 % 1015,3 hPa 0,0 l/m 0,0 km/h (0 Bft) N 0 12,0 C 13,3 C 0,0 km/h (0 Bft) 100,00 %
19.07.2019 05:28 25,0 C 13,3 C 57 % 92 % 1015,2 hPa 0,0 l/m 0,0 km/h (0 Bft) N 0 12,0 C 13,3 C 0,0 km/h (0 Bft) 100,00 %
19.07.2019 05:27 25,0 C 13,3 C 57 % 92 % 1015,2 hPa 0,0 l/m 0,0 km/h (0 Bft) N 0 12,0 C 13,3 C 0,0 km/h (0 Bft) 100,00 %
19.07.2019 05:26 25,0 C 13,3 C 57 % 92 % 1015,2 hPa 0,0 l/m 0,0 km/h (0 Bft) N 0 12,0 C 13,3 C 0,0 km/h (0 Bft) 95,65 %
19.07.2019 05:25 25,0 C 13,4 C 57 % 92 % 1015,3 hPa 0,0 l/m 0,0 km/h (0 Bft) N 0 12,1 C 13,4 C 0,0 km/h (0 Bft) 100,00 %
19.07.2019 05:24 25,0 C 13,4 C 57 % 92 % 1015,2 hPa 0,0 l/m 0,0 km/h (0 Bft) N 0 12,1 C 13,4 C 0,0 km/h (0 Bft) 100,00 %
19.07.2019 05:23 25,0 C 13,4 C 57 % 92 % 1015,2 hPa 0,0 l/m 0,0 km/h (0 Bft) N 0 12,1 C 13,4 C 0,0 km/h (0 Bft) 95,65 %
19.07.2019 05:22 25,0 C 13,4 C 57 % 92 % 1015,2 hPa 0,0 l/m 0,0 km/h (0 Bft) N 0 12,1 C 13,4 C 0,0 km/h (0 Bft) 100,00 %
19.07.2019 05:21 25,0 C 13,4 C 57 % 92 % 1015,2 hPa 0,0 l/m 0,0 km/h (0 Bft) N 0 12,1 C 13,4 C 0,0 km/h (0 Bft) 100,00 %
19.07.2019 05:20 25,0 C 13,4 C 57 % 92 % 1015,2 hPa 0,0 l/m 0,0 km/h (0 Bft) N 0 12,1 C 13,4 C 0,0 km/h (0 Bft) 100,00 %
19.07.2019 05:19 25,0 C 13,4 C 57 % 92 % 1015,2 hPa 0,0 l/m 0,0 km/h (0 Bft) N 0 12,1 C 13,4 C 0,0 km/h (0 Bft) 100,00 %
19.07.2019 05:18 25,0 C 13,4 C 57 % 92 % 1015,2 hPa 0,0 l/m 0,0 km/h (0 Bft) N 0 12,1 C 13,4 C 0,0 km/h (0 Bft) 100,00 %
19.07.2019 05:17 25,1 C 13,4 C 57 % 92 % 1015,1 hPa 0,0 l/m 0,0 km/h (0 Bft) N 0 12,1 C 13,4 C 0,0 km/h (0 Bft) 100,00 %
19.07.2019 05:16 25,0 C 13,4 C 57 % 92 % 1015,2 hPa 0,0 l/m 0,0 km/h (0 Bft) N 0 12,1 C 13,4 C 0,0 km/h (0 Bft) 100,00 %
19.07.2019 05:15 25,0 C 13,4 C 57 % 92 % 1015,1 hPa 0,0 l/m 0,0 km/h (0 Bft) N 0 12,1 C 13,4 C 0,0 km/h (0 Bft) 100,00 %
19.07.2019 05:14 25,0 C 13,4 C 57 % 92 % 1015,1 hPa 0,0 l/m 0,0 km/h (0 Bft) N 0 12,1 C 13,4 C 0,0 km/h (0 Bft) 100,00 %
19.07.2019 05:13 25,0 C 13,4 C 57 % 92 % 1015,1 hPa 0,0 l/m 0,0 km/h (0 Bft) N 0 12,1 C 13,4 C 0,0 km/h (0 Bft) 100,00 %
19.07.2019 05:12 25,0 C 13,4 C 57 % 92 % 1015,1 hPa 0,0 l/m 0,0 km/h (0 Bft) N 0 12,1 C 13,4 C 0,0 km/h (0 Bft) 100,00 %
19.07.2019 05:11 25,0 C 13,4 C 57 % 92 % 1015,1 hPa 0,0 l/m 0,0 km/h (0 Bft) N 0 12,1 C 13,4 C 0,0 km/h (0 Bft) 100,00 %
19.07.2019 05:10 25,0 C 13,4 C 57 % 92 % 1015,1 hPa 0,0 l/m 0,0 km/h (0 Bft) N 0 12,1 C 13,4 C 0,0 km/h (0 Bft) 100,00 %
19.07.2019 05:09 25,0 C 13,4 C 57 % 92 % 1015,2 hPa 0,0 l/m 0,0 km/h (0 Bft) N 0 12,1 C 13,4 C 0,0 km/h (0 Bft) 95,65 %
19.07.2019 05:08 25,0 C 13,4 C 57 % 92 % 1015,1 hPa 0,0 l/m 0,0 km/h (0 Bft) N 0 12,1 C 13,4 C 0,0 km/h (0 Bft) 100,00 %
19.07.2019 05:07 25,0 C 13,4 C 57 % 92 % 1015,1 hPa 0,0 l/m 0,0 km/h (0 Bft) N 0 12,1 C 13,4 C 0,0 km/h (0 Bft) 100,00 %
19.07.2019 05:06 25,0 C 13,4 C 57 % 92 % 1015,1 hPa 0,0 l/m 0,0 km/h (0 Bft) N 0 12,1 C 13,4 C 0,0 km/h (0 Bft) 100,00 %
19.07.2019 05:05 25,0 C 13,3 C 57 % 93 % 1015,0 hPa 0,0 l/m 0,0 km/h (0 Bft) N 0 12,2 C 13,3 C 0,0 km/h (0 Bft) 95,65 %
19.07.2019 05:04 25,1 C 13,3 C 57 % 92 % 1015,1 hPa 0,0 l/m 0,0 km/h (0 Bft) N 0 12,0 C 13,3 C 0,0 km/h (0 Bft) 100,00 %
19.07.2019 05:03 25,1 C 13,2 C 57 % 92 % 1015,0 hPa 0,0 l/m 0,0 km/h (0 Bft) N 0 11,9 C 13,2 C 0,0 km/h (0 Bft) 100,00 %
19.07.2019 05:02 25,0 C 13,2 C 57 % 92 % 1015,0 hPa 0,0 l/m 0,0 km/h (0 Bft) N 0 11,9 C 13,2 C 0,0 km/h (0 Bft) 100,00 %
19.07.2019 05:01 25,0 C 13,2 C 57 % 92 % 1015,0 hPa 0,0 l/m 0,0 km/h (0 Bft) N 0 11,9 C 13,2 C 0,0 km/h (0 Bft) 100,00 %
19.07.2019 05:00 25,0 C 13,2 C 57 % 92 % 1015,0 hPa 0,0 l/m 0,0 km/h (0 Bft) N 0 11,9 C 13,2 C 0,0 km/h (0 Bft) 100,00 %
19.07.2019 04:59 25,0 C 13,2 C 57 % 92 % 1014,9 hPa 0,0 l/m 0,0 km/h (0 Bft) N 0 11,9 C 13,2 C 0,0 km/h (0 Bft) 100,00 %
19.07.2019 04:58 25,0 C 13,2 C 57 % 92 % 1014,9 hPa 0,0 l/m 0,0 km/h (0 Bft) N 0 11,9 C 13,2 C 0,0 km/h (0 Bft) 100,00 %
19.07.2019 04:57 25,0 C 13,2 C 57 % 92 % 1014,9 hPa 0,0 l/m 0,0 km/h (0 Bft) N 0 11,9 C 13,2 C 0,0 km/h (0 Bft) 100,00 %
19.07.2019 04:56 25,1 C 13,2 C 57 % 92 % 1014,9 hPa 0,0 l/m 0,0 km/h (0 Bft) N 0 11,9 C 13,2 C 0,0 km/h (0 Bft) 100,00 %
19.07.2019 04:55 25,0 C 13,2 C 57 % 92 % 1014,9 hPa 0,0 l/m 0,0 km/h (0 Bft) N 0 11,9 C 13,2 C 0,0 km/h (0 Bft) 100,00 %
19.07.2019 04:54 25,0 C 13,2 C 57 % 92 % 1014,8 hPa 0,0 l/m 0,0 km/h (0 Bft) N 0 11,9 C 13,2 C 0,0 km/h (0 Bft) 100,00 %
19.07.2019 04:53 25,0 C 13,2 C 57 % 92 % 1014,9 hPa 0,0 l/m 0,0 km/h (0 Bft) N 0 11,9 C 13,2 C 0,0 km/h (0 Bft) 100,00 %
19.07.2019 04:52 25,0 C 13,2 C 57 % 92 % 1014,9 hPa 0,0 l/m 0,0 km/h (0 Bft) N 0 11,9 C 13,2 C 0,0 km/h (0 Bft) 100,00 %
19.07.2019 04:51 25,1 C 13,2 C 57 % 92 % 1014,8 hPa 0,0 l/m 0,0 km/h (0 Bft) N 0 11,9 C 13,2 C 0,0 km/h (0 Bft) 100,00 %
19.07.2019 04:50 25,1 C 13,2 C 57 % 92 % 1014,8 hPa 0,0 l/m 0,0 km/h (0 Bft) N 0 11,9 C 13,2 C 0,0 km/h (0 Bft) 100,00 %
19.07.2019 04:49 25,1 C 13,2 C 57 % 92 % 1014,7 hPa 0,0 l/m 0,0 km/h (0 Bft) N 0 11,9 C 13,2 C 0,0 km/h (0 Bft) 100,00 %
19.07.2019 04:48 25,1 C 13,2 C 57 % 92 % 1014,7 hPa 0,0 l/m 0,0 km/h (0 Bft) N 0 11,9 C 13,2 C 0,0 km/h (0 Bft) 100,00 %
19.07.2019 04:47 25,1 C 13,2 C 57 % 92 % 1014,8 hPa 0,0 l/m 0,0 km/h (0 Bft) N 0 11,9 C 13,2 C 0,0 km/h (0 Bft) 100,00 %
19.07.2019 04:46 25,1 C 13,2 C 57 % 92 % 1014,8 hPa 0,0 l/m 0,0 km/h (0 Bft) N 0 11,9 C 13,2 C 0,0 km/h (0 Bft) 100,00 %
19.07.2019 04:45 25,1 C 13,2 C 57 % 92 % 1014,8 hPa 0,0 l/m 0,0 km/h (0 Bft) N 0 11,9 C 13,2 C 0,0 km/h (0 Bft) 95,65 %
19.07.2019 04:44 25,1 C 13,2 C 57 % 92 % 1014,8 hPa 0,0 l/m 0,0 km/h (0 Bft) N 0 11,9 C 13,2 C 0,0 km/h (0 Bft) 100,00 %
19.07.2019 04:43 25,1 C 13,2 C 57 % 92 % 1014,7 hPa 0,0 l/m 0,0 km/h (0 Bft) N 0 11,9 C 13,2 C 0,0 km/h (0 Bft) 100,00 %
19.07.2019 04:42 25,1 C 13,2 C 57 % 92 % 1014,7 hPa 0,0 l/m 0,0 km/h (0 Bft) N 0 11,9 C 13,2 C 0,0 km/h (0 Bft) 100,00 %
19.07.2019 04:41 25,1 C 13,2 C 57 % 92 % 1014,7 hPa 0,0 l/m 0,0 km/h (0 Bft) N 0 11,9 C 13,2 C 0,0 km/h (0 Bft) 100,00 %
19.07.2019 04:40 25,1 C 13,3 C 57 % 92 % 1014,8 hPa 0,0 l/m 0,0 km/h (0 Bft) N 0 12,0 C 13,3 C 0,0 km/h (0 Bft) 100,00 %
19.07.2019 04:39 25,1 C 13,3 C 57 % 92 % 1014,7 hPa 0,0 l/m 0,0 km/h (0 Bft) N 0 12,0 C 13,3 C 0,0 km/h (0 Bft) 100,00 %
19.07.2019 04:38 25,1 C 13,3 C 57 % 92 % 1014,7 hPa 0,0 l/m 0,0 km/h (0 Bft) N 0 12,0 C 13,3 C 0,0 km/h (0 Bft) 100,00 %
19.07.2019 04:37 25,1 C 13,3 C 57 % 92 % 1014,8 hPa 0,0 l/m 0,0 km/h (0 Bft) N 0 12,0 C 13,3 C 0,0 km/h (0 Bft) 100,00 %
19.07.2019 04:36 25,1 C 13,3 C 57 % 92 % 1014,7 hPa 0,0 l/m 0,0 km/h (0 Bft) N 0 12,0 C 13,3 C 0,0 km/h (0 Bft) 100,00 %
19.07.2019 04:35 25,1 C 13,3 C 57 % 92 % 1014,8 hPa 0,0 l/m 0,0 km/h (0 Bft) N 0 12,0 C 13,3 C 0,0 km/h (0 Bft) 100,00 %
19.07.2019 04:34 25,1 C 13,3 C 57 % 91 % 1014,7 hPa 0,0 l/m 0,0 km/h (0 Bft) N 0 11,9 C 13,3 C 0,0 km/h (0 Bft) 100,00 %
19.07.2019 04:33 25,1 C 13,3 C 57 % 91 % 1014,7 hPa 0,0 l/m 0,0 km/h (0 Bft) N 0 11,9 C 13,3 C 0,0 km/h (0 Bft) 100,00 %
19.07.2019 04:32 25,1 C 13,3 C 57 % 91 % 1014,7 hPa 0,0 l/m 0,0 km/h (0 Bft) N 0 11,9 C 13,3 C 0,0 km/h (0 Bft) 100,00 %
19.07.2019 04:31 25,1 C 13,4 C 57 % 91 % 1014,7 hPa 0,0 l/m 0,0 km/h (0 Bft) N 0 12,0 C 13,4 C 0,0 km/h (0 Bft) 100,00 %
19.07.2019 04:30 25,1 C 13,4 C 57 % 91 % 1014,7 hPa 0,0 l/m 0,0 km/h (0 Bft) N 0 12,0 C 13,4 C 0,0 km/h (0 Bft) 100,00 %
19.07.2019 04:29 25,1 C 13,4 C 57 % 91 % 1014,7 hPa 0,0 l/m 0,0 km/h (0 Bft) N 0 12,0 C 13,4 C 0,0 km/h (0 Bft) 100,00 %
19.07.2019 04:28 25,1 C 13,4 C 57 % 91 % 1014,7 hPa 0,0 l/m 0,0 km/h (0 Bft) N 0 12,0 C 13,4 C 0,0 km/h (0 Bft) 100,00 %
19.07.2019 04:27 25,1 C 13,4 C 57 % 91 % 1014,8 hPa 0,0 l/m 0,0 km/h (0 Bft) N 0 12,0 C 13,4 C 0,0 km/h (0 Bft) 100,00 %
19.07.2019 04:26 25,1 C 13,5 C 57 % 91 % 1014,8 hPa 0,0 l/m 0,0 km/h (0 Bft) N 0 12,1 C 13,5 C 0,0 km/h (0 Bft) 100,00 %
19.07.2019 04:25 25,1 C 13,5 C 57 % 91 % 1014,7 hPa 0,0 l/m 0,0 km/h (0 Bft) N 0 12,1 C 13,5 C 0,0 km/h (0 Bft) 100,00 %
19.07.2019 04:24 25,1 C 13,5 C 57 % 91 % 1014,7 hPa 0,0 l/m 0,0 km/h (0 Bft) N 0 12,1 C 13,5 C 0,0 km/h (0 Bft) 95,65 %
19.07.2019 04:23 25,1 C 13,5 C 57 % 91 % 1014,7 hPa 0,0 l/m 0,0 km/h (0 Bft) N 0 12,1 C 13,5 C 0,0 km/h (0 Bft) 100,00 %
19.07.2019 04:22 25,1 C 13,5 C 57 % 91 % 1014,8 hPa 0,0 l/m 0,0 km/h (0 Bft) N 0 12,1 C 13,5 C 0,0 km/h (0 Bft) 100,00 %
19.07.2019 04:21 25,1 C 13,6 C 57 % 91 % 1014,7 hPa 0,0 l/m 0,0 km/h (0 Bft) N 0 12,2 C 13,6 C 0,0 km/h (0 Bft) 100,00 %
19.07.2019 04:20 25,1 C 13,6 C 57 % 91 % 1014,8 hPa 0,0 l/m 0,0 km/h (0 Bft) N 0 12,2 C 13,6 C 0,0 km/h (0 Bft) 100,00 %
19.07.2019 04:19 25,1 C 13,6 C 57 % 91 % 1014,7 hPa 0,0 l/m 0,0 km/h (0 Bft) N 0 12,2 C 13,6 C 0,0 km/h (0 Bft) 100,00 %
19.07.2019 04:18 25,1 C 13,6 C 57 % 91 % 1014,9 hPa 0,0 l/m 0,0 km/h (0 Bft) N 0 12,2 C 13,6 C 0,0 km/h (0 Bft) 95,65 %
19.07.2019 04:17 25,1 C 13,6 C 57 % 91 % 1014,7 hPa 0,0 l/m 0,0 km/h (0 Bft) N 0 12,2 C 13,6 C 0,0 km/h (0 Bft) 100,00 %
19.07.2019 04:16 25,1 C 13,7 C 57 % 91 % 1014,8 hPa 0,0 l/m 0,0 km/h (0 Bft) N 0 12,3 C 13,7 C 0,0 km/h (0 Bft) 100,00 %
19.07.2019 04:15 25,1 C 13,7 C 57 % 91 % 1014,7 hPa 0,0 l/m 0,0 km/h (0 Bft) N 0 12,3 C 13,7 C 0,0 km/h (0 Bft) 100,00 %
19.07.2019 04:14 25,1 C 13,7 C 57 % 90 % 1014,7 hPa 0,0 l/m 0,0 km/h (0 Bft) N 0 12,1 C 13,7 C 0,0 km/h (0 Bft) 100,00 %
19.07.2019 04:13 25,1 C 13,7 C 57 % 90 % 1014,7 hPa 0,0 l/m 0,0 km/h (0 Bft) N 0 12,1 C 13,7 C 0,0 km/h (0 Bft) 100,00 %
19.07.2019 04:12 25,1 C 13,7 C 57 % 90 % 1014,8 hPa 0,0 l/m 0,0 km/h (0 Bft) N 0 12,1 C 13,7 C 0,0 km/h (0 Bft) 100,00 %
19.07.2019 04:11 25,1 C 13,8 C 57 % 90 % 1014,7 hPa 0,0 l/m 0,0 km/h (0 Bft) N 0 12,2 C 13,8 C 0,0 km/h (0 Bft) 100,00 %
19.07.2019 04:10 25,1 C 13,8 C 57 % 90 % 1014,7 hPa 0,0 l/m 0,0 km/h (0 Bft) N 0 12,2 C 13,8 C 0,0 km/h (0 Bft) 100,00 %
19.07.2019 04:09 25,1 C 13,9 C 57 % 90 % 1014,7 hPa 0,0 l/m 0,0 km/h (0 Bft) N 0 12,3 C 13,9 C 0,0 km/h (0 Bft) 100,00 %
19.07.2019 04:08 25,1 C 13,9 C 57 % 90 % 1014,8 hPa 0,0 l/m 0,0 km/h (0 Bft) N 0 12,3 C 13,9 C 0,0 km/h (0 Bft) 100,00 %
19.07.2019 04:07 25,1 C 13,9 C 57 % 90 % 1014,7 hPa 0,0 l/m 0,0 km/h (0 Bft) N 0 12,3 C 13,9 C 0,0 km/h (0 Bft) 95,65 %
19.07.2019 04:06 25,1 C 14,0 C 57 % 90 % 1014,7 hPa 0,0 l/m 0,0 km/h (0 Bft) N 0 12,4 C 14,0 C 0,0 km/h (0 Bft) 100,00 %
19.07.2019 04:05 25,1 C 14,0 C 57 % 90 % 1014,7 hPa 0,0 l/m 0,0 km/h (0 Bft) S-SO 157 12,4 C 14,0 C 1,6 km/h (1 Bft) 100,00 %
19.07.2019 04:04 25,1 C 14,0 C 57 % 90 % 1014,7 hPa 0,0 l/m 0,0 km/h (0 Bft) N 0 12,4 C 14,0 C 0,0 km/h (0 Bft) 100,00 %
19.07.2019 04:03 25,1 C 14,0 C 57 % 90 % 1014,7 hPa 0,0 l/m 0,0 km/h (0 Bft) N 0 12,4 C 14,0 C 0,0 km/h (0 Bft) 100,00 %
19.07.2019 04:02 25,1 C 14,0 C 57 % 90 % 1014,7 hPa 0,0 l/m 0,0 km/h (0 Bft) N 0 12,4 C 14,0 C 0,0 km/h (0 Bft) 100,00 %
19.07.2019 04:01 25,1 C 14,0 C 57 % 90 % 1014,7 hPa 0,0 l/m 0,0 km/h (0 Bft) N 0 12,4 C 14,0 C 0,0 km/h (0 Bft) 100,00 %
19.07.2019 04:00 25,1 C 14,0 C 57 % 89 % 1014,7 hPa 0,0 l/m 0,0 km/h (0 Bft) N 0 12,2 C 14,0 C 0,0 km/h (0 Bft) 100,00 %
19.07.2019 03:59 25,1 C 14,0 C 57 % 89 % 1014,6 hPa 0,0 l/m 0,0 km/h (0 Bft) N 0 12,2 C 14,0 C 0,0 km/h (0 Bft) 100,00 %
19.07.2019 03:58 25,1 C 14,0 C 57 % 89 % 1014,7 hPa 0,0 l/m 0,0 km/h (0 Bft) N 0 12,2 C 14,0 C 0,0 km/h (0 Bft) 100,00 %
19.07.2019 03:57 25,1 C 14,1 C 57 % 89 % 1014,7 hPa 0,0 l/m 0,0 km/h (0 Bft) N 0 12,3 C 14,1 C 0,0 km/h (0 Bft) 100,00 %
19.07.2019 03:56 25,1 C 14,1 C 57 % 89 % 1014,7 hPa 0,0 l/m 0,0 km/h (0 Bft) N 0 12,3 C 14,1 C 0,0 km/h (0 Bft) 100,00 %
19.07.2019 03:55 25,1 C 14,2 C 57 % 89 % 1014,7 hPa 0,0 l/m 1,6 km/h (1 Bft) S-SO 157 12,4 C 14,2 C 3,2 km/h (1 Bft) 100,00 %
19.07.2019 03:54 25,1 C 14,2 C 57 % 89 % 1014,7 hPa 0,0 l/m 0,0 km/h (0 Bft) S-SO 157 12,4 C 14,2 C 1,6 km/h (1 Bft) 100,00 %
19.07.2019 03:53 25,1 C 14,2 C 57 % 89 % 1014,6 hPa 0,0 l/m 0,0 km/h (0 Bft) N 0 12,4 C 14,2 C 0,0 km/h (0 Bft) 100,00 %
19.07.2019 03:52 25,1 C 14,2 C 57 % 89 % 1014,7 hPa 0,0 l/m 0,0 km/h (0 Bft) S-SO 157 12,4 C 14,2 C 1,6 km/h (1 Bft) 95,65 %
19.07.2019 03:51 25,1 C 14,2 C 57 % 89 % 1014,7 hPa 0,0 l/m 0,0 km/h (0 Bft) NO 45 12,4 C 14,2 C 1,6 km/h (1 Bft) 100,00 %
19.07.2019 03:50 25,1 C 14,3 C 57 % 89 % 1014,7 hPa 0,0 l/m 0,0 km/h (0 Bft) N-NO 22 12,5 C 14,3 C 1,6 km/h (1 Bft) 100,00 %
19.07.2019 03:49 25,1 C 14,3 C 57 % 88 % 1014,7 hPa 0,0 l/m 0,0 km/h (0 Bft) N-NO 22 12,3 C 14,3 C 1,6 km/h (1 Bft) 100,00 %
19.07.2019 03:48 25,1 C 14,4 C 57 % 89 % 1014,7 hPa 0,0 l/m 1,6 km/h (1 Bft) N-NO 22 12,6 C 14,4 C 3,2 km/h (1 Bft) 100,00 %
19.07.2019 03:47 25,1 C 14,4 C 57 % 89 % 1014,7 hPa 0,0 l/m 1,6 km/h (1 Bft) N 360 12,6 C 14,4 C 3,2 km/h (1 Bft) 100,00 %
19.07.2019 03:46 25,1 C 14,4 C 57 % 89 % 1014,7 hPa 0,0 l/m 0,0 km/h (0 Bft) S-SW 202 12,6 C 14,4 C 1,6 km/h (1 Bft) 100,00 %
19.07.2019 03:45 25,1 C 14,3 C 57 % 89 % 1014,7 hPa 0,0 l/m 1,6 km/h (1 Bft) S-SW 202 12,5 C 14,3 C 3,2 km/h (1 Bft) 100,00 %
19.07.2019 03:44 25,1 C 14,3 C 57 % 89 % 1014,7 hPa 0,0 l/m 3,2 km/h (1 Bft) S-SW 202 12,5 C 14,3 C 4,8 km/h (1 Bft) 100,00 %
19.07.2019 03:43 25,1 C 14,3 C 57 % 88 % 1014,7 hPa 0,0 l/m 1,6 km/h (1 Bft) S-SW 202 12,3 C 14,3 C 3,2 km/h (1 Bft) 100,00 %
19.07.2019 03:42 25,1 C 14,3 C 57 % 88 % 1014,7 hPa 0,0 l/m 0,0 km/h (0 Bft) N 0 12,3 C 14,3 C 0,0 km/h (0 Bft) 100,00 %
19.07.2019 03:41 25,1 C 14,4 C 57 % 88 % 1014,7 hPa 0,0 l/m 0,0 km/h (0 Bft) N 0 12,4 C 14,4 C 0,0 km/h (0 Bft) 100,00 %
19.07.2019 03:40 25,1 C 14,4 C 57 % 88 % 1014,7 hPa 0,0 l/m 0,0 km/h (0 Bft) N 0 12,4 C 14,4 C 0,0 km/h (0 Bft) 100,00 %
19.07.2019 03:39 25,1 C 14,5 C 57 % 87 % 1014,7 hPa 0,0 l/m 0,0 km/h (0 Bft) N 0 12,4 C 14,5 C 0,0 km/h (0 Bft) 100,00 %
19.07.2019 03:38 25,1 C 14,6 C 57 % 87 % 1014,7 hPa 0,0 l/m 0,0 km/h (0 Bft) S-SW 202 12,5 C 14,6 C 1,6 km/h (1 Bft) 100,00 %
19.07.2019 03:37 25,1 C 14,7 C 57 % 87 % 1014,6 hPa 0,0 l/m 0,0 km/h (0 Bft) S-SW 202 12,6 C 14,7 C 1,6 km/h (1 Bft) 100,00 %
19.07.2019 03:36 25,1 C 14,8 C 57 % 86 % 1014,6 hPa 0,0 l/m 0,0 km/h (0 Bft) N 0 12,5 C 14,8 C 0,0 km/h (0 Bft) 100,00 %
19.07.2019 03:35 25,1 C 14,8 C 57 % 86 % 1014,6 hPa 0,0 l/m 0,0 km/h (0 Bft) N 0 12,5 C 14,8 C 0,0 km/h (0 Bft) 100,00 %
19.07.2019 03:34 25,1 C 14,9 C 57 % 86 % 1014,5 hPa 0,0 l/m 0,0 km/h (0 Bft) S-SW 202 12,6 C 14,9 C 1,6 km/h (1 Bft) 100,00 %
19.07.2019 03:33 25,1 C 15,0 C 57 % 86 % 1014,6 hPa 0,0 l/m 0,0 km/h (0 Bft) N 0 12,7 C 15,0 C 0,0 km/h (0 Bft) 95,65 %
19.07.2019 03:32 25,1 C 15,1 C 57 % 86 % 1014,6 hPa 0,0 l/m 0,0 km/h (0 Bft) N 0 12,8 C 15,1 C 0,0 km/h (0 Bft) 100,00 %
19.07.2019 03:31 25,1 C 15,1 C 57 % 85 % 1014,6 hPa 0,0 l/m 0,0 km/h (0 Bft) N 0 12,6 C 15,1 C 0,0 km/h (0 Bft) 100,00 %
19.07.2019 03:30 25,1 C 15,2 C 57 % 85 % 1014,6 hPa 0,0 l/m 0,0 km/h (0 Bft) N 0 12,7 C 15,2 C 0,0 km/h (0 Bft) 100,00 %
19.07.2019 03:29 25,1 C 15,3 C 57 % 85 % 1014,6 hPa 0,0 l/m 0,0 km/h (0 Bft) S-SW 202 12,8 C 15,3 C 1,6 km/h (1 Bft) 100,00 %
19.07.2019 03:28 25,1 C 15,4 C 57 % 85 % 1014,6 hPa 0,0 l/m 0,0 km/h (0 Bft) S-SW 202 12,9 C 15,4 C 1,6 km/h (1 Bft) 100,00 %
19.07.2019 03:27 25,1 C 15,4 C 57 % 84 % 1014,6 hPa 0,0 l/m 0,0 km/h (0 Bft) N 0 12,7 C 15,4 C 0,0 km/h (0 Bft) 100,00 %
19.07.2019 03:26 25,1 C 15,5 C 57 % 84 % 1014,5 hPa 0,0 l/m 0,0 km/h (0 Bft) S-SW 202 12,8 C 15,5 C 1,6 km/h (1 Bft) 100,00 %
19.07.2019 03:25 25,1 C 15,6 C 57 % 84 % 1014,6 hPa 0,0 l/m 0,0 km/h (0 Bft) S-SW 202 12,9 C 15,6 C 1,6 km/h (1 Bft) 100,00 %
19.07.2019 03:24 25,1 C 15,6 C 57 % 84 % 1014,6 hPa 0,0 l/m 0,0 km/h (0 Bft) N 0 12,9 C 15,6 C 0,0 km/h (0 Bft) 100,00 %
19.07.2019 03:23 25,1 C 15,6 C 57 % 84 % 1014,6 hPa 0,0 l/m 0,0 km/h (0 Bft) S-SW 202 12,9 C 15,6 C 1,6 km/h (1 Bft) 100,00 %
19.07.2019 03:22 25,1 C 15,7 C 57 % 84 % 1014,5 hPa 0,0 l/m 0,0 km/h (0 Bft) S-SW 202 13,0 C 15,7 C 1,6 km/h (1 Bft) 100,00 %
19.07.2019 03:21 25,1 C 15,7 C 57 % 83 % 1014,5 hPa 0,0 l/m 0,0 km/h (0 Bft) S-SW 202 12,8 C 15,7 C 1,6 km/h (1 Bft) 95,65 %
19.07.2019 03:20 25,1 C 15,7 C 57 % 83 % 1014,6 hPa 0,0 l/m 0,0 km/h (0 Bft) S-SW 202 12,8 C 15,7 C 1,6 km/h (1 Bft) 100,00 %
19.07.2019 03:19 25,1 C 15,8 C 57 % 83 % 1014,6 hPa 0,0 l/m 0,0 km/h (0 Bft) N 0 12,9 C 15,8 C 0,0 km/h (0 Bft) 100,00 %
19.07.2019 03:18 25,1 C 15,8 C 57 % 83 % 1014,5 hPa 0,0 l/m 0,0 km/h (0 Bft) S-SW 202 12,9 C 15,8 C 1,6 km/h (1 Bft) 100,00 %
19.07.2019 03:17 25,1 C 15,9 C 57 % 83 % 1014,6 hPa 0,0 l/m 0,0 km/h (0 Bft) S-SW 202 13,0 C 15,9 C 1,6 km/h (1 Bft) 100,00 %
19.07.2019 03:16 25,1 C 15,9 C 57 % 82 % 1014,6 hPa 0,0 l/m 0,0 km/h (0 Bft) S-SW 202 12,8 C 15,9 C 1,6 km/h (1 Bft) 100,00 %
19.07.2019 03:15 25,1 C 16,0 C 57 % 82 % 1014,6 hPa 0,0 l/m 0,0 km/h (0 Bft) S-SW 202 12,9 C 16,0 C 1,6 km/h (1 Bft) 100,00 %
19.07.2019 03:14 25,1 C 16,1 C 57 % 82 % 1014,6 hPa 0,0 l/m 0,0 km/h (0 Bft) S-SW 202 13,0 C 16,1 C 3,2 km/h (1 Bft) 100,00 %
19.07.2019 03:13 25,1 C 16,1 C 57 % 82 % 1014,6 hPa 0,0 l/m 0,0 km/h (0 Bft) S-SW 202 13,0 C 16,1 C 1,6 km/h (1 Bft) 100,00 %
19.07.2019 03:12 25,1 C 16,1 C 57 % 82 % 1014,6 hPa 0,0 l/m 0,0 km/h (0 Bft) S-SW 202 13,0 C 16,1 C 1,6 km/h (1 Bft) 95,65 %
19.07.2019 03:11 25,1 C 16,1 C 57 % 82 % 1014,6 hPa 0,0 l/m 0,0 km/h (0 Bft) S-SW 202 13,0 C 16,1 C 1,6 km/h (1 Bft) 100,00 %
19.07.2019 03:10 25,1 C 16,1 C 57 % 82 % 1014,5 hPa 0,0 l/m 0,0 km/h (0 Bft) S-SW 202 13,0 C 16,1 C 1,6 km/h (1 Bft) 100,00 %
19.07.2019 03:09 25,1 C 16,0 C 57 % 83 % 1014,5 hPa 0,0 l/m 0,0 km/h (0 Bft) SW 225 13,1 C 16,0 C 1,6 km/h (1 Bft) 95,65 %
19.07.2019 03:08 25,1 C 15,9 C 57 % 83 % 1014,6 hPa 0,0 l/m 1,6 km/h (1 Bft) SW 225 13,0 C 15,9 C 3,2 km/h (1 Bft) 100,00 %
19.07.2019 03:07 25,1 C 15,9 C 57 % 83 % 1014,5 hPa 0,0 l/m 1,6 km/h (1 Bft) SW 225 13,0 C 15,9 C 1,6 km/h (1 Bft) 100,00 %
19.07.2019 03:06 25,1 C 15,8 C 57 % 83 % 1014,6 hPa 0,0 l/m 1,6 km/h (1 Bft) SW 225 12,9 C 15,8 C 1,6 km/h (1 Bft) 100,00 %
19.07.2019 03:05 25,1 C 15,8 C 57 % 83 % 1014,5 hPa 0,0 l/m 0,0 km/h (0 Bft) W-SW 247 12,9 C 15,8 C 1,6 km/h (1 Bft) 100,00 %
19.07.2019 03:04 25,1 C 15,8 C 57 % 83 % 1014,6 hPa 0,0 l/m 0,0 km/h (0 Bft) W-SW 247 12,9 C 15,8 C 1,6 km/h (1 Bft) 100,00 %
19.07.2019 03:03 25,1 C 15,8 C 57 % 84 % 1014,6 hPa 0,0 l/m 1,6 km/h (1 Bft) SW 225 13,1 C 15,8 C 1,6 km/h (1 Bft) 100,00 %
19.07.2019 03:02 25,1 C 15,7 C 57 % 84 % 1014,6 hPa 0,0 l/m 1,6 km/h (1 Bft) W-SW 247 13,0 C 15,7 C 3,2 km/h (1 Bft) 100,00 %
19.07.2019 03:01 25,1 C 15,7 C 57 % 84 % 1014,5 hPa 0,0 l/m 1,6 km/h (1 Bft) W-SW 247 13,0 C 15,7 C 3,2 km/h (1 Bft) 100,00 %
19.07.2019 03:00 25,1 C 15,7 C 57 % 84 % 1014,6 hPa 0,0 l/m 1,6 km/h (1 Bft) SW 225 13,0 C 15,7 C 3,2 km/h (1 Bft) 95,65 %
19.07.2019 02:59 25,1 C 15,8 C 57 % 84 % 1014,6 hPa 0,0 l/m 0,0 km/h (0 Bft) S-SW 202 13,1 C 15,8 C 1,6 km/h (1 Bft) 100,00 %
19.07.2019 02:58 25,1 C 15,8 C 57 % 84 % 1014,5 hPa 0,0 l/m 0,0 km/h (0 Bft) SW 225 13,1 C 15,8 C 1,6 km/h (1 Bft) 100,00 %
19.07.2019 02:57 25,1 C 15,8 C 57 % 83 % 1014,6 hPa 0,0 l/m 0,0 km/h (0 Bft) SW 225 12,9 C 15,8 C 1,6 km/h (1 Bft) 100,00 %
19.07.2019 02:56 25,1 C 15,8 C 57 % 83 % 1014,5 hPa 0,0 l/m 0,0 km/h (0 Bft) SW 225 12,9 C 15,8 C 1,6 km/h (1 Bft) 100,00 %
19.07.2019 02:55 25,1 C 15,8 C 57 % 83 % 1014,5 hPa 0,0 l/m 1,6 km/h (1 Bft) SW 225 12,9 C 15,8 C 3,2 km/h (1 Bft) 100,00 %
19.07.2019 02:54 25,1 C 15,8 C 57 % 83 % 1014,5 hPa 0,0 l/m 0,0 km/h (0 Bft) W-SW 247 12,9 C 15,8 C 1,6 km/h (1 Bft) 100,00 %
19.07.2019 02:53 25,1 C 15,8 C 57 % 83 % 1014,6 hPa 0,0 l/m 0,0 km/h (0 Bft) W-SW 247 12,9 C 15,8 C 3,2 km/h (1 Bft) 100,00 %
19.07.2019 02:52 25,1 C 15,9 C 57 % 83 % 1014,5 hPa 0,0 l/m 0,0 km/h (0 Bft) N 0 13,0 C 15,9 C 0,0 km/h (0 Bft) 100,00 %
19.07.2019 02:51 25,1 C 15,9 C 57 % 83 % 1014,6 hPa 0,0 l/m 0,0 km/h (0 Bft) N 0 13,0 C 15,9 C 0,0 km/h (0 Bft) 100,00 %
19.07.2019 02:50 25,1 C 15,9 C 57 % 83 % 1014,6 hPa 0,0 l/m 1,6 km/h (1 Bft) S-SW 202 13,0 C 15,9 C 1,6 km/h (1 Bft) 91,30 %
19.07.2019 02:49 25,1 C 15,8 C 57 % 84 % 1014,6 hPa 0,0 l/m 0,0 km/h (0 Bft) SW 225 13,1 C 15,8 C 1,6 km/h (1 Bft) 100,00 %
19.07.2019 02:48 25,1 C 15,8 C 57 % 84 % 1014,6 hPa 0,0 l/m 1,6 km/h (1 Bft) SW 225 13,1 C 15,8 C 4,8 km/h (1 Bft) 100,00 %
19.07.2019 02:47 25,1 C 15,7 C 57 % 84 % 1014,6 hPa 0,0 l/m 1,6 km/h (1 Bft) SW 225 13,0 C 15,7 C 3,2 km/h (1 Bft) 100,00 %
19.07.2019 02:46 25,1 C 15,7 C 57 % 84 % 1014,6 hPa 0,0 l/m 1,6 km/h (1 Bft) SW 225 13,0 C 15,7 C 3,2 km/h (1 Bft) 100,00 %
19.07.2019 02:45 25,1 C 15,6 C 57 % 84 % 1014,6 hPa 0,0 l/m 1,6 km/h (1 Bft) W 270 12,9 C 15,6 C 1,6 km/h (1 Bft) 100,00 %
19.07.2019 02:44 25,1 C 15,6 C 57 % 84 % 1014,6 hPa 0,0 l/m 1,6 km/h (1 Bft) W 270 12,9 C 15,6 C 3,2 km/h (1 Bft) 100,00 %
19.07.2019 02:43 25,1 C 15,6 C 57 % 85 % 1014,7 hPa 0,0 l/m 1,6 km/h (1 Bft) W 270 13,1 C 15,6 C 3,2 km/h (1 Bft) 100,00 %
19.07.2019 02:42 25,1 C 15,6 C 57 % 85 % 1014,6 hPa 0,0 l/m 0,0 km/h (0 Bft) W-SW 247 13,1 C 15,6 C 3,2 km/h (1 Bft) 100,00 %
19.07.2019 02:41 25,1 C 15,5 C 57 % 85 % 1014,6 hPa 0,0 l/m 0,0 km/h (0 Bft) W-SW 247 13,0 C 15,5 C 1,6 km/h (1 Bft) 100,00 %
19.07.2019 02:40 25,1 C 15,5 C 57 % 85 % 1014,6 hPa 0,0 l/m 0,0 km/h (0 Bft) W-SW 247 13,0 C 15,5 C 1,6 km/h (1 Bft) 100,00 %
19.07.2019 02:39 25,1 C 15,4 C 57 % 85 % 1014,6 hPa 0,0 l/m 0,0 km/h (0 Bft) N 0 12,9 C 15,4 C 0,0 km/h (0 Bft) 100,00 %
19.07.2019 02:38 25,1 C 15,4 C 57 % 85 % 1014,6 hPa 0,0 l/m 0,0 km/h (0 Bft) W-SW 247 12,9 C 15,4 C 1,6 km/h (1 Bft) 100,00 %
19.07.2019 02:37 25,1 C 15,4 C 57 % 85 % 1014,6 hPa 0,0 l/m 1,6 km/h (1 Bft) W-SW 247 12,9 C 15,4 C 3,2 km/h (1 Bft) 100,00 %
19.07.2019 02:36 25,1 C 15,3 C 57 % 86 % 1014,6 hPa 0,0 l/m 0,0 km/h (0 Bft) W-SW 247 13,0 C 15,3 C 3,2 km/h (1 Bft) 95,65 %
19.07.2019 02:35 25,1 C 15,3 C 57 % 86 % 1014,6 hPa 0,0 l/m 1,6 km/h (1 Bft) W 270 13,0 C 15,3 C 3,2 km/h (1 Bft) 100,00 %
19.07.2019 02:34 25,1 C 15,3 C 57 % 86 % 1014,6 hPa 0,0 l/m 0,0 km/h (0 Bft) W 270 13,0 C 15,3 C 1,6 km/h (1 Bft) 100,00 %
19.07.2019 02:33 25,1 C 15,3 C 57 % 86 % 1014,6 hPa 0,0 l/m 1,6 km/h (1 Bft) W 270 13,0 C 15,3 C 3,2 km/h (1 Bft) 100,00 %
19.07.2019 02:32 25,1 C 15,2 C 57 % 86 % 1014,6 hPa 0,0 l/m 1,6 km/h (1 Bft) W-SW 247 12,9 C 15,2 C 4,8 km/h (1 Bft) 100,00 %
19.07.2019 02:31 25,1 C 15,2 C 57 % 86 % 1014,7 hPa 0,0 l/m 0,0 km/h (0 Bft) W-SW 247 12,9 C 15,2 C 1,6 km/h (1 Bft) 100,00 %
19.07.2019 02:30 25,1 C 15,2 C 57 % 86 % 1014,7 hPa 0,0 l/m 0,0 km/h (0 Bft) N 0 12,9 C 15,2 C 0,0 km/h (0 Bft) 100,00 %
19.07.2019 02:29 25,1 C 15,2 C 57 % 86 % 1014,6 hPa 0,0 l/m 0,0 km/h (0 Bft) W-SW 247 12,9 C 15,2 C 1,6 km/h (1 Bft) 100,00 %
19.07.2019 02:28 25,1 C 15,2 C 57 % 86 % 1014,7 hPa 0,0 l/m 0,0 km/h (0 Bft) W-SW 247 12,9 C 15,2 C 1,6 km/h (1 Bft) 100,00 %
19.07.2019 02:27 25,1 C 15,2 C 57 % 86 % 1014,7 hPa 0,0 l/m 0,0 km/h (0 Bft) W-SW 247 12,9 C 15,2 C 1,6 km/h (1 Bft) 100,00 %
19.07.2019 02:26 25,1 C 15,2 C 57 % 86 % 1014,6 hPa 0,0 l/m 1,6 km/h (1 Bft) W-NW 292 12,9 C 15,2 C 3,2 km/h (1 Bft) 100,00 %
19.07.2019 02:25 25,1 C 15,2 C 57 % 86 % 1014,6 hPa 0,0 l/m 1,6 km/h (1 Bft) W 270 12,9 C 15,2 C 4,8 km/h (1 Bft) 100,00 %
19.07.2019 02:24 25,1 C 15,3 C 57 % 86 % 1014,7 hPa 0,0 l/m 0,0 km/h (0 Bft) N 0 13,0 C 15,3 C 0,0 km/h (0 Bft) 100,00 %
19.07.2019 02:23 25,1 C 15,3 C 57 % 86 % 1014,7 hPa 0,0 l/m 0,0 km/h (0 Bft) S-SW 202 13,0 C 15,3 C 1,6 km/h (1 Bft) 95,65 %
19.07.2019 02:22 25,1 C 15,3 C 57 % 86 % 1014,7 hPa 0,0 l/m 1,6 km/h (1 Bft) S-SW 202 13,0 C 15,3 C 1,6 km/h (1 Bft) 100,00 %
19.07.2019 02:21 25,1 C 15,3 C 57 % 86 % 1014,6 hPa 0,0 l/m 0,0 km/h (0 Bft) SW 225 13,0 C 15,3 C 1,6 km/h (1 Bft) 100,00 %
19.07.2019 02:20 25,1 C 15,3 C 57 % 86 % 1014,6 hPa 0,0 l/m 0,0 km/h (0 Bft) SW 225 13,0 C 15,3 C 1,6 km/h (1 Bft) 100,00 %
19.07.2019 02:19 25,1 C 15,3 C 57 % 86 % 1014,6 hPa 0,0 l/m 0,0 km/h (0 Bft) SW 225 13,0 C 15,3 C 1,6 km/h (1 Bft) 100,00 %
19.07.2019 02:18 25,1 C 15,3 C 57 % 87 % 1014,6 hPa 0,0 l/m 0,0 km/h (0 Bft) SW 225 13,1 C 15,3 C 1,6 km/h (1 Bft) 100,00 %
19.07.2019 02:17 25,2 C 15,2 C 57 % 87 % 1014,6 hPa 0,0 l/m 1,6 km/h (1 Bft) W-SW 247 13,0 C 15,2 C 3,2 km/h (1 Bft) 100,00 %
19.07.2019 02:16 25,1 C 15,2 C 57 % 87 % 1014,6 hPa 0,0 l/m 0,0 km/h (0 Bft) W-SW 247 13,0 C 15,2 C 1,6 km/h (1 Bft) 100,00 %
19.07.2019 02:15 25,1 C 15,2 C 57 % 86 % 1014,5 hPa 0,0 l/m 1,6 km/h (1 Bft) W-SW 247 12,9 C 15,2 C 3,2 km/h (1 Bft) 100,00 %
19.07.2019 02:14 25,1 C 15,2 C 57 % 86 % 1014,5 hPa 0,0 l/m 0,0 km/h (0 Bft) N 0 12,9 C 15,2 C 0,0 km/h (0 Bft) 100,00 %
19.07.2019 02:13 25,1 C 15,2 C 57 % 86 % 1014,5 hPa 0,0 l/m 0,0 km/h (0 Bft) W-SW 247 12,9 C 15,2 C 1,6 km/h (1 Bft) 100,00 %
19.07.2019 02:12 25,1 C 15,2 C 57 % 86 % 1014,5 hPa 0,0 l/m 0,0 km/h (0 Bft) W-SW 247 12,9 C 15,2 C 1,6 km/h (1 Bft) 100,00 %
19.07.2019 02:11 25,1 C 15,2 C 57 % 86 % 1014,6 hPa 0,0 l/m 0,0 km/h (0 Bft) N 0 12,9 C 15,2 C 0,0 km/h (0 Bft) 100,00 %
19.07.2019 02:10 25,1 C 15,2 C 57 % 86 % 1014,5 hPa 0,0 l/m 1,6 km/h (1 Bft) SW 225 12,9 C 15,2 C 3,2 km/h (1 Bft) 100,00 %
19.07.2019 02:09 25,1 C 15,2 C 57 % 86 % 1014,6 hPa 0,0 l/m 0,0 km/h (0 Bft) S-SW 202 12,9 C 15,2 C 1,6 km/h (1 Bft) 95,65 %
19.07.2019 02:08 25,1 C 15,2 C 57 % 86 % 1014,6 hPa 0,0 l/m 0,0 km/h (0 Bft) W-SW 247 12,9 C 15,2 C 1,6 km/h (1 Bft) 100,00 %
19.07.2019 02:07 25,1 C 15,1 C 57 % 86 % 1014,5 hPa 0,0 l/m 0,0 km/h (0 Bft) W-SW 247 12,8 C 15,1 C 3,2 km/h (1 Bft) 100,00 %
19.07.2019 02:06 25,1 C 15,1 C 57 % 86 % 1014,6 hPa 0,0 l/m 1,6 km/h (1 Bft) W-SW 247 12,8 C 15,1 C 3,2 km/h (1 Bft) 100,00 %
19.07.2019 02:05 25,1 C 15,1 C 57 % 86 % 1014,6 hPa 0,0 l/m 0,0 km/h (0 Bft) S-SW 202 12,8 C 15,1 C 3,2 km/h (1 Bft) 100,00 %
19.07.2019 02:04 25,1 C 15,1 C 57 % 86 % 1014,5 hPa 0,0 l/m 0,0 km/h (0 Bft) N 0 12,8 C 15,1 C 0,0 km/h (0 Bft) 100,00 %
19.07.2019 02:03 25,1 C 15,1 C 57 % 86 % 1014,5 hPa 0,0 l/m 0,0 km/h (0 Bft) N 0 12,8 C 15,1 C 0,0 km/h (0 Bft) 100,00 %
19.07.2019 02:02 25,1 C 15,1 C 57 % 86 % 1014,5 hPa 0,0 l/m 0,0 km/h (0 Bft) S-SW 202 12,8 C 15,1 C 1,6 km/h (1 Bft) 95,65 %
19.07.2019 02:01 25,1 C 15,1 C 57 % 86 % 1014,6 hPa 0,0 l/m 0,0 km/h (0 Bft) W 270 12,8 C 15,1 C 1,6 km/h (1 Bft) 100,00 %
19.07.2019 02:00 25,1 C 15,1 C 57 % 86 % 1014,6 hPa 0,0 l/m 0,0 km/h (0 Bft) N 0 12,8 C 15,1 C 0,0 km/h (0 Bft) 100,00 %
19.07.2019 01:59 25,1 C 15,0 C 57 % 87 % 1014,6 hPa 0,0 l/m 1,6 km/h (1 Bft) W 270 12,9 C 15,0 C 1,6 km/h (1 Bft) 100,00 %
19.07.2019 01:58 25,1 C 15,0 C 57 % 87 % 1014,5 hPa 0,0 l/m 1,6 km/h (1 Bft) W 270 12,9 C 15,0 C 1,6 km/h (1 Bft) 100,00 %
19.07.2019 01:57 25,1 C 15,0 C 57 % 86 % 1014,6 hPa 0,0 l/m 0,0 km/h (0 Bft) N 0 12,7 C 15,0 C 0,0 km/h (0 Bft) 95,65 %
19.07.2019 01:56 25,2 C 15,0 C 57 % 86 % 1014,6 hPa 0,0 l/m 1,6 km/h (1 Bft) W 270 12,7 C 15,0 C 1,6 km/h (1 Bft) 100,00 %
19.07.2019 01:55 25,1 C 15,0 C 57 % 87 % 1014,5 hPa 0,0 l/m 0,0 km/h (0 Bft) W-SW 247 12,9 C 15,0 C 1,6 km/h (1 Bft) 95,65 %
19.07.2019 01:54 25,1 C 14,9 C 57 % 87 % 1014,5 hPa 0,0 l/m 0,0 km/h (0 Bft) W-SW 247 12,8 C 14,9 C 1,6 km/h (1 Bft) 100,00 %
19.07.2019 01:53 25,2 C 15,0 C 57 % 87 % 1014,5 hPa 0,0 l/m 0,0 km/h (0 Bft) N 0 12,9 C 15,0 C 0,0 km/h (0 Bft) 100,00 %
19.07.2019 01:52 25,1 C 14,9 C 57 % 87 % 1014,5 hPa 0,0 l/m 0,0 km/h (0 Bft) N 0 12,8 C 14,9 C 0,0 km/h (0 Bft) 100,00 %
19.07.2019 01:51 25,1 C 14,9 C 57 % 87 % 1014,5 hPa 0,0 l/m 0,0 km/h (0 Bft) W-SW 247 12,8 C 14,9 C 1,6 km/h (1 Bft) 100,00 %
19.07.2019 01:50 25,2 C 14,9 C 57 % 87 % 1014,5 hPa 0,0 l/m 0,0 km/h (0 Bft) N 0 12,8 C 14,9 C 0,0 km/h (0 Bft) 100,00 %
19.07.2019 01:49 25,1 C 14,9 C 57 % 87 % 1014,6 hPa 0,0 l/m 0,0 km/h (0 Bft) W-SW 247 12,8 C 14,9 C 1,6 km/h (1 Bft) 100,00 %
19.07.2019 01:48 25,1 C 14,9 C 57 % 87 % 1014,5 hPa 0,0 l/m 0,0 km/h (0 Bft) W-SW 247 12,8 C 14,9 C 1,6 km/h (1 Bft) 100,00 %
19.07.2019 01:47 25,2 C 14,9 C 57 % 87 % 1014,5 hPa 0,0 l/m 0,0 km/h (0 Bft) W-SW 247 12,8 C 14,9 C 1,6 km/h (1 Bft) 100,00 %
19.07.2019 01:46 25,1 C 14,9 C 57 % 87 % 1014,5 hPa 0,0 l/m 0,0 km/h (0 Bft) N 0 12,8 C 14,9 C 0,0 km/h (0 Bft) 100,00 %
19.07.2019 01:45 25,1 C 14,9 C 57 % 88 % 1014,6 hPa 0,0 l/m 0,0 km/h (0 Bft) N 0 12,9 C 14,9 C 0,0 km/h (0 Bft) 100,00 %
19.07.2019 01:44 25,2 C 14,9 C 57 % 88 % 1014,5 hPa 0,0 l/m 0,0 km/h (0 Bft) N 0 12,9 C 14,9 C 0,0 km/h (0 Bft) 100,00 %
19.07.2019 01:43 25,1 C 14,9 C 57 % 88 % 1014,5 hPa 0,0 l/m 0,0 km/h (0 Bft) W-SW 247 12,9 C 14,9 C 1,6 km/h (1 Bft) 100,00 %
19.07.2019 01:42 25,2 C 14,8 C 57 % 88 % 1014,5 hPa 0,0 l/m 0,0 km/h (0 Bft) W 270 12,8 C 14,8 C 1,6 km/h (1 Bft) 100,00 %
19.07.2019 01:41 25,2 C 14,8 C 57 % 88 % 1014,5 hPa 0,0 l/m 0,0 km/h (0 Bft) W 270 12,8 C 14,8 C 1,6 km/h (1 Bft) 100,00 %
19.07.2019 01:40 25,2 C 14,8 C 57 % 88 % 1014,6 hPa 0,0 l/m 1,6 km/h (1 Bft) W 270 12,8 C 14,8 C 3,2 km/h (1 Bft) 100,00 %
19.07.2019 01:39 25,2 C 14,8 C 57 % 89 % 1014,5 hPa 0,0 l/m 1,6 km/h (1 Bft) W 270 13,0 C 14,8 C 1,6 km/h (1 Bft) 100,00 %
19.07.2019 01:38 25,1 C 14,8 C 57 % 89 % 1014,5 hPa 0,0 l/m 1,6 km/h (1 Bft) W-SW 247 13,0 C 14,8 C 1,6 km/h (1 Bft) 100,00 %
19.07.2019 01:37 25,1 C 14,7 C 57 % 89 % 1014,5 hPa 0,0 l/m 0,0 km/h (0 Bft) SW 225 12,9 C 14,7 C 1,6 km/h (1 Bft) 100,00 %
19.07.2019 01:36 25,1 C 14,7 C 57 % 89 % 1014,5 hPa 0,0 l/m 0,0 km/h (0 Bft) W-SW 247 12,9 C 14,7 C 1,6 km/h (1 Bft) 100,00 %
19.07.2019 01:35 25,2 C 14,6 C 57 % 89 % 1014,5 hPa 0,0 l/m 0,0 km/h (0 Bft) W-SW 247 12,8 C 14,6 C 1,6 km/h (1 Bft) 100,00 %
19.07.2019 01:34 25,2 C 14,6 C 57 % 90 % 1014,5 hPa 0,0 l/m 0,0 km/h (0 Bft) W-SW 247 13,0 C 14,6 C 1,6 km/h (1 Bft) 100,00 %
19.07.2019 01:33 25,2 C 14,4 C 57 % 91 % 1014,5 hPa 0,0 l/m 3,2 km/h (1 Bft) W-SW 247 12,9 C 14,4 C 4,8 km/h (1 Bft) 100,00 %
19.07.2019 01:32 25,2 C 14,4 C 57 % 91 % 1014,6 hPa 0,0 l/m 3,2 km/h (1 Bft) W 270 12,9 C 14,4 C 4,8 km/h (1 Bft) 100,00 %
19.07.2019 01:31 25,2 C 14,3 C 57 % 91 % 1014,5 hPa 0,0 l/m 1,6 km/h (1 Bft) N-NW 337 12,8 C 14,3 C 4,8 km/h (1 Bft) 100,00 %
19.07.2019 01:30 25,1 C 14,3 C 57 % 91 % 1014,4 hPa 0,0 l/m 0,0 km/h (0 Bft) N-NO 22 12,8 C 14,3 C 1,6 km/h (1 Bft) 100,00 %
19.07.2019 01:29 25,1 C 14,3 C 57 % 91 % 1014,4 hPa 0,0 l/m 0,0 km/h (0 Bft) N 0 12,8 C 14,3 C 0,0 km/h (0 Bft) 100,00 %
19.07.2019 01:28 25,1 C 14,2 C 57 % 91 % 1014,4 hPa 0,0 l/m 0,0 km/h (0 Bft) N 0 12,8 C 14,2 C 0,0 km/h (0 Bft) 100,00 %
19.07.2019 01:27 25,2 C 14,2 C 57 % 91 % 1014,4 hPa 0,0 l/m 0,0 km/h (0 Bft) N 0 12,8 C 14,2 C 0,0 km/h (0 Bft) 100,00 %
19.07.2019 01:26 25,1 C 14,2 C 57 % 91 % 1014,3 hPa 0,0 l/m 0,0 km/h (0 Bft) N 0 12,8 C 14,2 C 0,0 km/h (0 Bft) 100,00 %
19.07.2019 01:25 25,1 C 14,2 C 57 % 91 % 1014,3 hPa 0,0 l/m 0,0 km/h (0 Bft) N 0 12,8 C 14,2 C 0,0 km/h (0 Bft) 100,00 %
19.07.2019 01:24 25,1 C 14,2 C 57 % 92 % 1014,3 hPa 0,0 l/m 0,0 km/h (0 Bft) N 0 12,9 C 14,2 C 0,0 km/h (0 Bft) 100,00 %
19.07.2019 01:23 25,1 C 14,1 C 57 % 92 % 1014,4 hPa 0,0 l/m 0,0 km/h (0 Bft) N 0 12,8 C 14,1 C 0,0 km/h (0 Bft) 100,00 %
19.07.2019 01:22 25,2 C 14,1 C 57 % 92 % 1014,3 hPa 0,0 l/m 0,0 km/h (0 Bft) N 0 12,8 C 14,1 C 0,0 km/h (0 Bft) 100,00 %
19.07.2019 01:21 25,1 C 14,1 C 57 % 92 % 1014,2 hPa 0,0 l/m 0,0 km/h (0 Bft) N 0 12,8 C 14,1 C 0,0 km/h (0 Bft) 100,00 %
19.07.2019 01:20 25,2 C 14,0 C 57 % 92 % 1014,3 hPa 0,0 l/m 0,0 km/h (0 Bft) N 0 12,7 C 14,0 C 0,0 km/h (0 Bft) 100,00 %
19.07.2019 01:19 25,2 C 14,0 C 57 % 92 % 1014,2 hPa 0,0 l/m 0,0 km/h (0 Bft) N 0 12,7 C 14,0 C 0,0 km/h (0 Bft) 100,00 %
19.07.2019 01:18 25,2 C 14,0 C 57 % 91 % 1014,3 hPa 0,0 l/m 0,0 km/h (0 Bft) N 0 12,6 C 14,0 C 0,0 km/h (0 Bft) 100,00 %
19.07.2019 01:17 25,2 C 14,0 C 57 % 91 % 1014,3 hPa 0,0 l/m 0,0 km/h (0 Bft) N 0 12,6 C 14,0 C 0,0 km/h (0 Bft) 100,00 %
19.07.2019 01:16 25,2 C 14,0 C 57 % 91 % 1014,3 hPa 0,0 l/m 0,0 km/h (0 Bft) N 0 12,6 C 14,0 C 0,0 km/h (0 Bft) 100,00 %
19.07.2019 01:15 25,2 C 14,0 C 57 % 91 % 1014,2 hPa 0,0 l/m 0,0 km/h (0 Bft) N 0 12,6 C 14,0 C 0,0 km/h (0 Bft) 100,00 %
19.07.2019 01:14 25,1 C 14,1 C 57 % 91 % 1014,2 hPa 0,0 l/m 0,0 km/h (0 Bft) N 0 12,7 C 14,1 C 0,0 km/h (0 Bft) 100,00 %
19.07.2019 01:13 25,1 C 14,1 C 57 % 91 % 1014,2 hPa 0,0 l/m 0,0 km/h (0 Bft) N 0 12,7 C 14,1 C 0,0 km/h (0 Bft) 95,65 %
19.07.2019 01:12 25,2 C 14,1 C 57 % 91 % 1014,2 hPa 0,0 l/m 0,0 km/h (0 Bft) N 0 12,7 C 14,1 C 0,0 km/h (0 Bft) 100,00 %
19.07.2019 01:11 25,2 C 14,1 C 57 % 91 % 1014,2 hPa 0,0 l/m 0,0 km/h (0 Bft) N 0 12,7 C 14,1 C 0,0 km/h (0 Bft) 100,00 %
19.07.2019 01:10 25,2 C 14,1 C 57 % 91 % 1014,2 hPa 0,0 l/m 0,0 km/h (0 Bft) N 0 12,7 C 14,1 C 0,0 km/h (0 Bft) 100,00 %
19.07.2019 01:09 25,2 C 14,1 C 56 % 91 % 1014,1 hPa 0,0 l/m 0,0 km/h (0 Bft) N 0 12,7 C 14,1 C 0,0 km/h (0 Bft) 100,00 %
19.07.2019 01:08 25,2 C 14,2 C 56 % 91 % 1014,1 hPa 0,0 l/m 0,0 km/h (0 Bft) N 0 12,8 C 14,2 C 0,0 km/h (0 Bft) 100,00 %
19.07.2019 01:07 25,1 C 14,2 C 56 % 91 % 1014,1 hPa 0,0 l/m 0,0 km/h (0 Bft) N 0 12,8 C 14,2 C 0,0 km/h (0 Bft) 100,00 %
19.07.2019 01:06 25,2 C 14,2 C 56 % 91 % 1014,1 hPa 0,0 l/m 0,0 km/h (0 Bft) N 0 12,8 C 14,2 C 0,0 km/h (0 Bft) 100,00 %
19.07.2019 01:05 25,2 C 14,2 C 56 % 91 % 1014,1 hPa 0,0 l/m 0,0 km/h (0 Bft) N 0 12,8 C 14,2 C 0,0 km/h (0 Bft) 100,00 %
19.07.2019 01:04 25,2 C 14,2 C 56 % 91 % 1014,1 hPa 0,0 l/m 0,0 km/h (0 Bft) N 0 12,8 C 14,2 C 0,0 km/h (0 Bft) 100,00 %
19.07.2019 01:03 25,2 C 14,2 C 56 % 91 % 1014,2 hPa 0,0 l/m 0,0 km/h (0 Bft) N 0 12,8 C 14,2 C 0,0 km/h (0 Bft) 100,00 %
19.07.2019 01:02 25,1 C 14,2 C 56 % 91 % 1014,1 hPa 0,0 l/m 0,0 km/h (0 Bft) N 0 12,8 C 14,2 C 0,0 km/h (0 Bft) 100,00 %
19.07.2019 01:01 25,2 C 14,1 C 56 % 91 % 1014,1 hPa 0,0 l/m 0,0 km/h (0 Bft) N 0 12,7 C 14,1 C 0,0 km/h (0 Bft) 100,00 %
19.07.2019 01:00 25,1 C 14,1 C 56 % 91 % 1014,1 hPa 0,0 l/m 0,0 km/h (0 Bft) N 0 12,7 C 14,1 C 0,0 km/h (0 Bft) 100,00 %
19.07.2019 00:59 25,2 C 14,1 C 56 % 91 % 1014,1 hPa 0,0 l/m 0,0 km/h (0 Bft) N 0 12,7 C 14,1 C 1,6 km/h (1 Bft) 95,65 %
19.07.2019 00:58 25,2 C 14,1 C 56 % 91 % 1014,1 hPa 0,0 l/m 0,0 km/h (0 Bft) N 360 12,7 C 14,1 C 1,6 km/h (1 Bft) 100,00 %
19.07.2019 00:57 25,2 C 14,1 C 56 % 91 % 1014,1 hPa 0,0 l/m 0,0 km/h (0 Bft) N 0 12,7 C 14,1 C 0,0 km/h (0 Bft) 100,00 %
19.07.2019 00:56 25,2 C 14,1 C 56 % 91 % 1014,1 hPa 0,0 l/m 0,0 km/h (0 Bft) N 0 12,7 C 14,1 C 0,0 km/h (0 Bft) 100,00 %
19.07.2019 00:55 25,2 C 14,1 C 56 % 91 % 1014,2 hPa 0,0 l/m 0,0 km/h (0 Bft) N 0 12,7 C 14,1 C 0,0 km/h (0 Bft) 100,00 %
19.07.2019 00:54 25,2 C 14,2 C 56 % 91 % 1014,1 hPa 0,0 l/m 0,0 km/h (0 Bft) N 0 12,8 C 14,2 C 0,0 km/h (0 Bft) 100,00 %
19.07.2019 00:53 25,1 C 14,2 C 56 % 91 % 1014,1 hPa 0,0 l/m 0,0 km/h (0 Bft) N 0 12,8 C 14,2 C 0,0 km/h (0 Bft) 100,00 %
19.07.2019 00:52 25,2 C 14,2 C 56 % 91 % 1014,2 hPa 0,0 l/m 0,0 km/h (0 Bft) N 0 12,8 C 14,2 C 0,0 km/h (0 Bft) 100,00 %
19.07.2019 00:51 25,2 C 14,2 C 56 % 91 % 1014,1 hPa 0,0 l/m 0,0 km/h (0 Bft) N 0 12,8 C 14,2 C 0,0 km/h (0 Bft) 100,00 %
19.07.2019 00:50 25,2 C 14,2 C 56 % 91 % 1014,2 hPa 0,0 l/m 0,0 km/h (0 Bft) N 0 12,8 C 14,2 C 0,0 km/h (0 Bft) 100,00 %
19.07.2019 00:49 25,2 C 14,3 C 56 % 90 % 1014,1 hPa 0,0 l/m 0,0 km/h (0 Bft) N 0 12,7 C 14,3 C 0,0 km/h (0 Bft) 100,00 %
19.07.2019 00:48 25,1 C 14,3 C 56 % 90 % 1014,1 hPa 0,0 l/m 0,0 km/h (0 Bft) N 0 12,7 C 14,3 C 0,0 km/h (0 Bft) 100,00 %
19.07.2019 00:47 25,2 C 14,3 C 56 % 90 % 1014,2 hPa 0,0 l/m 0,0 km/h (0 Bft) N 0 12,7 C 14,3 C 0,0 km/h (0 Bft) 100,00 %
19.07.2019 00:46 25,2 C 14,3 C 56 % 90 % 1014,1 hPa 0,0 l/m 0,0 km/h (0 Bft) N 0 12,7 C 14,3 C 0,0 km/h (0 Bft) 100,00 %
19.07.2019 00:45 25,2 C 14,4 C 56 % 90 % 1014,1 hPa 0,0 l/m 0,0 km/h (0 Bft) N 0 12,8 C 14,4 C 0,0 km/h (0 Bft) 95,65 %
19.07.2019 00:44 25,2 C 14,4 C 56 % 90 % 1014,2 hPa 0,0 l/m 0,0 km/h (0 Bft) N 0 12,8 C 14,4 C 0,0 km/h (0 Bft) 100,00 %
19.07.2019 00:43 25,2 C 14,4 C 56 % 90 % 1014,1 hPa 0,0 l/m 0,0 km/h (0 Bft) N 0 12,8 C 14,4 C 0,0 km/h (0 Bft) 95,65 %
19.07.2019 00:42 25,2 C 14,4 C 56 % 90 % 1014,2 hPa 0,0 l/m 0,0 km/h (0 Bft) N 0 12,8 C 14,4 C 0,0 km/h (0 Bft) 100,00 %
19.07.2019 00:41 25,2 C 14,5 C 56 % 90 % 1014,1 hPa 0,0 l/m 0,0 km/h (0 Bft) N 0 12,9 C 14,5 C 0,0 km/h (0 Bft) 100,00 %
19.07.2019 00:40 25,2 C 14,5 C 56 % 90 % 1014,1 hPa 0,0 l/m 0,0 km/h (0 Bft) N 0 12,9 C 14,5 C 0,0 km/h (0 Bft) 100,00 %
19.07.2019 00:39 25,2 C 14,6 C 56 % 89 % 1014,2 hPa 0,0 l/m 0,0 km/h (0 Bft) N 0 12,8 C 14,6 C 0,0 km/h (0 Bft) 100,00 %
19.07.2019 00:38 25,2 C 14,6 C 56 % 90 % 1014,2 hPa 0,0 l/m 0,0 km/h (0 Bft) N 0 13,0 C 14,6 C 0,0 km/h (0 Bft) 100,00 %
19.07.2019 00:37 25,2 C 14,6 C 56 % 90 % 1014,2 hPa 0,0 l/m 0,0 km/h (0 Bft) N 0 13,0 C 14,6 C 0,0 km/h (0 Bft) 95,65 %
19.07.2019 00:36 25,2 C 14,7 C 56 % 90 % 1014,2 hPa 0,0 l/m 0,0 km/h (0 Bft) N 0 13,1 C 14,7 C 0,0 km/h (0 Bft) 100,00 %
19.07.2019 00:35 25,2 C 14,7 C 56 % 90 % 1014,2 hPa 0,0 l/m 0,0 km/h (0 Bft) N 0 13,1 C 14,7 C 0,0 km/h (0 Bft) 100,00 %
19.07.2019 00:34 25,2 C 14,7 C 56 % 90 % 1014,2 hPa 0,0 l/m 0,0 km/h (0 Bft) N 0 13,1 C 14,7 C 0,0 km/h (0 Bft) 100,00 %
19.07.2019 00:33 25,2 C 14,8 C 56 % 90 % 1014,2 hPa 0,0 l/m 0,0 km/h (0 Bft) N 0 13,2 C 14,8 C 0,0 km/h (0 Bft) 100,00 %
19.07.2019 00:32 25,2 C 14,8 C 56 % 90 % 1014,1 hPa 0,0 l/m 0,0 km/h (0 Bft) N 0 13,2 C 14,8 C 0,0 km/h (0 Bft) 100,00 %
19.07.2019 00:31 25,2 C 14,8 C 56 % 90 % 1014,2 hPa 0,0 l/m 0,0 km/h (0 Bft) N 0 13,2 C 14,8 C 0,0 km/h (0 Bft) 100,00 %
19.07.2019 00:30 25,2 C 14,8 C 56 % 90 % 1014,2 hPa 0,0 l/m 0,0 km/h (0 Bft) N 0 13,2 C 14,8 C 0,0 km/h (0 Bft) 100,00 %
19.07.2019 00:29 25,2 C 14,8 C 56 % 90 % 1014,2 hPa 0,0 l/m 0,0 km/h (0 Bft) N 0 13,2 C 14,8 C 0,0 km/h (0 Bft) 100,00 %
19.07.2019 00:28 25,2 C 14,8 C 56 % 90 % 1014,2 hPa 0,0 l/m 0,0 km/h (0 Bft) N 0 13,2 C 14,8 C 0,0 km/h (0 Bft) 100,00 %
19.07.2019 00:27 25,2 C 14,8 C 56 % 89 % 1014,2 hPa 0,0 l/m 0,0 km/h (0 Bft) N 0 13,0 C 14,8 C 0,0 km/h (0 Bft) 100,00 %
19.07.2019 00:26 25,1 C 14,8 C 56 % 89 % 1014,2 hPa 0,0 l/m 0,0 km/h (0 Bft) N 0 13,0 C 14,8 C 0,0 km/h (0 Bft) 100,00 %
19.07.2019 00:25 25,2 C 14,8 C 56 % 89 % 1014,2 hPa 0,0 l/m 0,0 km/h (0 Bft) N 0 13,0 C 14,8 C 0,0 km/h (0 Bft) 100,00 %
19.07.2019 00:24 25,2 C 14,8 C 56 % 89 % 1014,2 hPa 0,0 l/m 0,0 km/h (0 Bft) N 0 13,0 C 14,8 C 0,0 km/h (0 Bft) 100,00 %
19.07.2019 00:23 25,2 C 14,8 C 56 % 89 % 1014,2 hPa 0,0 l/m 0,0 km/h (0 Bft) N 0 13,0 C 14,8 C 0,0 km/h (0 Bft) 95,65 %
19.07.2019 00:22 25,2 C 14,8 C 56 % 89 % 1014,2 hPa 0,0 l/m 0,0 km/h (0 Bft) N 0 13,0 C 14,8 C 0,0 km/h (0 Bft) 100,00 %
19.07.2019 00:21 25,2 C 14,8 C 56 % 89 % 1014,2 hPa 0,0 l/m 0,0 km/h (0 Bft) N 0 13,0 C 14,8 C 0,0 km/h (0 Bft) 100,00 %
19.07.2019 00:20 25,2 C 14,8 C 56 % 88 % 1014,2 hPa 0,0 l/m 0,0 km/h (0 Bft) N 0 12,8 C 14,8 C 0,0 km/h (0 Bft) 100,00 %
19.07.2019 00:19 25,2 C 14,8 C 56 % 88 % 1014,1 hPa 0,0 l/m 0,0 km/h (0 Bft) N 0 12,8 C 14,8 C 0,0 km/h (0 Bft) 100,00 %
19.07.2019 00:18 25,2 C 14,8 C 56 % 88 % 1014,2 hPa 0,0 l/m 0,0 km/h (0 Bft) N 0 12,8 C 14,8 C 0,0 km/h (0 Bft) 95,65 %
19.07.2019 00:17 25,2 C 14,9 C 56 % 88 % 1014,1 hPa 0,0 l/m 0,0 km/h (0 Bft) N 0 12,9 C 14,9 C 0,0 km/h (0 Bft) 100,00 %
19.07.2019 00:16 25,2 C 14,9 C 56 % 88 % 1014,1 hPa 0,0 l/m 0,0 km/h (0 Bft) N 0 12,9 C 14,9 C 0,0 km/h (0 Bft) 100,00 %
19.07.2019 00:15 25,1 C 14,9 C 56 % 88 % 1014,1 hPa 0,0 l/m 0,0 km/h (0 Bft) N 0 12,9 C 14,9 C 0,0 km/h (0 Bft) 100,00 %
19.07.2019 00:14 25,2 C 14,9 C 55 % 88 % 1014,0 hPa 0,0 l/m 0,0 km/h (0 Bft) N 0 12,9 C 14,9 C 0,0 km/h (0 Bft) 100,00 %
19.07.2019 00:13 25,2 C 15,0 C 56 % 88 % 1014,1 hPa 0,0 l/m 0,0 km/h (0 Bft) N 0 13,0 C 15,0 C 0,0 km/h (0 Bft) 100,00 %
19.07.2019 00:12 25,2 C 15,0 C 55 % 88 % 1014,1 hPa 0,0 l/m 0,0 km/h (0 Bft) N 0 13,0 C 15,0 C 0,0 km/h (0 Bft) 100,00 %
19.07.2019 00:11 25,2 C 15,1 C 55 % 88 % 1014,0 hPa 0,0 l/m 0,0 km/h (0 Bft) N 0 13,1 C 15,1 C 0,0 km/h (0 Bft) 100,00 %
19.07.2019 00:10 25,2 C 15,1 C 55 % 88 % 1014,0 hPa 0,0 l/m 0,0 km/h (0 Bft) N 0 13,1 C 15,1 C 0,0 km/h (0 Bft) 100,00 %
19.07.2019 00:09 25,2 C 15,1 C 55 % 88 % 1014,0 hPa 0,0 l/m 0,0 km/h (0 Bft) N 0 13,1 C 15,1 C 0,0 km/h (0 Bft) 100,00 %
19.07.2019 00:08 25,2 C 15,1 C 55 % 88 % 1014,0 hPa 0,0 l/m 0,0 km/h (0 Bft) N 0 13,1 C 15,1 C 0,0 km/h (0 Bft) 100,00 %
19.07.2019 00:07 25,2 C 15,1 C 55 % 88 % 1014,0 hPa 0,0 l/m 0,0 km/h (0 Bft) N 0 13,1 C 15,1 C 0,0 km/h (0 Bft) 100,00 %
19.07.2019 00:06 25,2 C 15,2 C 55 % 87 % 1014,0 hPa 0,0 l/m 0,0 km/h (0 Bft) N 0 13,0 C 15,2 C 0,0 km/h (0 Bft) 100,00 %
19.07.2019 00:05 25,2 C 15,2 C 55 % 87 % 1013,9 hPa 0,0 l/m 0,0 km/h (0 Bft) N 0 13,0 C 15,2 C 0,0 km/h (0 Bft) 100,00 %
19.07.2019 00:04 25,2 C 15,3 C 55 % 87 % 1013,9 hPa 0,0 l/m 0,0 km/h (0 Bft) N 0 13,1 C 15,3 C 0,0 km/h (0 Bft) 95,65 %
19.07.2019 00:03 25,2 C 15,3 C 55 % 87 % 1013,9 hPa 0,0 l/m 0,0 km/h (0 Bft) N 0 13,1 C 15,3 C 0,0 km/h (0 Bft) 100,00 %
19.07.2019 00:02 25,2 C 15,3 C 55 % 87 % 1013,9 hPa 0,0 l/m 0,0 km/h (0 Bft) N 0 13,1 C 15,3 C 0,0 km/h (0 Bft) 100,00 %
19.07.2019 00:01 25,2 C 15,3 C 55 % 87 % 1013,9 hPa 0,0 l/m 0,0 km/h (0 Bft) N 0 13,1 C 15,3 C 0,0 km/h (0 Bft) 100,00 %
19.07.2019 00:00 25,2 C 15,4 C 55 % 87 % 1013,9 hPa 0,0 l/m 0,0 km/h (0 Bft) N 0 13,2 C 15,4 C 0,0 km/h (0 Bft) 95,65 %
_ Min-Zeit 08:10 04:41 07:43 17:07 00:00 - 00:00 - - 04:32 04:41 00:00 14:07
Minimum _ 24,5 C 13,2 C 53 % 46 % 1013,9 hPa - 0,0 km/h (0 Bft) - - 11,9 C 13,2 C 0,0 km/h (0 Bft) 0,00 %
_ Max-Zeit 19:27 16:59 01:10 05:05 10:47 00:00 15:29 - - 20:02 16:59 14:18 00:01
Maximum _ 26,9 C 27,6 C 57 % 93 % 1016,6 hPa 0,0 l/m 8,0 km/h
NO (2 Bft)
- - 18,3 C 27,6 C 9,7 km/h
O-NO (2 Bft)
100,00 %
Durchschnitt _ 25,4 C 21,0 C 56 % 70 % 1015,3 hPa #0,0 l/m 1,1 km/h (0 Bft) O-NO - 14,8 C 21,0 C 1,9 km/h (1 Bft) 97,77 %